[[{"header":{"parameterUnit":"m.s-1","parameterCategory":1,"la1":31.0,"la2":29.5877,"lo1":-88.7671,"lo2":-86.6584,"dy":0.0162,"dx":0.0185,"nx":115,"ny":88,"refTime":"2024-03-12T06:00:00:Z","depth":0,"parameterNumber":2,"parameterNumberName":"U-component_of_WINDS"},"data":[0.0,0.0,0.0,0.0,0.0,0.0,0.0,0.0,0.0,0.0,0.0,0.0,0.0,0.0,0.0,0.0,0.0,0.0,0.0,0.0,0.0,0.0,0.0,0.0,0.0,0.0,0.0,0.0,0.0,0.0,0.0,0.0,0.0,0.0,0.0,0.0,0.0,0.0,0.0,0.0,0.0,0.0,0.0,0.0,0.0,0.0,0.0,0.0,0.0,0.0,0.0,0.0,0.0,0.0,0.0,0.0,0.0,0.0,0.0,0.0,0.0,0.0,0.0,0.0,0.0,0.0,0.0,0.0,0.0,0.0,0.0,0.0,0.0,0.0,0.0,0.0,0.0,0.0,0.0,0.0,0.0,0.0,0.0,0.0,0.0,0.0,0.0,0.0,0.0,0.0,0.0,0.0,0.0,0.0,0.0,0.0,0.0,0.0,0.0,0.0,0.0,0.0,0.0,0.0,0.0,0.0,0.0,0.0,0.0,0.0,0.0,0.0,0.0,0.0,0.0,0.0,0.0,0.0,0.0,0.0,0.0,0.0,0.0,0.0,0.0,0.0,0.0,0.0,0.0,0.0,0.0,0.0,0.0,0.0,0.0,0.0,0.0,0.0,0.0,0.0,0.0,0.0,0.0,0.0,0.0,0.0,0.0,0.0,0.0,0.0,0.0,0.0,0.0,0.0,0.0,0.0,0.0,0.0,0.0,0.0,0.0,0.0,0.0,0.0,0.0,0.0,0.0,0.0,0.0,0.0,0.0,0.0,0.0,0.0,0.0,0.0,0.0,0.0,0.0,0.0,0.0,0.0,0.0,0.0,0.0,0.0,0.0,0.0,0.0,0.0,0.0,0.0,0.0,0.0,0.0,0.0,0.0,0.0,0.0,0.0,0.0,0.0,0.0,0.0,0.0,0.0,0.0,0.0,0.0,0.0,0.0,0.0,0.0,0.0,0.0,0.0,0.0,0.0,0.0,0.0,0.0,0.0,0.0,0.0,0.0,0.0,0.0,0.0,0.0,0.0,0.0,0.0,0.0,0.0,0.0,0.0,0.0,0.0,0.0,0.0,0.0,0.0,0.0,0.0,0.0,0.0,0.0,0.0,0.0,0.0,0.0,0.0,0.0,0.0,0.0,0.0,0.0,0.0,0.0,0.0,0.0,0.0,0.0,0.0,0.0,0.0,0.0,0.0,0.0,0.0,0.0,0.0,0.0,0.0,0.0,0.0,0.0,0.0,0.0,0.0,0.0,0.0,0.0,0.0,0.0,0.0,0.0,0.0,0.0,0.0,0.0,0.0,0.0,0.0,0.0,0.0,0.0,0.0,0.0,0.0,0.0,0.0,0.0,0.0,0.0,0.0,0.0,0.0,0.0,0.0,0.0,0.0,0.0,0.0,0.0,0.0,0.0,0.0,0.0,0.0,0.0,0.0,0.0,0.0,0.0,0.0,0.0,0.0,0.0,0.0,0.0,0.0,0.0,0.0,0.0,0.0,0.0,0.0,0.0,0.0,0.0,0.0,0.0,0.0,0.0,0.0,0.0,0.0,0.0,0.0,0.0,0.0,0.0,0.0,0.0,0.0,0.0,0.0,0.0,0.0,0.0,0.0,0.0,0.0,0.0,0.0,0.0,0.0,0.0,0.0,0.0,0.0,0.0,0.0,0.0,0.0,0.0,0.0,0.0,0.0,0.0,0.0,0.0,0.0,0.0,0.0,0.0,0.0,0.0,0.0,0.0,0.0,0.0,0.0,0.0,0.0,0.0,0.0,0.0,0.0,0.0,0.0,0.0,0.0,0.0,0.0,0.0,0.0,0.0,0.0,0.0,0.0,0.0,0.0,0.0,0.0,0.0,0.0,0.0,0.0,0.0,0.0,0.0,0.0,0.0,0.0,0.0,0.0,0.0,0.0,0.0,0.0,0.0,0.0,0.0,0.0,0.0,0.0,0.0,0.0,0.0,0.0,0.0,0.0,0.0,0.0,0.0,0.0,0.0,0.0,0.0,0.0,0.0,0.0,0.0,0.0,0.0,0.0,0.0,0.0,0.0,0.0,0.0,0.0,0.0,0.0,0.0,0.0,0.0,0.0,0.0,0.0,0.0,0.0,0.0,0.0,0.0,0.0,0.0,0.0,0.0,0.0,0.0,0.0,0.0,0.0,0.0,0.0,0.0,0.0,0.0,0.0,0.0,0.0,0.0,0.0,0.0,0.0,0.0,0.0,0.0,0.0,0.0,0.0,0.0,0.0,0.0,0.0,0.0,0.0,0.0,0.0,0.0,0.0,0.0,0.0,0.0,0.0,0.0,0.0,0.0,0.0,0.0,0.0,0.0,0.0,0.0,0.0,0.0,0.0,0.0,0.0,0.0,0.0,0.0,0.0,0.0,0.0,0.0,0.0,0.0,0.0,0.0,0.0,0.0,0.0,0.0,0.0,0.0,0.0,0.0,0.0,0.0,0.0,0.0,0.0,0.0,0.0,0.0,0.0,0.0,0.0,0.0,0.0,0.0,0.0,0.0,0.0,0.0,0.0,0.0,0.0,0.0,0.0,0.0,0.0,0.0,0.0,0.0,0.0,0.0,0.0,0.0,0.0,0.0,0.0,0.0,0.0,0.0,0.0,0.0,0.0,0.0,0.0,0.0,0.0,0.0,0.0,0.0,0.0,0.0,0.0,0.0,0.0,0.0,0.0,0.0,0.0,0.0,0.0,0.0,0.0,0.0,0.0,0.0,0.0,0.0,0.0,0.0,0.0,0.0,0.0,0.0,0.0,0.0,0.0,0.0,0.0,0.0,0.0,0.0,0.0,0.0,0.0,0.0,0.0,0.0,0.0,0.0,0.0,0.0,0.0,0.0,0.0,0.0,0.0,0.0,0.0,0.0,0.0,0.0,0.0,0.0,0.0,0.0,0.0,0.0,0.0,0.0,0.0,0.0,0.0,0.0,0.0,0.0,0.0,0.0,0.0,0.0,0.0,0.0,0.0,0.0,0.0,0.0,0.0,0.0,0.0,0.0,0.0,0.0,0.0,0.0,0.0,0.0,0.0,0.0,0.0,0.0,0.0,0.0,0.0,0.0,0.0,0.0,0.0,0.0,0.0,0.0,0.0,0.0,0.0,0.0,0.0,0.0,0.0,0.0,0.0,0.0,0.0,0.0,0.0,0.0,0.0,0.0,0.0,0.0,0.0,0.0,0.0,0.0,0.0,0.0,0.0,0.0,0.0,0.0,0.0,0.0,0.0,0.0,0.0,0.0,0.0,0.0,0.0,0.0,0.0,0.0,0.0,0.0,0.0,0.0,0.0,0.0,0.0,0.0,0.0,0.0,0.0,0.0,0.0,0.0,0.0,0.0,0.0,0.0,0.0,0.0,0.0,0.0,0.0,0.0,0.0,0.0,0.0,0.0,0.0,0.0,0.0,0.0,0.0,0.0,0.0,0.0,0.0,0.0,0.0,0.0,0.0,0.0,0.0,0.0,0.0,0.0,0.0,0.0,0.0,0.0,0.0,0.0,0.0,0.0,0.0,0.0,0.0,0.0,0.0,0.0,0.0,0.0,0.0,0.0,0.0,0.0,0.0,0.0,0.0,0.0,0.0,0.0,0.0,0.0,0.0,0.0,0.0,0.0,0.0,0.0,0.0,0.0,0.0,0.0,0.0,0.0,0.0,0.0,0.0,0.0,0.0,0.0,0.0,0.0,0.0,0.0,0.0,0.0,0.0,0.0,0.0,0.0,0.0,0.0,0.0,0.0,0.0,0.0,0.0,0.0,0.0,0.0,0.0,0.0,0.0,0.0,0.0,0.0,0.0,0.0,0.0,0.0,0.0,0.0,0.0,0.0,0.0,0.0,0.0,0.0,0.0,0.0,0.0,0.0,0.0,0.0,0.0,0.0,0.0,0.0,0.0,0.0,0.0,0.0,0.0,0.0,0.0,0.0,0.0,0.0,0.0,0.0,0.0,0.0,0.0,0.0,0.0,0.0,0.0,0.0,0.0,0.0,0.0,0.0,0.0,0.0,0.0,0.0,0.0,0.0,0.0,0.0,0.0,0.0,0.0,0.0,0.0,0.0,0.0,0.0,0.0,0.0,0.0,0.0,0.0,0.0,0.0,0.0,0.0,0.0,0.0,0.0,0.0,0.0,0.0,0.0,0.0,0.0,0.0,0.0,0.0,0.0,0.0,0.0,0.0,0.0,0.0,0.0,0.0,0.0,0.0,0.0,0.0,0.0,0.0,0.0,0.0,0.0,0.0,0.0,0.0,0.0,0.0,0.0,0.0,0.0,0.0,-3.56,0.0,0.0,0.0,0.0,0.0,0.0,0.0,0.0,0.0,0.0,0.0,0.0,0.0,0.0,0.0,0.0,0.0,0.0,0.0,0.0,0.0,0.0,0.0,0.0,0.0,0.0,0.0,0.0,0.0,0.0,0.0,0.0,0.0,0.0,0.0,0.0,0.0,0.0,0.0,0.0,0.0,0.0,0.0,0.0,0.0,0.0,0.0,0.0,0.0,0.0,0.0,0.0,0.0,0.0,0.0,0.0,0.0,0.0,0.0,0.0,0.0,0.0,0.0,0.0,0.0,0.0,0.0,0.0,0.0,0.0,0.0,0.0,0.0,0.0,0.0,0.0,0.0,0.0,0.0,0.0,0.0,0.0,0.0,0.0,0.0,0.0,0.0,0.0,0.0,0.0,0.0,0.0,0.0,0.0,0.0,0.0,0.0,0.0,0.0,0.0,0.0,0.0,0.0,0.0,0.0,0.0,0.0,0.0,0.0,0.0,-3.56,-3.56,-3.56,-3.56,-3.56,0.0,0.0,0.0,0.0,0.0,0.0,0.0,0.0,0.0,0.0,0.0,0.0,0.0,0.0,0.0,0.0,0.0,0.0,0.0,0.0,0.0,0.0,0.0,0.0,0.0,0.0,0.0,0.0,0.0,0.0,0.0,0.0,0.0,0.0,0.0,0.0,0.0,0.0,0.0,0.0,0.0,0.0,0.0,0.0,0.0,0.0,0.0,0.0,0.0,0.0,0.0,0.0,0.0,0.0,0.0,0.0,0.0,0.0,0.0,0.0,0.0,0.0,0.0,0.0,0.0,0.0,0.0,0.0,0.0,0.0,0.0,0.0,0.0,0.0,0.0,0.0,0.0,0.0,0.0,0.0,0.0,0.0,0.0,0.0,0.0,0.0,0.0,0.0,0.0,0.0,0.0,0.0,0.0,0.0,0.0,0.0,0.0,0.0,0.0,0.0,0.0,0.0,0.0,0.0,0.0,0.0,0.0,0.0,0.0,0.0,0.0,0.0,-3.5893,-3.5893,-3.587,0.0,0.0,0.0,0.0,0.0,0.0,0.0,0.0,0.0,0.0,0.0,0.0,0.0,0.0,0.0,0.0,0.0,0.0,0.0,0.0,0.0,0.0,0.0,0.0,0.0,0.0,0.0,0.0,0.0,0.0,0.0,0.0,0.0,0.0,0.0,0.0,0.0,0.0,0.0,0.0,0.0,0.0,0.0,0.0,0.0,0.0,0.0,0.0,0.0,0.0,0.0,0.0,0.0,0.0,0.0,0.0,0.0,0.0,0.0,0.0,0.0,0.0,0.0,0.0,0.0,0.0,0.0,0.0,0.0,0.0,0.0,0.0,0.0,0.0,0.0,0.0,0.0,0.0,0.0,0.0,0.0,0.0,0.0,0.0,0.0,0.0,0.0,0.0,0.0,0.0,0.0,0.0,0.0,0.0,0.0,0.0,0.0,0.0,0.0,0.0,0.0,0.0,0.0,0.0,0.0,0.0,0.0,0.0,0.0,0.0,-3.596,-3.666,-3.6694,0.0,-3.6694,0.0,0.0,0.0,0.0,0.0,0.0,0.0,0.0,0.0,0.0,0.0,0.0,0.0,0.0,0.0,0.0,0.0,0.0,0.0,0.0,0.0,0.0,0.0,0.0,0.0,0.0,0.0,0.0,0.0,0.0,0.0,0.0,0.0,0.0,0.0,0.0,0.0,0.0,0.0,0.0,0.0,0.0,0.0,0.0,0.0,0.0,0.0,0.0,0.0,0.0,0.0,0.0,0.0,0.0,0.0,0.0,0.0,0.0,0.0,0.0,0.0,0.0,0.0,0.0,0.0,0.0,0.0,0.0,0.0,0.0,0.0,0.0,0.0,0.0,0.0,0.0,0.0,0.0,0.0,0.0,0.0,0.0,0.0,0.0,0.0,0.0,0.0,0.0,0.0,0.0,0.0,0.0,0.0,0.0,0.0,0.0,0.0,0.0,0.0,0.0,0.0,0.0,0.0,0.0,0.0,0.0,0.0,0.0,0.0,0.0,-3.6907,-3.6829,-3.6795,-3.6795,0.0,0.0,0.0,0.0,0.0,0.0,0.0,0.0,0.0,0.0,0.0,0.0,0.0,0.0,0.0,0.0,0.0,0.0,0.0,0.0,0.0,0.0,0.0,0.0,0.0,0.0,0.0,0.0,0.0,0.0,0.0,0.0,0.0,0.0,0.0,0.0,0.0,0.0,0.0,0.0,0.0,0.0,0.0,0.0,0.0,0.0,0.0,0.0,0.0,0.0,0.0,0.0,0.0,0.0,0.0,0.0,0.0,0.0,0.0,0.0,0.0,0.0,0.0,0.0,0.0,0.0,0.0,0.0,0.0,0.0,0.0,0.0,0.0,0.0,0.0,0.0,0.0,0.0,0.0,0.0,0.0,0.0,0.0,0.0,0.0,0.0,0.0,0.0,0.0,0.0,0.0,0.0,0.0,0.0,0.0,0.0,0.0,0.0,0.0,0.0,0.0,0.0,0.0,0.0,0.0,0.0,0.0,0.0,0.0,0.0,-3.7144,-3.7449,-3.711,-3.71,-3.7032,-3.6829,0.0,0.0,0.0,0.0,0.0,0.0,0.0,0.0,0.0,0.0,0.0,0.0,0.0,0.0,0.0,0.0,0.0,0.0,0.0,0.0,0.0,0.0,0.0,0.0,0.0,0.0,0.0,0.0,0.0,0.0,0.0,0.0,0.0,0.0,0.0,0.0,0.0,0.0,0.0,0.0,0.0,0.0,0.0,0.0,0.0,0.0,0.0,0.0,0.0,0.0,0.0,0.0,0.0,0.0,0.0,0.0,0.0,0.0,0.0,0.0,0.0,0.0,0.0,0.0,0.0,0.0,0.0,0.0,0.0,0.0,0.0,0.0,0.0,0.0,0.0,0.0,0.0,0.0,0.0,0.0,0.0,0.0,0.0,0.0,0.0,0.0,0.0,0.0,0.0,0.0,0.0,0.0,0.0,0.0,0.0,0.0,0.0,0.0,0.0,0.0,0.0,0.0,0.0,0.0,0.0,0.0,0.0,0.0,-3.7686,-3.7144,-3.7178,-3.7855,-3.7855,-3.7516,0.0,0.0,0.0,0.0,0.0,0.0,0.0,0.0,0.0,0.0,0.0,0.0,0.0,0.0,0.0,0.0,0.0,0.0,0.0,0.0,0.0,0.0,0.0,0.0,0.0,0.0,0.0,0.0,0.0,0.0,0.0,0.0,0.0,0.0,0.0,0.0,0.0,0.0,0.0,0.0,0.0,0.0,0.0,0.0,0.0,0.0,0.0,0.0,0.0,0.0,0.0,0.0,0.0,0.0,0.0,0.0,0.0,0.0,0.0,0.0,0.0,0.0,0.0,0.0,0.0,0.0,0.0,0.0,0.0,0.0,0.0,0.0,0.0,0.0,0.0,0.0,0.0,0.0,0.0,0.0,0.0,0.0,0.0,0.0,0.0,0.0,0.0,0.0,0.0,0.0,0.0,0.0,0.0,0.0,0.0,0.0,0.0,0.0,0.0,0.0,0.0,0.0,0.0,0.0,0.0,0.0,0.0,0.0,0.0,-3.6434,-3.6671,-3.7608,-3.9174,-3.7922,-3.7077,0.0,0.0,0.0,0.0,0.0,0.0,0.0,0.0,0.0,0.0,0.0,0.0,0.0,0.0,0.0,0.0,0.0,0.0,0.0,0.0,0.0,0.0,0.0,0.0,0.0,0.0,0.0,0.0,0.0,0.0,0.0,0.0,0.0,0.0,0.0,0.0,0.0,0.0,0.0,0.0,0.0,0.0,0.0,0.0,0.0,0.0,0.0,0.0,0.0,0.0,0.0,0.0,0.0,0.0,0.0,0.0,0.0,0.0,0.0,0.0,0.0,0.0,0.0,0.0,0.0,0.0,0.0,0.0,0.0,0.0,0.0,0.0,0.0,0.0,0.0,0.0,0.0,0.0,0.0,0.0,0.0,0.0,0.0,0.0,0.0,0.0,0.0,0.0,0.0,0.0,0.0,0.0,0.0,0.0,0.0,0.0,0.0,0.0,0.0,0.0,0.0,0.0,0.0,0.0,0.0,0.0,0.0,0.0,0.0,-3.6343,0.0,-3.8115,-3.9242,-3.7946,-3.6931,0.0,0.0,0.0,0.0,0.0,0.0,0.0,0.0,0.0,0.0,0.0,0.0,0.0,0.0,0.0,0.0,0.0,0.0,0.0,0.0,0.0,0.0,0.0,0.0,0.0,0.0,0.0,0.0,0.0,0.0,0.0,0.0,0.0,0.0,0.0,0.0,0.0,0.0,0.0,0.0,0.0,0.0,0.0,0.0,0.0,0.0,0.0,0.0,0.0,0.0,0.0,0.0,0.0,0.0,0.0,0.0,0.0,0.0,0.0,0.0,0.0,0.0,0.0,0.0,0.0,0.0,0.0,0.0,0.0,0.0,0.0,0.0,0.0,0.0,0.0,0.0,0.0,0.0,0.0,0.0,0.0,0.0,0.0,0.0,0.0,0.0,0.0,0.0,0.0,0.0,0.0,0.0,0.0,0.0,0.0,0.0,0.0,0.0,0.0,0.0,0.0,0.0,0.0,0.0,0.0,0.0,0.0,0.0,-3.6366,-3.7821,-3.8531,-3.8599,-3.799,-3.7889,-3.7155,0.0,0.0,0.0,0.0,0.0,0.0,0.0,0.0,0.0,0.0,0.0,0.0,0.0,0.0,0.0,0.0,0.0,0.0,0.0,0.0,0.0,0.0,0.0,0.0,0.0,0.0,0.0,0.0,0.0,0.0,0.0,0.0,0.0,0.0,0.0,0.0,0.0,0.0,0.0,0.0,0.0,0.0,0.0,0.0,0.0,0.0,0.0,0.0,0.0,0.0,0.0,0.0,0.0,0.0,0.0,0.0,0.0,0.0,0.0,0.0,0.0,0.0,0.0,0.0,0.0,0.0,0.0,0.0,0.0,0.0,0.0,0.0,0.0,0.0,0.0,0.0,0.0,0.0,0.0,0.0,0.0,0.0,0.0,0.0,0.0,0.0,0.0,0.0,0.0,0.0,0.0,0.0,0.0,0.0,0.0,0.0,0.0,0.0,0.0,0.0,0.0,0.0,0.0,0.0,0.0,0.0,0.0,0.0,0.0,-3.7144,-3.7855,-3.8599,-3.9309,-3.7946,-3.7178,0.0,0.0,0.0,0.0,0.0,0.0,0.0,0.0,0.0,0.0,0.0,0.0,0.0,0.0,0.0,0.0,0.0,0.0,0.0,0.0,0.0,0.0,0.0,0.0,0.0,0.0,0.0,0.0,0.0,0.0,0.0,0.0,0.0,0.0,0.0,0.0,0.0,0.0,0.0,0.0,0.0,0.0,0.0,0.0,0.0,0.0,0.0,0.0,0.0,0.0,0.0,0.0,0.0,0.0,0.0,0.0,0.0,0.0,0.0,0.0,0.0,0.0,0.0,0.0,0.0,0.0,0.0,0.0,0.0,0.0,0.0,0.0,0.0,0.0,0.0,0.0,0.0,0.0,0.0,0.0,0.0,0.0,0.0,0.0,0.0,0.0,0.0,0.0,0.0,0.0,0.0,0.0,0.0,0.0,0.0,0.0,0.0,0.0,0.0,0.0,0.0,0.0,0.0,0.0,0.0,0.0,0.0,0.0,0.0,-3.8894,-3.9309,-3.9851,-4.0485,-3.8894,-3.7845,-3.7483,0.0,0.0,0.0,0.0,0.0,0.0,0.0,0.0,0.0,0.0,0.0,0.0,0.0,0.0,0.0,0.0,0.0,0.0,0.0,0.0,0.0,0.0,0.0,0.0,0.0,0.0,0.0,0.0,0.0,0.0,0.0,0.0,0.0,0.0,0.0,0.0,0.0,0.0,0.0,0.0,0.0,0.0,0.0,0.0,0.0,0.0,0.0,0.0,0.0,0.0,0.0,0.0,0.0,0.0,0.0,0.0,0.0,0.0,0.0,0.0,0.0,0.0,0.0,0.0,0.0,0.0,0.0,0.0,0.0,0.0,0.0,0.0,0.0,0.0,0.0,0.0,0.0,0.0,0.0,0.0,0.0,0.0,0.0,0.0,0.0,0.0,0.0,0.0,0.0,0.0,0.0,0.0,0.0,0.0,0.0,0.0,0.0,0.0,0.0,0.0,0.0,0.0,0.0,0.0,0.0,0.0,0.0,0.0,-4.2354,-4.2455,-4.2219,-4.1576,-4.0587,-3.9131,0.0,0.0,0.0,0.0,0.0,0.0,0.0,0.0,0.0,0.0,0.0,0.0,0.0,0.0,0.0,0.0,0.0,0.0,0.0,0.0,0.0,0.0,0.0,0.0,0.0,0.0,0.0,0.0,0.0,0.0,0.0,0.0,0.0,0.0,0.0,0.0,0.0,0.0,0.0,0.0,0.0,0.0,0.0,0.0,0.0,0.0,0.0,0.0,0.0,0.0,0.0,0.0,0.0,0.0,0.0,0.0,0.0,0.0,0.0,0.0,0.0,0.0,0.0,0.0,0.0,0.0,0.0,0.0,0.0,0.0,0.0,0.0,0.0,0.0,0.0,0.0,0.0,0.0,0.0,0.0,0.0,0.0,0.0,0.0,0.0,0.0,0.0,0.0,0.0,0.0,0.0,0.0,0.0,0.0,0.0,0.0,0.0,0.0,0.0,0.0,0.0,0.0,0.0,0.0,0.0,0.0,0.0,0.0,0.0,-4.3098,-4.4756,-4.5534,-4.5263,-4.1914,-4.0113,0.0,0.0,0.0,0.0,0.0,0.0,0.0,0.0,0.0,0.0,0.0,0.0,0.0,0.0,0.0,0.0,0.0,0.0,0.0,0.0,0.0,0.0,0.0,0.0,0.0,0.0,0.0,0.0,0.0,0.0,0.0,0.0,0.0,0.0,0.0,0.0,0.0,0.0,0.0,0.0,0.0,0.0,0.0,0.0,0.0,0.0,0.0,0.0,0.0,0.0,0.0,0.0,0.0,0.0,0.0,0.0,0.0,0.0,0.0,0.0,0.0,0.0,0.0,0.0,0.0,0.0,0.0,0.0,0.0,0.0,0.0,0.0,0.0,0.0,0.0,0.0,0.0,0.0,0.0,0.0,0.0,0.0,0.0,0.0,0.0,0.0,0.0,0.0,0.0,0.0,0.0,0.0,0.0,0.0,0.0,0.0,0.0,0.0,0.0,0.0,0.0,0.0,0.0,0.0,0.0,0.0,0.0,0.0,-4.2726,-4.5235,-4.6887,-4.8003,-4.8612,-4.4344,-4.1576,0.0,0.0,0.0,0.0,0.0,0.0,0.0,0.0,0.0,0.0,0.0,0.0,0.0,0.0,0.0,0.0,0.0,0.0,0.0,0.0,0.0,0.0,0.0,0.0,0.0,0.0,0.0,0.0,0.0,0.0,0.0,0.0,0.0,0.0,0.0,0.0,0.0,0.0,0.0,0.0,0.0,0.0,0.0,0.0,0.0,0.0,0.0,0.0,0.0,0.0,0.0,0.0,0.0,0.0,0.0,0.0,0.0,0.0,0.0,0.0,0.0,0.0,0.0,0.0,0.0,0.0,0.0,0.0,0.0,0.0,0.0,0.0,0.0,0.0,0.0,0.0,0.0,0.0,0.0,0.0,0.0,0.0,0.0,0.0,0.0,0.0,0.0,0.0,0.0,0.0,0.0,0.0,0.0,0.0,0.0,0.0,0.0,0.0,0.0,0.0,0.0,0.0,0.0,0.0,0.0,0.0,0.0,0.0,-4.4863,-4.7804,-4.852,-4.9504,-5.075,-4.6824,-4.3301,0.0,0.0,0.0,0.0,0.0,0.0,0.0,0.0,0.0,0.0,0.0,0.0,0.0,0.0,0.0,0.0,0.0,0.0,0.0,0.0,0.0,0.0,0.0,0.0,0.0,0.0,0.0,0.0,0.0,0.0,0.0,0.0,0.0,0.0,0.0,0.0,0.0,0.0,0.0,0.0,0.0,0.0,0.0,0.0,0.0,0.0,0.0,0.0,0.0,0.0,0.0,0.0,0.0,0.0,0.0,0.0,0.0,0.0,0.0,0.0,0.0,0.0,0.0,0.0,0.0,0.0,0.0,0.0,0.0,0.0,0.0,0.0,0.0,0.0,0.0,0.0,0.0,0.0,0.0,0.0,0.0,0.0,0.0,0.0,0.0,0.0,0.0,0.0,0.0,0.0,0.0,0.0,0.0,0.0,0.0,0.0,0.0,0.0,0.0,0.0,0.0,0.0,0.0,0.0,0.0,0.0,0.0,0.0,-4.4863,-4.7804,-4.789,-4.8332,-4.9194,-4.6193,-4.4012,0.0,0.0,0.0,0.0,0.0,0.0,0.0,0.0,0.0,0.0,0.0,0.0,0.0,0.0,0.0,0.0,0.0,0.0,0.0,0.0,0.0,0.0,0.0,0.0,0.0,0.0,0.0,0.0,0.0,0.0,0.0,0.0,0.0,0.0,0.0,0.0,0.0,0.0,0.0,0.0,0.0,0.0,0.0,0.0,0.0,0.0,0.0,0.0,-3.2415,0.0,0.0,0.0,0.0,0.0,0.0,0.0,0.0,0.0,0.0,0.0,0.0,0.0,0.0,0.0,0.0,0.0,0.0,0.0,0.0,0.0,0.0,0.0,0.0,0.0,0.0,0.0,0.0,0.0,0.0,0.0,0.0,0.0,0.0,0.0,0.0,0.0,0.0,0.0,0.0,0.0,0.0,0.0,0.0,0.0,0.0,0.0,0.0,0.0,0.0,0.0,0.0,0.0,0.0,0.0,0.0,0.0,0.0,0.0,-4.4998,-4.8244,-4.7897,-4.7935,-4.8561,-4.6188,-4.4032,0.0,0.0,0.0,0.0,0.0,0.0,0.0,0.0,0.0,0.0,0.0,0.0,0.0,0.0,0.0,0.0,0.0,0.0,0.0,0.0,0.0,0.0,0.0,0.0,0.0,0.0,0.0,0.0,0.0,0.0,0.0,0.0,0.0,0.0,0.0,0.0,0.0,0.0,0.0,0.0,0.0,0.0,0.0,0.0,0.0,0.0,0.0,0.0,0.0,0.0,0.0,0.0,0.0,0.0,0.0,0.0,0.0,0.0,0.0,0.0,0.0,0.0,0.0,0.0,0.0,0.0,0.0,0.0,0.0,0.0,0.0,0.0,0.0,0.0,0.0,0.0,0.0,0.0,0.0,0.0,0.0,0.0,0.0,0.0,0.0,0.0,0.0,0.0,0.0,0.0,0.0,0.0,0.0,0.0,0.0,0.0,0.0,0.0,0.0,0.0,0.0,0.0,0.0,0.0,0.0,0.0,0.0,-4.2543,-4.5005,-4.8511,-4.7737,-4.7531,-4.8217,-4.5955,-4.3416,-4.0797,0.0,0.0,0.0,0.0,0.0,0.0,0.0,0.0,0.0,0.0,0.0,0.0,0.0,0.0,0.0,0.0,0.0,0.0,0.0,0.0,0.0,0.0,0.0,0.0,0.0,0.0,0.0,0.0,0.0,0.0,0.0,0.0,0.0,0.0,0.0,0.0,0.0,0.0,-2.8975,-3.0689,0.0,0.0,0.0,0.0,0.0,0.0,0.0,0.0,-3.2318,0.0,0.0,0.0,0.0,0.0,0.0,0.0,0.0,0.0,0.0,0.0,0.0,0.0,0.0,0.0,0.0,0.0,0.0,0.0,0.0,0.0,0.0,0.0,0.0,0.0,0.0,0.0,0.0,0.0,0.0,0.0,0.0,0.0,0.0,0.0,0.0,0.0,0.0,0.0,0.0,0.0,0.0,0.0,0.0,0.0,0.0,0.0,0.0,0.0,0.0,0.0,0.0,0.0,0.0,0.0,0.0,-4.1799,-4.2096,-4.3965,-4.7438,-4.6027,-4.5614,-4.6278,-4.4089,-4.1876,-3.9897,0.0,0.0,0.0,0.0,0.0,0.0,0.0,0.0,0.0,0.0,0.0,0.0,0.0,0.0,0.0,0.0,0.0,0.0,0.0,0.0,0.0,0.0,0.0,0.0,0.0,0.0,0.0,0.0,0.0,0.0,0.0,0.0,0.0,0.0,0.0,0.0,0.0,0.0,0.0,-3.2585,-3.3246,0.0,0.0,0.0,0.0,0.0,0.0,0.0,0.0,-3.2856,0.0,0.0,0.0,0.0,0.0,0.0,0.0,0.0,0.0,0.0,0.0,0.0,0.0,0.0,0.0,0.0,0.0,0.0,0.0,0.0,0.0,0.0,0.0,0.0,0.0,0.0,0.0,0.0,0.0,0.0,0.0,0.0,0.0,0.0,0.0,0.0,0.0,0.0,0.0,0.0,0.0,0.0,0.0,0.0,0.0,0.0,0.0,0.0,0.0,0.0,0.0,0.0,0.0,0.0,0.0,-4.1927,-4.2397,-4.414,-4.7257,-4.5714,-4.4967,-4.5284,-4.2735,-4.0431,0.0,0.0,0.0,0.0,0.0,0.0,0.0,0.0,0.0,0.0,0.0,0.0,0.0,0.0,0.0,0.0,0.0,0.0,0.0,0.0,0.0,0.0,0.0,0.0,0.0,0.0,0.0,0.0,0.0,0.0,0.0,0.0,0.0,0.0,0.0,0.0,0.0,0.0,0.0,0.0,-3.3604,-3.4262,-3.4951,0.0,0.0,0.0,0.0,0.0,0.0,-3.3873,-3.3365,0.0,0.0,0.0,0.0,0.0,0.0,0.0,0.0,0.0,0.0,0.0,0.0,0.0,0.0,0.0,0.0,0.0,0.0,0.0,0.0,0.0,0.0,0.0,0.0,0.0,0.0,0.0,0.0,0.0,0.0,0.0,0.0,0.0,0.0,0.0,0.0,0.0,0.0,0.0,0.0,0.0,0.0,0.0,0.0,0.0,0.0,0.0,0.0,0.0,0.0,0.0,0.0,0.0,0.0,0.0,-4.1643,-4.255,-4.4196,-4.6565,-4.5269,-4.451,-4.4441,-4.1987,-3.9679,0.0,0.0,0.0,0.0,0.0,0.0,0.0,0.0,0.0,0.0,0.0,0.0,0.0,0.0,0.0,0.0,0.0,0.0,0.0,0.0,0.0,0.0,0.0,0.0,0.0,0.0,0.0,0.0,0.0,0.0,0.0,0.0,0.0,0.0,0.0,0.0,0.0,0.0,0.0,0.0,0.0,-3.5102,-3.6118,-3.5402,0.0,0.0,0.0,0.0,-3.5013,-3.4741,0.0,0.0,0.0,0.0,0.0,0.0,0.0,0.0,0.0,0.0,0.0,0.0,0.0,0.0,0.0,0.0,0.0,0.0,0.0,0.0,0.0,0.0,0.0,0.0,0.0,0.0,0.0,0.0,0.0,0.0,0.0,0.0,0.0,0.0,0.0,0.0,0.0,0.0,0.0,0.0,0.0,0.0,0.0,0.0,0.0,0.0,0.0,0.0,0.0,0.0,0.0,0.0,0.0,0.0,0.0,0.0,-3.987,-4.1821,-4.3134,-4.3767,-4.3576,-4.3488,-4.3457,-4.2059,-4.0337,0.0,0.0,0.0,0.0,0.0,0.0,0.0,0.0,0.0,0.0,0.0,0.0,0.0,0.0,0.0,0.0,0.0,0.0,0.0,0.0,0.0,0.0,0.0,0.0,0.0,0.0,0.0,0.0,0.0,0.0,0.0,0.0,0.0,0.0,0.0,0.0,0.0,0.0,0.0,0.0,0.0,-3.5429,-3.5609,-3.5489,-3.513,0.0,0.0,-3.6357,-3.6985,-3.7494,0.0,0.0,0.0,0.0,0.0,0.0,0.0,0.0,0.0,0.0,0.0,0.0,0.0,0.0,0.0,0.0,0.0,0.0,0.0,0.0,0.0,0.0,0.0,0.0,0.0,0.0,0.0,0.0,0.0,0.0,0.0,0.0,0.0,0.0,0.0,0.0,0.0,0.0,0.0,0.0,0.0,0.0,0.0,0.0,0.0,0.0,0.0,0.0,0.0,0.0,0.0,0.0,0.0,0.0,0.0,-3.8804,-4.0296,-4.1813,-4.3107,-4.4098,-4.3606,-4.329,-4.329,-4.0965,-3.9217,0.0,0.0,0.0,0.0,0.0,0.0,0.0,0.0,0.0,0.0,0.0,0.0,0.0,0.0,0.0,0.0,0.0,0.0,0.0,0.0,0.0,0.0,0.0,0.0,0.0,0.0,0.0,0.0,0.0,0.0,0.0,0.0,0.0,0.0,0.0,0.0,0.0,0.0,0.0,0.0,0.0,0.0,-3.6477,-3.6297,0.0,0.0,0.0,-3.6985,-3.6896,0.0,0.0,0.0,0.0,0.0,0.0,0.0,0.0,0.0,0.0,0.0,0.0,0.0,0.0,0.0,0.0,0.0,0.0,0.0,0.0,0.0,0.0,0.0,0.0,0.0,0.0,0.0,0.0,0.0,0.0,0.0,0.0,0.0,0.0,0.0,0.0,0.0,0.0,0.0,0.0,0.0,0.0,0.0,0.0,0.0,0.0,0.0,0.0,0.0,0.0,0.0,0.0,0.0,0.0,0.0,0.0,0.0,-4.0156,-4.2045,-4.3449,-4.4396,-4.3693,-4.329,-4.326,-4.0786,0.0,0.0,0.0,0.0,0.0,0.0,0.0,0.0,0.0,0.0,0.0,0.0,0.0,0.0,0.0,0.0,0.0,0.0,0.0,0.0,0.0,0.0,0.0,0.0,0.0,0.0,0.0,-2.5525,0.0,0.0,0.0,0.0,0.0,0.0,0.0,0.0,0.0,0.0,0.0,0.0,0.0,0.0,-3.5908,-3.7015,-3.7075,-3.7135,0.0,0.0,-3.7554,-3.7285,-3.8153,-3.8003,0.0,0.0,0.0,0.0,0.0,0.0,0.0,0.0,0.0,0.0,0.0,0.0,0.0,0.0,0.0,0.0,0.0,0.0,0.0,0.0,0.0,0.0,0.0,0.0,0.0,0.0,0.0,0.0,0.0,0.0,0.0,0.0,0.0,0.0,0.0,0.0,0.0,0.0,0.0,0.0,0.0,0.0,0.0,0.0,0.0,0.0,0.0,0.0,0.0,0.0,0.0,0.0,0.0,0.0,0.0,-3.8278,-4.2435,-4.4213,-4.3448,-4.3329,-4.329,-4.329,-4.2521,-4.0643,0.0,0.0,0.0,0.0,0.0,0.0,0.0,0.0,0.0,0.0,0.0,0.0,0.0,0.0,0.0,0.0,0.0,0.0,0.0,0.0,0.0,0.0,0.0,0.0,0.0,0.0,0.0,0.0,0.0,0.0,0.0,0.0,0.0,0.0,0.0,0.0,0.0,0.0,0.0,0.0,0.0,-3.5759,-3.6447,-3.7524,-3.8272,0.0,0.0,-3.8512,-3.911,-3.9798,-3.9379,-3.6776,0.0,0.0,0.0,0.0,0.0,0.0,0.0,0.0,0.0,0.0,0.0,0.0,0.0,0.0,0.0,0.0,0.0,0.0,0.0,0.0,0.0,0.0,0.0,0.0,0.0,0.0,0.0,0.0,0.0,0.0,0.0,0.0,0.0,0.0,0.0,0.0,0.0,0.0,0.0,0.0,0.0,0.0,0.0,0.0,0.0,0.0,0.0,0.0,0.0,0.0,0.0,0.0,0.0,-3.8505,-3.8905,-4.2149,-4.3723,-4.3329,-4.329,-4.329,-4.329,-4.2312,-4.0507,0.0,0.0,0.0,0.0,0.0,0.0,0.0,0.0,0.0,0.0,0.0,0.0,0.0,0.0,0.0,0.0,0.0,0.0,0.0,0.0,0.0,0.0,0.0,0.0,0.0,0.0,0.0,0.0,-3.13,-3.1779,-3.121,0.0,0.0,0.0,0.0,0.0,0.0,0.0,0.0,0.0,0.0,-3.6477,-3.7524,-3.8093,0.0,0.0,-3.902,-3.911,-3.9379,-3.9619,-3.905,-3.6836,-3.5789,0.0,0.0,0.0,0.0,0.0,0.0,0.0,0.0,0.0,0.0,0.0,0.0,0.0,0.0,0.0,0.0,0.0,0.0,0.0,0.0,0.0,0.0,0.0,0.0,0.0,0.0,0.0,0.0,0.0,0.0,0.0,0.0,0.0,0.0,0.0,0.0,0.0,0.0,0.0,0.0,0.0,0.0,0.0,0.0,0.0,0.0,0.0,0.0,0.0,0.0,0.0,0.0,-3.7897,-3.8529,-4.168,-4.329,-4.329,-4.329,-4.329,-4.326,-4.2432,-4.0928,0.0,0.0,0.0,0.0,0.0,0.0,0.0,0.0,0.0,0.0,0.0,0.0,0.0,0.0,0.0,0.0,0.0,0.0,0.0,0.0,0.0,0.0,0.0,0.0,0.0,0.0,0.0,0.0,-3.2407,-3.2467,-3.1331,0.0,0.0,0.0,0.0,0.0,0.0,0.0,0.0,0.0,0.0,-3.7165,-3.8242,-3.8571,-3.8871,-3.9313,-3.9403,-3.9313,-3.914,-3.929,-3.8751,-3.6806,0.0,0.0,0.0,0.0,0.0,0.0,0.0,0.0,0.0,0.0,0.0,0.0,0.0,0.0,0.0,0.0,0.0,0.0,0.0,0.0,0.0,0.0,0.0,0.0,0.0,0.0,0.0,0.0,0.0,0.0,-3.5735,0.0,0.0,0.0,0.0,0.0,0.0,0.0,0.0,0.0,0.0,0.0,0.0,0.0,0.0,0.0,0.0,0.0,0.0,0.0,0.0,0.0,0.0,-3.7684,-3.6411,-4.0956,-4.329,-4.329,-4.329,-4.329,-4.329,-4.326,-4.2342,-4.0337,0.0,0.0,0.0,0.0,0.0,0.0,0.0,0.0,0.0,0.0,0.0,0.0,0.0,0.0,0.0,0.0,0.0,0.0,0.0,0.0,0.0,0.0,0.0,0.0,0.0,0.0,-2.9804,-3.0821,-3.1301,0.0,0.0,0.0,0.0,0.0,0.0,0.0,0.0,0.0,0.0,-3.6596,-3.7644,-3.8302,-3.896,-3.9343,-3.9409,-3.9403,-3.917,-3.8542,-3.896,-3.8751,0.0,0.0,0.0,0.0,0.0,0.0,0.0,0.0,0.0,0.0,0.0,0.0,0.0,0.0,0.0,0.0,0.0,0.0,0.0,0.0,0.0,0.0,0.0,0.0,0.0,0.0,0.0,-4.0629,-3.9749,0.0,0.0,0.0,0.0,0.0,0.0,0.0,0.0,0.0,0.0,0.0,-4.5263,-4.5297,0.0,0.0,0.0,0.0,0.0,0.0,0.0,0.0,0.0,0.0,0.0,0.0,-3.8277,-3.8179,-4.1465,-4.329,-4.329,-4.329,-4.329,-4.329,-4.329,-4.2363,-4.0457,0.0,0.0,0.0,0.0,0.0,0.0,0.0,0.0,0.0,0.0,0.0,0.0,0.0,0.0,0.0,0.0,0.0,0.0,0.0,0.0,0.0,0.0,0.0,0.0,0.0,-3.0612,0.0,0.0,0.0,0.0,0.0,0.0,0.0,0.0,0.0,0.0,0.0,-3.5549,-3.6626,-3.7524,-3.8302,-3.899,-3.926,-3.9403,0.0,0.0,0.0,0.0,0.0,0.0,0.0,0.0,0.0,0.0,0.0,0.0,0.0,0.0,-3.7464,-3.5519,-3.4442,-3.3754,-3.3544,0.0,0.0,0.0,0.0,0.0,0.0,0.0,0.0,0.0,0.0,0.0,0.0,0.0,0.0,-4.3301,0.0,-4.2658,0.0,0.0,0.0,0.0,0.0,0.0,0.0,0.0,-4.6109,-4.7428,-4.8308,-4.8308,-4.7936,0.0,-4.5784,-4.3285,0.0,0.0,0.0,0.0,0.0,0.0,0.0,0.0,-3.8592,-3.8829,-4.1745,-4.329,-4.329,-4.329,-4.329,-4.329,-4.329,-4.2692,-4.1474,-3.911,-3.7469,0.0,0.0,0.0,0.0,0.0,0.0,0.0,0.0,0.0,0.0,0.0,0.0,0.0,0.0,0.0,0.0,0.0,0.0,0.0,0.0,0.0,0.0,0.0,-3.1451,0.0,0.0,0.0,0.0,0.0,0.0,0.0,0.0,0.0,-3.3215,-3.531,-3.7045,-3.7674,-3.8332,-3.8901,-3.9349,0.0,0.0,0.0,0.0,0.0,0.0,0.0,-3.8182,-3.8362,-3.7554,-3.6866,-3.6806,-3.7524,-3.7943,-3.7494,0.0,0.0,-3.7161,-3.6118,-3.5489,-3.5489,-3.513,-3.4711,-3.4262,-3.4203,-3.4083,0.0,0.0,0.0,0.0,0.0,0.0,0.0,0.0,-4.6887,-4.6075,0.0,-4.5534,0.0,0.0,0.0,0.0,0.0,-4.5669,0.0,0.0,-5.1489,-5.2638,-5.1286,-5.1251,-5.0879,-5.0168,-4.9364,-4.7882,-4.5761,-4.236,0.0,0.0,0.0,0.0,0.0,0.0,-3.8769,-3.8524,-4.1656,-4.329,-4.329,-4.329,-4.329,-4.329,-4.329,-4.329,-4.323,-4.1474,-4.0427,-4.0307,-3.6148,0.0,0.0,0.0,0.0,0.0,0.0,0.0,0.0,0.0,0.0,0.0,0.0,0.0,0.0,0.0,0.0,0.0,0.0,0.0,0.0,-3.2138,0.0,0.0,0.0,0.0,0.0,0.0,0.0,0.0,0.0,0.0,-3.4713,-3.6297,-3.7704,-3.8332,0.0,0.0,0.0,0.0,-3.9403,-3.9403,-3.9403,-3.92,-3.8542,-3.896,-3.914,-3.8542,0.0,0.0,-3.7704,-3.8542,-3.8955,-3.7734,-3.8571,-3.9403,-3.9313,-3.8272,-3.7464,-3.7434,-3.6507,-3.5699,-3.5639,-3.5699,-3.5609,-4.8545,0.0,0.0,0.0,0.0,-4.638,-4.7597,-4.9898,-4.939,-4.8917,-4.8511,-4.8714,0.0,0.0,0.0,0.0,0.0,0.0,-4.7767,-4.9492,-5.0574,-5.1691,-5.2841,-5.2841,-5.2739,-5.247,-5.0801,-5.0023,-4.9953,-4.5965,-4.2619,-4.0104,0.0,0.0,0.0,0.0,-3.9784,-4.0198,-4.2234,-4.329,-4.329,-4.329,-4.329,-4.329,-4.329,-4.329,-4.329,-4.2751,-4.1795,-4.0457,-3.914,0.0,0.0,0.0,0.0,0.0,0.0,0.0,0.0,0.0,0.0,0.0,0.0,0.0,0.0,0.0,0.0,0.0,0.0,0.0,-3.1451,-3.3394,-3.3754,0.0,0.0,0.0,0.0,0.0,0.0,0.0,0.0,0.0,-3.6686,-3.7883,-3.8901,0.0,0.0,-3.9403,-3.9403,-3.9403,-3.9403,-3.9403,0.0,0.0,0.0,-3.8871,-3.8781,-3.908,-3.929,-3.9254,-3.8931,-3.9134,-3.9254,-3.8901,-3.914,-3.9403,-3.9373,-3.914,-3.8805,-3.8811,-3.8542,-3.8302,-3.8272,-3.7913,-3.7404,-5.1894,-4.9763,-4.8308,-4.8274,-4.9123,-4.8748,-4.9932,-5.2097,-5.1657,-5.1285,-5.098,-5.1319,-5.0033,-4.7631,-4.7056,0.0,0.0,0.0,-4.9289,-5.142,-5.1454,-5.1932,-5.2871,-5.3314,-5.328,-5.2835,-5.1594,-5.1303,-5.1852,-4.8175,-4.5211,-4.296,0.0,0.0,-3.8259,-3.9553,-4.0576,-4.1237,-4.2578,-4.329,-4.329,-4.329,-4.329,-4.329,-4.329,-4.329,-4.329,-4.329,-4.2751,-4.1586,-4.0816,-3.902,0.0,0.0,0.0,0.0,0.0,0.0,0.0,0.0,0.0,0.0,0.0,-3.0013,0.0,0.0,0.0,0.0,-3.2557,-3.3066,-3.3455,-3.4711,0.0,0.0,0.0,0.0,0.0,0.0,0.0,-3.6596,-3.7913,-3.8661,-3.8272,-3.8865,-3.9403,-3.9403,-3.9403,-3.9403,-3.9403,0.0,-3.9403,-3.9403,-3.9403,-3.9403,-3.9373,-3.908,-3.8931,-3.9349,-3.9403,-3.9403,-3.9403,-3.9403,-3.9403,-3.9403,-3.9403,-3.9403,-3.9403,-3.9403,-3.9403,-3.9373,-3.92,-3.902,-3.899,-3.8482,-3.7853,-5.4702,-5.4296,-5.0879,-5.0202,-5.1386,-5.1354,-5.2198,-5.3484,-5.3484,-5.3078,-5.2469,-5.3179,-5.1961,-4.9289,-4.7936,0.0,-5.0371,-5.0371,-5.1488,-5.3518,-5.3518,-5.3007,-5.2098,-5.3041,-5.2973,-5.2029,-5.1921,-5.1885,-5.1786,-4.9112,-4.7712,-4.7338,-4.318,-4.0791,-4.0368,-4.0694,-4.1267,-4.1987,-4.2848,-4.329,-4.329,-4.329,-4.329,-4.329,-4.329,-4.329,-4.329,-4.329,-4.329,-4.323,-4.1624,-4.0307,-3.9439,0.0,0.0,0.0,0.0,0.0,0.0,0.0,0.0,0.0,0.0,0.0,0.0,0.0,0.0,0.0,-3.5878,0.0,-3.6746,-3.6207,0.0,0.0,0.0,-3.5998,-3.6716,-3.7883,-3.8631,-3.8631,0.0,0.0,-3.9463,0.0,-3.9403,-3.9403,-3.9403,-3.9403,-3.9403,-3.9403,-3.9403,-3.9403,-3.9403,-3.9403,-3.9403,-3.9343,-3.9343,-3.9373,-3.9403,-3.9403,-3.9403,-3.9403,-3.9403,-3.9403,-3.9403,-3.9403,-3.9403,-3.9403,-3.9403,-3.9403,-3.896,-3.8512,-3.8542,-3.8153,-3.7704,-5.5615,-5.4532,-5.3619,-5.3145,-5.2942,-5.2976,-5.3179,-5.3518,-5.3518,-5.3382,-5.3247,-5.3416,-5.3112,-5.2401,-5.2063,-5.2198,-5.2706,-5.2706,-5.2976,-5.3484,-5.3518,-5.3348,-5.3144,-5.3382,-5.3382,-5.3076,-5.2312,-5.1885,-5.1714,-4.8685,-4.7193,-4.7116,-4.4408,-4.3038,-4.2988,-4.2078,-4.2093,-4.2968,-4.318,-4.329,-4.329,-4.329,-4.329,-4.329,-4.329,-4.329,-4.329,-4.329,-4.329,-4.329,-4.2841,-4.1855,-4.0217,-3.7225,0.0,0.0,0.0,0.0,0.0,0.0,0.0,0.0,0.0,-3.1839,-2.9056,0.0,-3.2886,0.0,-3.7494,-3.926,-3.8781,-3.902,0.0,0.0,-3.7793,-3.8153,-3.932,-4.0187,-4.0666,-4.0666,-4.0816,-4.0726,-4.0247,-3.9709,-3.9403,-3.9403,-3.9403,-3.9403,-3.9403,-3.9403,-3.9403,-3.9403,-3.9403,-3.9403,-3.9403,-3.9403,-3.9403,-3.9403,-3.9403,-3.9403,-3.9403,-3.9403,-3.9403,-3.9403,-3.9403,-3.9403,-3.9403,-3.9403,-3.9403,-3.9373,-3.929,-3.917,-3.917,-3.8985,-3.8781,-5.5852,-5.504,-5.4397,-5.3856,-5.3518,-5.3518,-5.3518,-5.3518,-5.3518,-5.3518,-5.3518,-5.3518,-5.3518,-5.3518,-5.3518,-5.3518,-5.3518,-5.3518,-5.3518,-5.3518,-5.3518,-5.3246,-5.2835,-5.328,-5.328,-5.28,-5.2172,-5.1885,-5.1816,-5.001,-4.917,-4.9224,-4.6939,-4.5832,-4.5847,-4.3644,-4.2652,-4.2932,-4.3042,-4.3187,-4.329,-4.329,-4.3021,-4.2491,-4.2462,-4.2192,-4.1586,-4.1556,-4.1556,-4.1556,-4.1294,-4.0748,-3.9948,-3.7195,-3.507,0.0,0.0,0.0,0.0,0.0,0.0,0.0,0.0,0.0,0.0,0.0,-3.4262,-3.531,-3.8691,-4.0307,-3.908,-3.9828,-4.0217,-3.9805,-4.0014,-4.0576,-4.1594,-4.2013,-4.2132,-4.1901,-4.1841,-4.1482,-4.0516,-4.0098,-3.9738,-3.9469,-3.9403,-3.9403,-3.9403,-3.9403,-3.9403,-3.9403,-3.9403,-3.9403,-3.9403,-3.9403,-3.9403,-3.9403,-3.9403,-3.9403,-3.9403,-3.9403,-3.9403,-3.9403,-3.9403,-3.9403,-3.9403,-3.9403,-3.9403,-3.9403,-3.9403,-3.9403,-3.9403,-3.9403,-3.923,-5.5783,-5.5581,-5.4228,-5.3585,-5.3518,-5.3518,-5.3518,-5.3518,-5.3518,-5.3518,-5.3518,-5.3518,-5.3518,-5.3518,-5.3518,-5.3518,-5.3518,-5.3518,-5.3518,-5.3518,-5.3518,-5.3007,-5.217,-5.3076,-5.3008,-5.2134,-5.2134,-5.2029,-5.1885,-5.1678,-5.1543,-5.1306,-4.907,-4.7892,-4.7737,-4.4741,-4.3003,-4.2634,-4.2758,-4.296,-4.318,-4.308,-4.2551,-4.1444,-4.1332,-4.0726,-3.9619,-3.9433,-3.9403,-3.9373,-3.8841,-3.8871,-3.9559,-3.6686,-3.528,0.0,-3.3543,0.0,0.0,0.0,0.0,0.0,0.0,0.0,0.0,-3.5908,-3.6267,-3.6926,-3.9649,-4.0726,-3.917,-4.0098,-4.0995,-4.1564,-4.2132,-4.2731,-4.323,-4.329,-4.312,-4.259,-4.244,-4.1931,-4.0726,-4.0457,-4.0157,-3.9559,-3.9403,-3.9403,-3.9403,-3.9403,-3.9403,-3.9403,-3.9403,-3.9403,-3.9403,-3.9403,-3.9403,-3.9403,-3.9403,-3.9403,-3.9403,-3.9403,-3.9403,-3.9403,-3.9403,-3.9403,-3.9403,-3.9403,-3.9403,-3.9403,-3.9403,-3.9343,-3.9254,-3.9313,-3.917,-5.6258,-5.5649,-5.4769,-5.4025,-5.3518,-5.3518,-5.3518,-5.3518,-5.3518,-5.3518,-5.3518,-5.3518,-5.3518,-5.3518,-5.3518,-5.3518,-5.3518,-5.3518,-5.3518,-5.3518,-5.3518,-5.3382,-5.3213,-5.3382,-5.3416,-5.3179,-5.3179,-5.2765,-5.1852,-5.0501,-4.9512,-4.8785,-4.6491,-4.5216,-4.4944,0.0,0.0,0.0,-4.2707,-4.2518,-4.256,-4.2013,-4.1654,-4.1422,-4.0876,0.0,-4.0217,-3.9672,-3.9403,-3.9373,-3.929,0.0,0.0,0.0,0.0,0.0,0.0,0.0,0.0,0.0,0.0,0.0,-3.7075,-3.6656,-3.7045,-3.8063,-3.8931,-3.9619,-4.0726,-4.1683,-4.2342,-4.2572,-4.2781,-4.2901,-4.306,-4.317,-4.329,-4.329,-4.323,-4.315,-4.2701,-4.2111,-4.1362,-4.0756,-4.0157,-3.9553,-3.9403,-3.9403,-3.9403,-3.9403,-3.9403,-3.9403,-3.9403,-3.9403,-3.9403,-3.9403,-3.9403,-3.9403,-3.9403,-3.9403,-3.9403,-3.9403,-3.9403,-3.9373,-3.9403,-3.9373,-3.9373,-3.9403,-3.9313,-3.9373,-3.9373,-3.926,-3.8721,-3.902,-3.9014,-5.6055,0.0,-5.4532,-5.3856,0.0,-5.3518,-5.3518,-5.3518,-5.3518,-5.3518,-5.3518,-5.3518,-5.3518,-5.3518,-5.3518,-5.3518,-5.3518,-5.3518,-5.3518,-5.3518,-5.3518,-5.3518,-5.3518,-5.3518,-5.3518,-5.3518,-5.3518,-5.3213,-5.2629,-5.1444,-5.0603,-5.0138,-4.7787,-4.6561,-4.6349,-4.4827,-4.3685,-4.3094,-4.2801,-4.2754,-4.2821,-4.2521,-4.2043,-4.1422,0.0,0.0,0.0,0.0,0.0,0.0,0.0,0.0,0.0,0.0,0.0,-3.9313,-3.8482,-3.8212,-3.8841,-3.8936,-3.9469,-4.0696,-4.0516,-3.9881,-3.899,-4.0397,-4.1466,-4.1765,-4.2162,-4.2611,-4.32,-4.329,-4.329,-4.329,-4.329,-4.329,-4.329,-4.329,-4.329,-4.329,-4.306,-4.2581,-4.1953,-4.1294,-4.0636,-4.0008,-3.9619,-3.9403,-3.9403,-3.9403,-3.9403,-3.9403,-3.9403,-3.9403,-3.9403,-3.9403,-3.9403,-3.9403,-3.9403,-3.9403,-3.9403,-3.9403,-3.9403,-3.9373,-3.9134,-3.8931,-3.8871,-3.8661,-3.8387,-3.8387,-3.8387,-3.8212,-3.7644,-3.8212,-3.8631,-5.5884,-5.5784,-5.4296,-5.3687,-5.3687,-5.3551,-5.3518,-5.3518,0.0,0.0,0.0,-5.3518,-5.3518,-5.3518,-5.3518,-5.3518,-5.3518,-5.3518,-5.3518,-5.3518,-5.3518,-5.3518,-5.3518,-5.3518,-5.3518,-5.3518,-5.3518,-5.3382,-5.3213,-5.2573,-5.2135,-5.1765,-4.9719,-4.8418,-4.7881,-4.5693,-4.4037,-4.3023,-4.2833,-4.2891,-4.315,-4.3021,-4.2491,-4.1452,-4.1265,-4.0696,-3.9649,-3.9499,-3.9403,-3.9373,-3.8871,-3.8931,-3.9679,-3.923,-3.926,-4.0001,-4.0091,-4.0576,-4.1654,-4.1743,-4.2192,-4.323,-4.329,-4.2602,-4.1025,-4.2363,-4.329,-4.329,-4.329,-4.329,-4.329,-4.329,-4.329,-4.329,-4.329,-4.329,-4.329,-4.329,-4.329,-4.329,-4.318,-4.291,-4.2261,-4.1602,-4.0965,-4.0307,-3.9709,-3.9403,-3.9403,-3.9403,-3.9403,-3.9403,-3.9403,-3.9403,-3.9403,-3.9403,-3.9403,-3.9403,-3.9403,-3.9403,-3.9403,-3.9403,-3.9403,-3.9403,-3.8871,-3.8482,-3.8362,-3.7943,-3.7434,-3.7404,-3.7404,-3.7255,-3.6896,-3.7375,-3.7764,-5.663,-5.6528,-5.504,-5.4431,-5.4397,-5.3754,-5.3518,-5.3518,-5.3518,-5.3518,-5.3518,-5.3518,-5.3518,-5.3518,-5.3518,-5.3518,-5.3518,-5.3518,-5.3518,0.0,-5.3518,-5.3518,-5.3518,-5.3518,-5.3518,-5.3518,-5.3518,-5.3008,-5.2208,-5.2037,-5.154,-5.0574,-4.9089,-4.7403,-4.5409,-4.4112,-4.3427,-4.3219,-4.2689,-4.2479,-4.253,-4.1991,-4.1564,-4.1354,-4.0876,-4.0457,-4.0277,-3.9768,-3.9403,-3.9373,-3.932,-3.9828,-4.0995,-4.0995,-4.1504,-4.2632,-4.2751,-4.2841,-4.2991,-4.3021,-4.311,-4.326,-4.329,-4.317,-4.2931,-4.311,-4.329,-4.329,-4.329,-4.329,-4.329,-4.329,-4.329,-4.329,-4.329,-4.329,-4.329,-4.329,-4.329,-4.323,-4.2821,-4.2282,-4.1692,-4.0995,-4.0367,-3.9768,-3.9559,-3.9403,-3.9403,-3.9403,-3.9403,-3.9403,-3.9403,-3.9403,-3.9403,-3.9403,-3.9403,-3.9403,-3.9403,-3.9403,-3.9403,-3.9403,-3.9403,-3.9403,-3.8811,-3.8392,-3.8332,-3.7853,-3.7375,-3.7255,-3.7255,-3.7225,-3.7045,-3.6985,-3.6596,-5.6562,-5.6122,-5.504,-5.4363,-5.3991,-5.3619,-5.3518,-5.3518,-5.3518,-5.3518,-5.3518,-5.3518,-5.3518,-5.3518,-5.3518,-5.3518,-5.3518,-5.3518,-5.3518,-5.3518,-5.3518,-5.3518,-5.3518,-5.3518,-5.3518,-5.3518,-5.3518,-5.3213,-5.2767,-5.2366,-5.1856,-5.1369,-5.0378,-4.9073,-4.7573,-4.6653,-4.5759,-4.4725,-4.3494,-4.291,-4.288,-4.2581,-4.2432,-4.2432,-4.2094,-4.1983,-4.1944,-4.1675,-4.1496,-4.1496,-4.1526,-4.1833,-4.2402,-4.2432,-4.2701,-4.326,-4.329,-4.329,-4.329,-4.329,-4.329,-4.329,-4.329,-4.329,-4.329,-4.329,-4.329,-4.329,-4.329,-4.329,-4.329,-4.329,-4.329,-4.329,-4.329,-4.329,-4.329,-4.329,-4.317,-4.2851,-4.259,-4.2171,-4.1512,-4.0816,-4.0337,-3.9978,-3.9709,-3.9403,-3.9403,-3.9403,-3.9403,-3.9403,-3.9403,-3.9403,-3.9403,-3.9403,-3.9403,-3.9403,-3.9403,-3.9403,-3.9403,-3.9403,-3.9403,-3.9313,-3.8601,-3.7943,-3.7853,-3.7015,-3.6507,-3.6387,-3.6387,-3.6387,-3.6327,-3.6118,-3.5848,-5.663,-5.5919,-5.5175,-5.4329,-5.3518,-5.3518,-5.3518,-5.3518,-5.3518,-5.3518,-5.3518,-5.3518,-5.3518,-5.3518,-5.3518,-5.3518,-5.3518,-5.3518,-5.3518,-5.3518,-5.3518,-5.3518,-5.3518,-5.3518,-5.3518,-5.3518,-5.3518,-5.3518,-5.3416,-5.2875,-5.2469,-5.2233,-5.1494,-5.0694,-4.9783,-4.8851,-4.7623,-4.6235,-4.4734,-4.3732,-4.3329,-4.329,-4.329,-4.329,-4.329,-4.329,-4.329,-4.329,-4.329,-4.329,-4.329,-4.329,-4.329,-4.329,-4.329,-4.329,-4.329,-4.329,-4.329,-4.329,-4.329,-4.329,-4.329,-4.329,-4.329,-4.329,-4.329,-4.329,-4.329,-4.329,-4.329,-4.329,-4.329,-4.329,-4.329,-4.329,-4.329,-4.329,-4.314,-4.2671,-4.2381,-4.1961,-4.1452,-4.0666,-4.0157,-4.0038,-3.9738,-3.9403,-3.9403,-3.9403,-3.9403,-3.9403,-3.9403,-3.9403,-3.9403,-3.9403,-3.9403,-3.9403,-3.9403,-3.9403,-3.9403,-3.9403,-3.9403,-3.9254,-3.8332,-3.7584,-3.7345,-3.6417,-3.5729,-3.5639,-3.5669,-3.5579,-3.5609,-3.5579,-3.5519,-5.734,-5.663,-5.5817,-5.4803,-5.3551,-5.3518,-5.3518,-5.3518,-5.3518,-5.3518,-5.3518,-5.3518,-5.3518,-5.3518,-5.3518,-5.3518,-5.3518,-5.3518,-5.3518,-5.3518,-5.3518,-5.3518,-5.3518,-5.3518,-5.3518,-5.3518,-5.3518,-5.3518,-5.3518,-5.3416,-5.301,-5.2268,-5.1393,-5.0649,-4.978,-4.8294,-4.7405,-4.7157,-4.6347,-4.5085,-4.3409,-4.329,-4.329,-4.329,-4.329,-4.329,-4.329,-4.329,-4.329,-4.329,-4.329,-4.329,-4.329,-4.329,-4.329,-4.329,-4.329,-4.329,-4.329,-4.329,-4.329,-4.329,-4.329,-4.329,-4.329,-4.329,-4.329,-4.329,-4.329,-4.329,-4.329,-4.329,-4.329,-4.329,-4.329,-4.329,-4.329,-4.329,-4.326,-4.3269,-4.2192,-4.1482,-4.1235,-4.0307,-3.9553,-3.9582,-3.9529,-3.9403,-3.9403,-3.9403,-3.9403,-3.9403,-3.9403,-3.9403,-3.9403,-3.9403,-3.9403,-3.9403,-3.9403,-3.9403,-3.9403,-3.9403,-3.9403,-3.9254,-3.8392,-3.7584,-3.7225,-3.6417,-3.5609,-3.5609,-3.5579,-3.5489,-3.5489,-3.5489,-3.5489,-5.6156,-5.548,-5.5175,-5.4465,-5.3551,-5.3518,-5.3518,-5.3518,-5.3518,-5.3518,-5.3518,-5.3518,-5.3518,-5.3518,-5.3518,-5.3518,-5.3518,-5.3518,-5.3518,-5.3518,-5.3518,-5.3518,-5.3518,-5.3518,-5.3518,-5.3518,-5.3518,-5.3518,-5.3518,-5.3518,-5.3348,-5.301,-5.2572,-5.2268,-5.1899,-5.0425,-4.9353,-4.8768,-4.7624,-4.6349,-4.5159,-4.4472,-4.4167,-4.409,-4.3645,-4.329,-4.329,-4.329,-4.329,-4.329,-4.329,-4.329,-4.329,-4.329,-4.329,-4.329,-4.329,-4.329,-4.329,-4.329,-4.329,-4.329,-4.329,-4.329,-4.329,-4.329,-4.329,-4.329,-4.329,-4.329,-4.329,-4.329,-4.329,-4.329,-4.329,-4.329,-4.329,-4.329,-4.317,-4.2791,-4.1991,-4.1205,-4.0786,-4.0008,-3.9433,-3.9403,-3.9403,-3.9403,-3.9403,-3.9403,-3.9403,-3.9403,-3.9403,-3.9403,-3.9403,-3.9403,-3.9403,-3.9403,-3.9403,-3.9403,-3.9403,-3.9403,-3.9403,-3.9403,-3.8571,-3.8003,-3.8033,-3.7015,-3.6088,-3.5968,-3.5669,-3.5489,-3.5489,-3.5489,-3.5489,-5.5446,-5.4634,-5.4397,-5.3991,-5.3518,-5.3518,-5.3518,-5.3518,-5.3518,-5.3518,-5.3518,-5.3518,-5.3518,-5.3518,-5.3518,-5.3518,-5.3518,-5.3518,-5.3518,-5.3518,-5.3518,-5.3518,-5.3518,-5.3518,-5.3518,-5.3518,-5.3518,-5.3518,-5.3518,-5.3518,-5.3518,-5.3518,-5.3518,-5.3518,-5.3382,-5.2164,-5.1093,-5.0158,-4.8928,-4.7869,-4.6967,-4.6064,-4.5416,-4.5153,-4.4479,-4.3974,-4.3693,-4.3693,-4.3576,-4.329,-4.329,-4.329,-4.329,-4.329,-4.329,-4.329,-4.329,-4.329,-4.329,-4.329,-4.329,-4.329,-4.329,-4.329,-4.329,-4.329,-4.329,-4.329,-4.329,-4.329,-4.329,-4.329,-4.329,-4.329,-4.329,-4.329,-4.329,-4.329,-4.314,-4.2641,-4.1991,-4.1055,-4.0277,-3.9709,-3.9403,-3.9403,-3.9403,-3.9403,-3.9403,-3.9403,-3.9403,-3.9403,-3.9403,-3.9403,-3.9403,-3.9403,-3.9403,-3.9403,-3.9403,-3.9403,-3.9403,-3.9403,-3.9403,-3.9313,-3.8781,-3.8362,-3.8153,-3.7345,-3.6357,-3.6178,-3.5848,-3.5489,-3.5489,-3.5489,-3.5489,-5.5919,-5.4566,-5.3856,-5.3653,-5.3518,-5.3551,-5.3518,-5.3585,-5.3518,-5.3518,-5.3518,-5.3518,-5.3518,-5.3518,-5.3518,-5.3518,-5.3518,-5.3518,-5.3518,-5.3518,-5.3518,-5.3518,-5.3518,-5.3518,-5.3518,-5.3518,-5.3518,-5.3518,-5.3518,-5.3518,-5.3518,-5.3518,-5.3518,-5.3518,-5.3382,-5.2638,-5.1861,-5.1089,-5.0246,-4.9569,-4.8837,-4.7901,-4.7036,-4.6279,-4.6067,-4.5561,-4.4849,-4.4737,-4.4312,-4.3369,-4.3329,-4.329,-4.329,-4.329,-4.329,-4.329,-4.329,-4.329,-4.329,-4.329,-4.329,-4.329,-4.329,-4.329,-4.329,-4.329,-4.329,-4.329,-4.329,-4.329,-4.329,-4.329,-4.329,-4.329,-4.329,-4.329,-4.329,-4.329,-4.329,-4.305,-4.2192,-4.1055,-3.9768,-3.9403,-3.9403,-3.9403,-3.9403,-3.9403,-3.9403,-3.9403,-3.9403,-3.9403,-3.9403,-3.9403,-3.9403,-3.9403,-3.9403,-3.9403,-3.9403,-3.9403,-3.9403,-3.9403,-3.9403,-3.9284,-3.8901,-3.8512,-3.8212,-3.7494,-3.6477,-3.5998,-3.5729,-3.5489,-3.5489,-3.5489,-3.5489,-5.4668,-5.46,-5.4837,-5.4938,-5.4871,-5.4431,-5.4194,-5.416,-5.3687,-5.3518,-5.3518,-5.3518,-5.3518,-5.3518,-5.3518,-5.3518,-5.3518,-5.3518,-5.3518,-5.3518,-5.3518,-5.3518,-5.3518,-5.3518,-5.3518,-5.3518,-5.3518,-5.3518,-5.3518,-5.3518,-5.3518,-5.3518,-5.3518,-5.3518,-5.3382,-5.2706,-5.2164,-5.1826,-5.0744,-4.9965,-4.9695,-4.894,-4.8321,-4.7933,-4.6799,-4.6032,-4.5706,-4.5116,-4.4624,-4.4243,-4.3654,-4.329,-4.329,-4.329,-4.329,-4.329,-4.329,-4.329,-4.329,-4.329,-4.329,-4.329,-4.329,-4.329,-4.329,-4.329,-4.329,-4.329,-4.329,-4.329,-4.329,-4.329,-4.329,-4.329,-4.329,-4.329,-4.329,-4.329,-4.329,-4.317,-4.2521,-4.1504,-4.0397,-4.0038,-3.9888,-3.9463,-3.9403,-3.9403,-3.9403,-3.9403,-3.9433,-3.9403,-3.9403,-3.9403,-3.9403,-3.9403,-3.9403,-3.9403,-3.9403,-3.9403,-3.9403,-3.9403,-3.9403,-3.9403,-3.905,-3.8901,-3.8631,-3.7943,-3.6866,-3.5968,-3.5669,-3.5639,-3.5489,-3.5549,-3.5519,-5.4296,-5.4972,-5.5513,-5.5581,-5.531,-5.4803,-5.4465,-5.4194,-5.3721,-5.3518,-5.3518,-5.3518,-5.3518,-5.3551,-5.3754,-5.3687,-5.3518,-5.3518,-5.3518,-5.3518,-5.3518,-5.3518,-5.3518,-5.3518,-5.3518,-5.3518,-5.3518,-5.3518,-5.3518,-5.3518,-5.3518,-5.3518,-5.3518,-5.3518,-5.3416,-5.2942,-5.2604,-5.2164,-5.1319,-5.071,-5.0439,-4.9999,-4.9593,-4.9268,-4.8332,-4.7521,-4.705,-4.6383,-4.6034,-4.5859,-4.5317,-4.4686,-4.4182,-4.3788,-4.3499,-4.3319,-4.329,-4.329,-4.329,-4.329,-4.329,-4.329,-4.329,-4.329,-4.329,-4.329,-4.329,-4.329,-4.329,-4.329,-4.329,-4.329,-4.329,-4.329,-4.329,-4.329,-4.329,-4.329,-4.317,-4.297,-4.2611,-4.1811,-4.0726,-4.0457,-4.0068,-3.9499,-3.9403,-3.9403,-3.9403,-3.9582,-3.9738,-3.9702,-3.9798,-3.9798,-3.9738,-3.9649,-3.9433,-3.9403,-3.9403,-3.9403,-3.9403,-3.9403,-3.9403,-3.9403,-3.9343,-3.929,-3.8901,-3.8242,-3.7345,-3.6297,-3.5998,-3.5998,-3.5818,-3.5609,-3.5579,-5.5074,-5.5683,-5.5715,-5.548,-5.4938,-5.4769,-5.4228,-5.3721,-5.3551,-5.3518,-5.3518,-5.3518,-5.3518,-5.3619,-5.4059,-5.4126,-5.3585,-5.3518,-5.3518,-5.3518,-5.3518,-5.3518,-5.3518,-5.3518,-5.3518,-5.3518,-5.3518,-5.3518,-5.3518,-5.3518,-5.3518,-5.3518,-5.3518,-5.3518,-5.3484,-5.3382,-5.3078,-5.2503,-5.2198,-5.186,-5.1319,-5.1082,-5.071,-5.0236,-5.0549,-5.0158,-4.8792,-4.8591,-4.8404,-4.8248,-4.8093,-4.7532,-4.5825,-4.4795,-4.3998,-4.3538,-4.3329,-4.329,-4.329,-4.329,-4.329,-4.329,-4.329,-4.329,-4.329,-4.329,-4.329,-4.329,-4.329,-4.329,-4.329,-4.329,-4.329,-4.329,-4.329,-4.329,-4.329,-4.329,-4.312,-4.2641,-4.253,-4.1871,-4.0876,-4.0546,-4.0277,-3.9738,-3.9523,-3.9523,-3.9612,-4.0038,-4.0367,-4.0397,-4.0277,-4.0157,-4.0038,-3.9888,-3.9619,-3.9403,-3.9403,-3.9403,-3.9403,-3.9403,-3.9403,-3.9403,-3.9403,-3.9284,-3.8781,-3.8182,-3.7943,-3.7135,-3.6836,-3.6357,-3.6148,-3.5908,-3.5609,-5.6258,-5.6528,-5.7002,-5.6799,-5.6089,-5.5581,-5.4938,-5.4228,-5.3754,-5.3518,-5.3518,-5.3518,-5.3518,-5.3551,-5.3754,-5.3721,-5.3518,-5.3518,-5.3518,-5.3518,-5.3518,-5.3551,-5.3551,-5.3518,-5.3518,-5.3518,-5.3518,-5.3518,-5.3518,-5.3518,-5.3518,-5.3518,-5.3518,-5.3518,-5.3518,-5.3484,-5.3315,-5.3112,-5.257,-5.2164,-5.1928,-5.1488,-5.1116,-5.0913,-5.1083,-5.1123,-5.1128,-5.009,-4.9447,-4.9398,-4.8239,-4.7157,-4.6181,-4.5166,-4.4573,-4.4274,-4.3654,-4.329,-4.329,-4.3359,-4.3399,-4.3329,-4.3359,-4.329,-4.329,-4.3329,-4.3329,-4.329,-4.329,-4.329,-4.329,-4.329,-4.329,-4.329,-4.329,-4.329,-4.329,-4.329,-4.323,-4.309,-4.303,-4.2641,-4.1893,-4.1414,-4.0816,-4.0217,-4.0098,-4.0098,-4.0187,-4.0666,-4.1055,-4.1055,-4.0786,-4.0576,-4.0546,-4.0277,-3.9888,-3.9582,-3.9463,-3.9403,-3.9403,-3.9403,-3.9403,-3.9403,-3.9403,-3.9194,-3.8661,-3.8362,-3.8182,-3.7674,-3.7075,-3.6716,-3.6477,-3.6178,-3.5818,-5.6968,-5.7205,-5.7408,-5.707,-5.6359,-5.5615,-5.4871,-5.4194,-5.3721,-5.3518,-5.3551,-5.3788,-5.3754,-5.3653,-5.4059,-5.3991,-5.3585,-5.3754,-5.3754,-5.3585,-5.3822,-5.4025,-5.4194,-5.4025,-5.389,-5.3856,-5.3653,-5.3518,-5.3518,-5.3518,-5.3518,-5.3518,-5.3518,-5.3518,-5.3518,-5.3518,-5.3518,-5.3416,-5.301,-5.2739,-5.2672,-5.23,-5.1928,-5.1691,-5.1894,-5.2131,-5.2267,-5.1497,-5.1158,-5.0888,-4.9531,-4.832,-4.7535,-4.6457,-4.562,-4.529,-4.5067,-4.4841,-4.4772,-4.4918,-4.4772,-4.4772,-4.4557,-4.4205,-4.4004,-4.3849,-4.3771,-4.3369,-4.329,-4.329,-4.329,-4.329,-4.329,-4.329,-4.329,-4.329,-4.329,-4.329,-4.329,-4.326,-4.326,-4.3,-4.2462,-4.2111,-4.1512,-4.0935,-4.0756,-4.0756,-4.0905,-4.1392,-4.1632,-4.1713,-4.1564,-4.1354,-4.1175,-4.0726,-4.0157,-3.9858,-3.9619,-3.9463,-3.9403,-3.9403,-3.9403,-3.9403,-3.9403,-3.9373,-3.896,-3.8901,-3.8721,-3.8033,-3.7524,-3.7315,-3.7105,-3.6417,-3.5998,-5.7273,-5.778,-5.7171,-5.6562,-5.5852,-5.5108,-5.4431,-5.3721,-5.3518,-5.3518,-5.3653,-5.4059,-5.4126,-5.3991,-5.4803,-5.4735,-5.3957,-5.4363,-5.4465,-5.4228,-5.4499,-5.4972,-5.5006,-5.4634,-5.4465,-5.4397,-5.3923,-5.3619,-5.3687,-5.3551,-5.3518,-5.3518,-5.3518,-5.3518,-5.3518,-5.3518,-5.3518,-5.3484,-5.345,-5.3416,-5.3416,-5.3416,-5.3078,-5.2435,-5.2976,-5.3044,-5.2605,-5.2842,-5.3214,-5.3146,-5.1422,-5.0212,-4.9612,-4.8188,-4.6945,-4.6599,-4.7045,-4.7121,-4.7257,-4.7039,-4.7075,-4.7007,-4.6394,-4.5949,-4.5161,-4.4911,-4.4624,-4.3897,-4.3771,-4.3654,-4.3693,-4.3566,-4.3488,-4.329,-4.329,-4.329,-4.329,-4.329,-4.329,-4.329,-4.326,-4.315,-4.259,-4.244,-4.2051,-4.1692,-4.1482,-4.1482,-4.1602,-4.1961,-4.2351,-4.2351,-4.2192,-4.1991,-4.1752,-4.1235,-4.0696,-4.0457,-4.0068,-3.9709,-3.9433,-3.9403,-3.9403,-3.9403,-3.9373,-3.9373,-3.9313,-3.9194,-3.9164,-3.8901,-3.8482,-3.8153,-3.7614,-3.6956,-3.6477,-5.7712,-5.7848,-5.7679,-5.7205,-5.6461,-5.575,-5.5006,-5.4296,-5.3754,-5.3619,-5.3619,-5.3687,-5.4093,-5.4363,-5.4735,-5.4905,-5.5074,-5.5277,-5.5716,-5.5953,-5.6089,-5.5277,-5.4465,-5.4499,-5.4634,-5.46,-5.4397,-5.4329,-5.4262,-5.3754,-5.3518,-5.3518,-5.3518,-5.3518,-5.3518,-5.3518,-5.3518,-5.3518,-5.3518,-5.3518,-5.3518,-5.3518,-5.3416,-5.3281,-5.3382,-5.3382,-5.3213,-5.3382,-5.3213,-5.2604,-5.1697,-5.1027,-5.0693,-4.929,-4.8482,-4.8709,-4.8379,-4.8143,-4.818,-4.818,-4.818,-4.8043,-4.7609,-4.6901,-4.6653,-4.6135,-4.5737,-4.5421,-4.5421,-4.5348,-4.5306,-4.4781,-4.4167,-4.3448,-4.3488,-4.3448,-4.329,-4.329,-4.329,-4.329,-4.329,-4.317,-4.303,-4.2671,-4.2381,-4.2201,-4.2141,-4.2141,-4.2261,-4.2521,-4.291,-4.2851,-4.2701,-4.25,-4.2171,-4.1722,-4.1294,-4.1085,-4.0606,-4.0008,-3.9709,-3.9403,-3.9403,-3.9403,-3.9403,-3.9373,-3.9373,-3.9313,-3.9373,-3.9403,-3.896,-3.8392,-3.8123,-3.7614,-3.7255,-5.7881,-5.7848,-5.7543,-5.7205,-5.6731,-5.6021,-5.5446,-5.504,-5.4634,-5.4431,-5.4499,-5.4769,-5.4938,-5.5074,-5.5378,-5.5547,-5.5716,-5.5681,-5.5919,-5.6188,-5.6258,-5.575,-5.5108,-5.5141,-5.5074,-5.5006,-5.4735,-5.46,-5.4431,-5.3856,-5.3551,-5.3518,-5.3518,-5.3518,-5.3518,-5.3518,-5.3518,-5.3518,-5.3518,-5.3518,-5.3518,-5.3518,-5.3518,-5.3518,-5.3518,-5.3518,-5.3518,-5.3518,-5.3281,-5.2773,-5.2131,-5.1691,-5.1591,-5.0458,-4.9959,-5.0393,-5.0149,-5.007,-5.0035,-5.0035,-5.0035,-4.9904,-4.9343,-4.8807,-4.8334,-4.7675,-4.7184,-4.6689,-4.6401,-4.624,-4.6103,-4.5706,-4.5159,-4.4743,-4.4517,-4.4174,-4.3448,-4.3723,-4.3654,-4.3488,-4.329,-4.329,-4.329,-4.297,-4.2821,-4.2761,-4.2761,-4.2761,-4.2821,-4.314,-4.329,-4.311,-4.309,-4.288,-4.2791,-4.2432,-4.1953,-4.1713,-4.1235,-4.0576,-3.9978,-3.9582,-3.9523,-3.9523,-3.9433,-3.9403,-3.9463,-3.9463,-3.9403,-3.9254,-3.8931,-3.8691,-3.8422,-3.8272,-3.7913,-5.7881,-5.7848,-5.7171,-5.69,-5.6833,-5.6156,-5.5886,-5.5818,-5.5649,-5.5546,-5.5683,-5.6325,-5.6089,-5.5852,-5.6292,-5.6461,-5.6021,-5.6156,-5.6089,-5.619,-5.6156,-5.6089,-5.6427,-5.5987,-5.575,-5.5547,-5.4972,-5.4803,-5.46,-5.3991,-5.3551,-5.3518,-5.3518,-5.3518,-5.3518,-5.3518,-5.3518,-5.3518,-5.3518,-5.3518,-5.3518,-5.3518,-5.3518,-5.3518,-5.3518,-5.3518,-5.3518,-5.3518,-5.345,-5.3484,-5.2739,-5.2334,-5.2266,-5.1692,-5.1423,-5.1559,-5.1899,-5.2169,-5.2302,-5.2169,-5.2269,-5.2068,-5.1528,-5.0992,-5.0123,-4.939,-4.8723,-4.8104,-4.7139,-4.7082,-4.6647,-4.6445,-4.6173,-4.5925,-4.5996,-4.5269,-4.4167,-4.4243,-4.4434,-4.3606,-4.3448,-4.329,-4.329,-4.329,-4.326,-4.306,-4.312,-4.312,-4.309,-4.32,-4.329,-4.326,-4.323,-4.326,-4.323,-4.317,-4.2731,-4.2351,-4.1871,-4.1272,-4.0427,-4.0038,-3.9858,-3.9798,-3.9918,-3.9858,-3.9709,-3.9649,-3.9463,-3.9343,-3.9134,-3.8931,-3.8721,-3.8691,-3.8482,-5.7881,-5.7881,-5.7712,-5.7645,-5.7543,-5.69,-5.6562,-5.6528,-5.5952,-5.5852,-5.5784,-5.5953,-5.6258,-5.6562,-5.6799,-5.7002,-5.7273,-5.7273,-5.7442,-5.734,-5.6799,-5.6664,-5.6799,-5.6596,-5.6292,-5.5852,-5.5581,-5.5446,-5.5175,-5.4194,-5.3518,-5.3518,-5.3518,-5.3518,-5.3518,-5.3518,-5.3518,-5.3518,-5.3518,-5.3518,-5.3518,-5.3518,-5.3518,-5.3518,-5.3518,-5.3518,-5.3518,-5.3518,-5.3518,-5.3315,-5.2841,-5.2638,-5.2909,-5.2469,-5.2334,-5.2739,-5.301,-5.3213,-5.3247,-5.3179,-5.3247,-5.3078,-5.2503,-5.1997,-5.1798,-5.1026,-5.0591,-5.0359,-5.0192,-4.9293,-4.8326,-4.7634,-4.7167,-4.6756,-4.641,-4.5881,-4.4818,-4.4662,-4.4624,-4.4282,-4.3693,-4.329,-4.329,-4.329,-4.329,-4.329,-4.329,-4.329,-4.329,-4.329,-4.329,-4.329,-4.329,-4.329,-4.329,-4.329,-4.306,-4.2791,-4.2402,-4.2102,-4.1294,-4.0905,-4.0846,-4.0696,-4.0516,-4.0337,-4.0068,-3.9738,-3.9553,-3.9463,-3.9403,-3.9194,-3.908,-3.908,-3.902,-5.7881,-5.7881,-5.7881,-5.7881,-5.7814,-5.7476,-5.7306,-5.7239,-5.6934,-5.6731,-5.6731,-5.6731,-5.6968,-5.7273,-5.7306,-5.7543,-5.7814,-5.7881,-5.7881,-5.778,-5.7442,-5.7137,-5.6934,-5.707,-5.6934,-5.6258,-5.5818,-5.5681,-5.5344,-5.4397,-5.3518,-5.3518,-5.3518,-5.3518,-5.3518,-5.3518,-5.3518,-5.3518,-5.3518,-5.3518,-5.3518,-5.3518,-5.3518,-5.3518,-5.3518,-5.3518,-5.3518,-5.3518,-5.3518,-5.3382,-5.3112,-5.301,-5.3382,-5.3112,-5.3145,-5.3382,-5.3518,-5.3518,-5.3518,-5.3518,-5.3484,-5.3518,-5.3078,-5.2942,-5.2706,-5.2164,-5.1758,-5.1623,-5.1321,-5.0722,-4.9992,-4.9625,-4.8895,-4.8166,-4.7593,-4.7015,-4.6195,-4.5374,-4.4548,-4.4197,-4.3566,-4.3369,-4.329,-4.329,-4.329,-4.329,-4.329,-4.329,-4.329,-4.329,-4.329,-4.329,-4.329,-4.329,-4.329,-4.326,-4.32,-4.309,-4.294,-4.2761,-4.2432,-4.2192,-4.2043,-4.1654,-4.1145,-4.0696,-4.0397,-4.0038,-3.9709,-3.9493,-3.9403,-3.9403,-3.9343,-3.9254,-3.9224,-5.7881,-5.7881,-5.7881,-5.7881,-5.7881,-5.7848,-5.7848,-5.7848,-5.7881,-5.7712,-5.7848,-5.7881,-5.7712,-5.7848,-5.7814,-5.7848,-5.7881,-5.7881,-5.7881,-5.7848,-5.7814,-5.7509,-5.7273,-5.7476,-5.7509,-5.69,-5.6292,-5.5987,-5.5581,-5.46,-5.4059,-5.3788,-5.3721,-5.3687,-5.3585,-5.3518,-5.3518,-5.3518,-5.3518,-5.3518,-5.3518,-5.3518,-5.3518,-5.3518,-5.3518,-5.3518,-5.3518,-5.3518,-5.3518,-5.3518,-5.3518,-5.3518,-5.3518,-5.3518,-5.3518,-5.3518,-5.3518,-5.3518,-5.3518,-5.3518,-5.3518,-5.3518,-5.3484,-5.3484,-5.3281,-5.2909,-5.2604,-5.2266,-5.1929,-5.1422,-5.1354,-5.0953,-5.0681,-5.0149,-4.9393,-4.8662,-4.7796,-4.6243,-4.4994,-4.3927,-4.3566,-4.3329,-4.329,-4.329,-4.329,-4.329,-4.329,-4.329,-4.329,-4.329,-4.329,-4.329,-4.329,-4.329,-4.329,-4.329,-4.323,-4.32,-4.32,-4.317,-4.311,-4.2901,-4.2611,-4.2132,-4.1654,-4.1294,-4.0876,-4.0487,-4.0127,-3.9672,-3.9403,-3.9403,-3.9403,-3.9403,-3.9403,-5.7881,-5.7881,-5.7881,-5.7881,-5.7881,-5.7881,-5.7881,-5.7881,-5.7881,-5.7881,-5.7881,-5.7881,-5.7881,-5.7881,-5.7881,-5.7881,-5.7881,-5.7881,-5.7881,-5.7881,-5.7881,-5.7712,-5.7712,-5.7746,-5.778,-5.7543,-5.6968,-5.663,-5.6393,-5.5784,-5.4905,-5.4499,-5.4329,-5.4126,-5.3721,-5.3518,-5.3518,-5.3518,-5.3518,-5.3518,-5.3518,-5.3518,-5.3518,-5.3518,-5.3518,-5.3518,-5.3518,-5.3518,-5.3518,-5.3518,-5.3518,-5.3518,-5.3518,-5.3518,-5.3518,-5.3518,-5.3518,-5.3518,-5.3518,-5.3518,-5.3518,-5.3518,-5.3518,-5.3518,-5.3484,-5.3382,-5.3179,-5.3044,-5.2604,-5.2131,-5.2097,-5.1758,-5.1252,-5.082,-5.0226,-4.9519,-4.901,-4.76,-4.5935,-4.4818,-4.4061,-4.3379,-4.3469,-4.3469,-4.3409,-4.3379,-4.329,-4.329,-4.329,-4.329,-4.329,-4.329,-4.329,-4.329,-4.329,-4.329,-4.326,-4.326,-4.326,-4.326,-4.323,-4.326,-4.2991,-4.2611,-4.2342,-4.2141,-4.1624,-4.1055,-4.0546,-4.0098,-3.9768,-3.9403,-3.9403,-3.9403,-3.9403,-5.7881,-5.7881,-5.7881,-5.7881,-5.7881,-5.7881,-5.7881,-5.7881,-5.7881,-5.7881,-5.7881,-5.7881,-5.7881,-5.7881,-5.7881,-5.7881,-5.7881,-5.7881,-5.7881,-5.7881,-5.7881,-5.7881,-5.7881,-5.7881,-5.7881,-5.778,-5.7509,-5.7137,-5.6731,-5.6055,-5.5547,-5.5175,-5.4837,-5.4397,-5.4059,-5.3687,-5.3551,-5.3518,-5.3518,-5.3518,-5.3518,-5.3518,-5.3518,-5.3518,-5.3518,-5.3518,-5.3518,-5.3518,-5.3518,-5.3518,-5.3518,-5.3518,-5.3518,-5.3518,-5.3518,-5.3518,-5.3518,-5.3518,-5.3518,-5.3518,-5.3518,-5.3518,-5.3518,-5.3518,-5.3518,-5.3484,-5.3518,-5.3416,-5.3315,-5.2909,-5.2909,-5.2536,-5.2232,-5.1729,-5.096,-5.0316,-4.9564,-4.8052,-4.7038,-4.6112,-4.5309,-4.4589,-4.3858,-4.3798,-4.3618,-4.3469,-4.3379,-4.3379,-4.3439,-4.3499,-4.3559,-4.3379,-4.3379,-4.329,-4.329,-4.329,-4.329,-4.329,-4.329,-4.329,-4.329,-4.329,-4.329,-4.311,-4.294,-4.2701,-4.2201,-4.1534,-4.1025,-4.0457,-3.9948,-3.9523,-3.9433,-3.9403,-3.9403,-5.7881,-5.7881,-5.7881,-5.7881,-5.7881,-5.7881,-5.7881,-5.7881,-5.7881,-5.7881,-5.7881,-5.7881,-5.7881,-5.7881,-5.7881,-5.7881,-5.7881,-5.7881,-5.7881,-5.7881,-5.7881,-5.7881,-5.7881,-5.7881,-5.7881,-5.7881,-5.7814,-5.7577,-5.7137,-5.6596,-5.6089,-5.5581,-5.504,-5.4566,-5.4262,-5.3721,-5.3551,-5.3518,-5.3518,-5.3518,-5.3518,-5.3518,-5.3518,-5.3518,-5.3518,-5.3518,-5.3518,-5.3518,-5.3518,-5.3518,-5.3518,-5.3518,-5.3518,-5.3518,-5.3518,-5.3518,-5.3518,-5.3518,-5.3518,-5.3518,-5.3518,-5.3518,-5.3518,-5.3518,-5.3518,-5.3518,-5.3518,-5.3518,-5.3484,-5.3416,-5.3382,-5.345,-5.3145,-5.264,-5.1899,-5.1216,-5.0606,-4.9657,-4.8839,-4.7862,-4.6831,-4.586,-4.5031,-4.4496,-4.4377,-4.4317,-4.4186,-4.4197,-4.4227,-4.4067,-4.4007,-4.3648,-4.3469,-4.3349,-4.329,-4.329,-4.329,-4.329,-4.329,-4.329,-4.329,-4.329,-4.329,-4.329,-4.326,-4.3,-4.2491,-4.2051,-4.1504,-4.0876,-4.0127,-3.9612,-3.9493,-3.9403,-3.9403,-5.7881,-5.7881,-5.7881,-5.7881,-5.7881,-5.7881,-5.7881,-5.7881,-5.7881,-5.7881,-5.7881,-5.7881,-5.7881,-5.7881,-5.7881,-5.7881,-5.7881,-5.7881,-5.7881,-5.7881,-5.7881,-5.7881,-5.7881,-5.7881,-5.7881,-5.7881,-5.7881,-5.7848,-5.7611,-5.7509,-5.6867,-5.5987,-5.5547,-5.5006,-5.3991,-5.3653,-5.3518,-5.3518,-5.3518,-5.3518,-5.3518,-5.3518,-5.3518,-5.3518,-5.3518,-5.3518,-5.3518,-5.3518,-5.3518,-5.3518,-5.3518,-5.3518,-5.3518,-5.3518,-5.3518,-5.3518,-5.3518,-5.3518,-5.3518,-5.3518,-5.3518,-5.3518,-5.3518,-5.3518,-5.3518,-5.3518,-5.3518,-5.3518,-5.3518,-5.3518,-5.3518,-5.3518,-5.3416,-5.3315,-5.2943,-5.2875,-5.2503,-5.0994,-5.0228,-4.9957,-4.899,-4.741,-4.6194,-4.5634,-4.5155,-4.5095,-4.5076,-4.5109,-4.5182,-4.5253,-4.5029,-4.4791,-4.4525,-4.4372,-4.4136,-4.4013,-4.3966,-4.3801,-4.3566,-4.3566,-4.3566,-4.3606,-4.329,-4.329,-4.329,-4.329,-4.297,-4.2491,-4.1983,-4.1414,-4.0756,-4.0098,-3.9493,-3.9463,-3.9553,-5.7881,-5.7881,-5.7881,-5.7881,-5.7881,-5.7881,-5.7881,-5.7881,-5.7881,-5.7881,-5.7881,-5.7881,-5.7881,-5.7881,-5.7881,-5.7881,-5.7881,-5.7881,-5.7881,-5.7881,-5.7881,-5.7881,-5.7881,-5.7881,-5.7881,-5.7881,-5.7881,-5.7881,-5.7881,-5.778,-5.7273,-5.6393,-5.5852,-5.5243,-5.4126,-5.3687,-5.3551,-5.3518,-5.3518,-5.3518,-5.3518,-5.3518,-5.3518,-5.3518,-5.3518,-5.3518,-5.3518,-5.3518,-5.3518,-5.3518,-5.3518,-5.3518,-5.3518,-5.3518,-5.3518,-5.3518,-5.3518,-5.3518,-5.3518,-5.3518,-5.3518,-5.3518,-5.3518,-5.3518,-5.3518,-5.3518,-5.3518,-5.3518,-5.3518,-5.3518,-5.3518,-5.3518,-5.3518,-5.3518,-5.3518,-5.3518,-5.328,-5.2487,-5.1503,-5.1382,-5.1085,-4.9521,-4.8271,-4.8013,-4.7497,-4.6981,-4.6967,-4.7022,-4.709,-4.7164,-4.6749,-4.6235,-4.5953,-4.5765,-4.5494,-4.5238,-4.5332,-4.5104,-4.4496,-4.4381,-4.4082,-4.3966,-4.3684,-4.3409,-4.3329,-4.329,-4.326,-4.288,-4.2291,-4.1871,-4.1452,-4.0846,-4.0277,-4.0068,-4.0068,-5.7881,-5.7881,-5.7881,-5.7881,-5.7881,-5.7881,-5.7881,-5.7881,-5.7881,-5.7881,-5.7881,-5.7881,-5.7881,-5.7881,-5.7881,-5.7881,-5.7881,-5.7881,-5.7881,-5.7881,-5.7881,-5.7881,-5.7881,-5.7881,-5.7881,-5.7881,-5.7881,-5.7881,-5.7881,-5.778,-5.7408,-5.6562,-5.5919,-5.531,-5.4702,-5.4363,-5.416,-5.389,-5.3856,-5.3754,-5.3551,-5.3518,-5.3518,-5.3518,-5.3518,-5.3518,-5.3518,-5.3518,-5.3518,-5.3518,-5.3518,-5.3518,-5.3518,-5.3518,-5.3518,-5.3518,-5.3518,-5.3518,-5.3518,-5.3518,-5.3518,-5.3518,-5.3518,-5.3518,-5.3518,-5.3518,-5.3518,-5.3518,-5.3518,-5.3518,-5.3518,-5.3518,-5.3518,-5.3518,-5.3518,-5.3518,-5.3382,-5.28,-5.2487,-5.2416,-5.217,-5.1809,-5.0839,-5.0611,-5.0034,-4.9138,-4.8909,-4.8918,-4.8886,-4.8928,-4.8386,-4.7781,-4.7362,-4.7134,-4.6884,-4.671,-4.6724,-4.6461,-4.5882,-4.5321,-4.5136,-4.4541,-4.4043,-4.3771,-4.3488,-4.3329,-4.326,-4.291,-4.256,-4.2201,-4.1841,-4.1632,-4.1242,-4.0905,-4.0636,-5.7881,-5.7881,-5.7881,-5.7881,-5.7881,-5.7881,-5.7881,-5.7881,-5.7881,-5.7881,-5.7881,-5.7881,-5.7881,-5.7881,-5.7881,-5.7881,-5.7881,-5.7881,-5.7881,-5.7881,-5.7881,-5.7881,-5.7881,-5.7881,-5.7881,-5.7881,-5.7881,-5.7881,-5.7848,-5.7712,-5.6968,-5.5987,-5.5987,-5.5344,-5.5006,-5.504,-5.4803,-5.4499,-5.4363,-5.4025,-5.3687,-5.3518,-5.3518,-5.3518,-5.3518,-5.3518,-5.3518,-5.3518,-5.3518,-5.3518,-5.3518,-5.3518,-5.3518,-5.3518,-5.3518,-5.3518,-5.3518,-5.3518,-5.3518,-5.3518,-5.3518,-5.3518,-5.3518,-5.3518,-5.3518,-5.3518,-5.3518,-5.3518,-5.3518,-5.3518,-5.3518,-5.3518,-5.3518,-5.3518,-5.3518,-5.3518,-5.3518,-5.345,-5.3179,-5.3314,-5.3076,-5.2661,-5.2555,-5.2117,-5.1699,-5.0808,-5.0591,-5.0598,-5.0379,-5.0314,-4.9803,-4.9264,-4.8776,-4.8514,-4.8381,-4.8307,-4.8339,-4.8042,-4.7487,-4.6853,-4.6291,-4.5573,-4.4642,-4.4159,-4.3888,-4.3606,-4.329,-4.309,-4.2821,-4.253,-4.2261,-4.2141,-4.1871,-4.1512,-4.1302,-5.7881,-5.7881,-5.7881,-5.7881,-5.7881,-5.7881,-5.7881,-5.7881,-5.7881,-5.7881,-5.7881,-5.7881,-5.7881,-5.7881,-5.7881,-5.7881,-5.7881,-5.7881,-5.7881,-5.7881,-5.7881,-5.7881,-5.7881,-5.7881,-5.7881,-5.7881,-5.7881,-5.7881,-5.7848,-5.7577,-5.707,-5.6494,-5.6393,-5.5919,-5.5683,-5.5581,-5.5277,-5.4837,-5.4566,-5.4228,-5.3653,-5.3518,-5.3518,-5.3518,-5.3518,-5.3518,-5.3518,-5.3518,-5.3518,-5.3518,-5.3518,-5.3518,-5.3518,-5.3518,-5.3518,-5.3518,-5.3518,-5.3518,-5.3518,-5.3518,-5.3518,-5.3518,-5.3518,-5.3518,-5.3518,-5.3518,-5.3518,-5.3518,-5.3518,-5.3518,-5.3518,-5.3518,-5.3518,-5.3518,-5.3518,-5.3518,-5.3518,-5.3518,-5.3484,-5.3416,-5.3484,-5.328,-5.3314,-5.3315,-5.2905,-5.2457,-5.2383,-5.2205,-5.1894,-5.1691,-5.1221,-5.0958,-5.053,-5.0241,-5.0109,-5.005,-4.9988,-4.9551,-4.9112,-4.8515,-4.7747,-4.6187,-4.5348,-4.4811,-4.412,-4.3606,-4.329,-4.329,-4.314,-4.288,-4.2761,-4.2701,-4.2402,-4.2051,-4.1931,-5.7881,-5.7881,-5.7881,-5.7881,-5.7881,-5.7881,-5.7881,-5.7881,-5.7881,-5.7881,-5.7881,-5.7881,-5.7881,-5.7881,-5.7881,-5.7881,-5.7881,-5.7881,-5.7881,-5.7881,-5.7881,-5.7881,-5.7881,-5.7881,-5.7881,-5.7881,-5.7881,-5.7881,-5.7848,-5.7374,-5.7205,-5.7171,-5.707,-5.6697,-5.6258,-5.6224,-5.5886,-5.5141,-5.4871,-5.4363,-5.3721,-5.3518,-5.3518,-5.3518,-5.3518,-5.3518,-5.3518,-5.3518,-5.3518,-5.3518,-5.3518,-5.3518,-5.3518,-5.3518,-5.3518,-5.3518,-5.3518,-5.3518,-5.3518,-5.3518,-5.3518,-5.3518,-5.3518,-5.3518,-5.3518,-5.3518,-5.3518,-5.3518,-5.3518,-5.3518,-5.3518,-5.3518,-5.3518,-5.3518,-5.3518,-5.3518,-5.3518,-5.3518,-5.3518,-5.3484,-5.3518,-5.3518,-5.3518,-5.3518,-5.3348,-5.3041,-5.3007,-5.2904,-5.2871,-5.277,-5.2739,-5.2504,-5.2337,-5.2135,-5.1963,-5.1766,-5.1497,-5.1062,-5.0626,-5.0192,-4.9286,-4.7645,-4.6373,-4.5922,-4.5077,-4.3814,-4.329,-4.3359,-4.3319,-4.326,-4.314,-4.303,-4.297,-4.2641,-4.2491,-5.7881,-5.7881,-5.7881,-5.7881,-5.7881,-5.7881,-5.7881,-5.7881,-5.7881,-5.7881,-5.7881,-5.7881,-5.7881,-5.7881,-5.7881,-5.7881,-5.7881,-5.7881,-5.7881,-5.7881,-5.7881,-5.7881,-5.7881,-5.7881,-5.7881,-5.7881,-5.7881,-5.7881,-5.7881,-5.7746,-5.7712,-5.7712,-5.7611,-5.7408,-5.69,-5.7476,-5.7036,-5.5919,-5.5681,-5.4905,-5.4093,-5.3856,-5.3856,-5.3687,-5.3687,-5.3721,-5.3518,-5.3518,-5.3518,-5.3518,-5.3518,-5.3518,-5.3518,-5.3518,-5.3518,-5.3518,-5.3585,-5.3585,-5.3551,-5.3518,-5.3518,-5.3518,-5.3518,-5.3518,-5.3518,-5.3518,-5.3518,-5.3518,-5.3518,-5.3518,-5.3518,-5.3518,-5.3518,-5.3518,-5.3518,-5.3518,-5.3518,-5.3518,-5.3518,-5.3518,-5.3518,-5.3518,-5.3518,-5.3518,-5.3518,-5.345,-5.3484,-5.3518,-5.3518,-5.3484,-5.3382,-5.3315,-5.3112,-5.3044,-5.2807,-5.3145,-5.2977,-5.2537,-5.2066,-5.153,-5.0626,-4.9099,-4.8003,-4.7225,-4.5809,-4.4369,-4.3756,-4.3359,-4.3359,-4.329,-4.329,-4.323,-4.323,-4.317,-4.3,-5.7881,-5.7881,-5.7881,-5.7881,-5.7881,-5.7881,-5.7881,-5.7881,-5.7881,-5.7881,-5.7881,-5.7881,-5.7881,-5.7881,-5.7881,-5.7881,-5.7881,-5.7881,-5.7881,-5.7881,-5.7881,-5.7881,-5.7881,-5.7881,-5.7881,-5.7881,-5.7881,-5.7881,-5.7881,-5.7881,-5.7881,-5.7881,-5.7881,-5.778,-5.7611,-5.778,-5.734,-5.6596,-5.6359,-5.5953,-5.5074,-5.4905,-5.4702,-5.4262,-5.4228,-5.3991,-5.3585,-5.3585,-5.3518,-5.3518,-5.3518,-5.3518,-5.3518,-5.3518,-5.3518,-5.3653,-5.3822,-5.4228,-5.4059,-5.389,-5.3518,-5.3551,-5.3518,-5.3518,-5.3518,-5.3518,-5.3518,-5.3518,-5.3518,-5.3518,-5.3518,-5.3518,-5.3518,-5.3518,-5.3518,-5.3518,-5.3518,-5.3518,-5.3518,-5.3518,-5.3518,-5.3518,-5.3518,-5.3518,-5.3518,-5.3518,-5.3518,-5.3518,-5.3518,-5.3518,-5.345,-5.3484,-5.3416,-5.345,-5.3518,-5.3518,-5.3518,-5.3078,-5.2875,-5.2673,-5.1563,-5.0316,-4.9606,-4.8754,-4.6834,-4.5002,-4.4733,-4.4347,-4.3578,-4.329,-4.3369,-4.3329,-4.326,-4.326,-4.32,-5.7881,-5.7881,-5.7881,-5.7881,-5.7881,-5.7881,-5.7881,-5.7881,-5.7881,-5.7881,-5.7881,-5.7881,-5.7881,-5.7881,-5.7881,-5.7881,-5.7881,-5.7881,-5.7881,-5.7881,-5.7881,-5.7881,-5.7881,-5.7881,-5.7881,-5.7881,-5.7881,-5.7881,-5.7881,-5.7881,-5.7881,-5.7881,-5.7881,-5.7848,-5.7848,-5.778,-5.7509,-5.6934,-5.663,-5.6359,-5.5784,-5.5547,-5.5412,-5.504,-5.4702,-5.4363,-5.3957,-5.3687,-5.3551,-5.3551,-5.3551,-5.3551,-5.3551,-5.3551,-5.3653,-5.3957,-5.4532,-5.4905,-5.4837,-5.4296,-5.4025,-5.3957,-5.3687,-5.3518,-5.3518,-5.3518,-5.3518,-5.3518,-5.3518,-5.3551,-5.3551,-5.3551,-5.3585,-5.3585,-5.3518,-5.3518,-5.3518,-5.3518,-5.3518,-5.3518,-5.3518,-5.3518,-5.3518,-5.3518,-5.3518,-5.3518,-5.3518,-5.3518,-5.3518,-5.3518,-5.3518,-5.3518,-5.3518,-5.3518,-5.3518,-5.3518,-5.3518,-5.3518,-5.3382,-5.3213,-5.2573,-5.1357,-5.0851,-5.014,-4.8276,-4.6699,-4.6091,-4.5494,-4.4664,-4.3944,-4.3527,-4.3448,-4.3329,-4.329,-4.329,-5.7881,-5.7881,-5.7881,-5.7881,-5.7881,-5.7881,-5.7881,-5.7881,-5.7881,-5.7881,-5.7881,-5.7881,-5.7881,-5.7881,-5.7881,-5.7881,-5.7881,-5.7881,-5.7881,-5.7881,-5.7881,-5.7881,-5.7881,-5.7881,-5.7881,-5.7881,-5.7881,-5.7881,-5.7881,-5.7881,-5.7881,-5.7881,-5.7881,-5.7881,-5.7881,-5.7814,-5.7543,-5.7171,-5.7002,-5.6731,-5.6359,-5.6089,-5.6021,-5.5716,-5.531,-5.4938,-5.4566,-5.4228,-5.3923,-5.3822,-5.3754,-5.3721,-5.3653,-5.3585,-5.4025,-5.4634,-5.5412,-5.5513,-5.5615,-5.504,-5.4702,-5.4566,-5.4093,-5.3754,-5.3518,-5.3518,-5.3518,-5.3585,-5.3653,-5.3653,-5.3653,-5.3653,-5.3687,-5.3653,-5.3551,-5.3551,-5.3518,-5.3518,-5.3518,-5.3518,-5.3518,-5.3518,-5.3518,-5.3518,-5.3585,-5.3518,-5.3518,-5.3518,-5.3518,-5.3518,-5.3518,-5.3518,-5.3518,-5.3518,-5.3518,-5.3518,-5.3518,-5.3518,-5.3518,-5.3349,-5.2774,-5.2402,-5.1896,-5.1048,-4.961,-4.8368,-4.7342,-4.6504,-4.5718,-4.501,-4.4304,-4.3508,-4.3379,-4.3319,-4.329,-5.7881,-5.7881,-5.7881,-5.7881,-5.7881,-5.7881,-5.7881,-5.7881,-5.7881,-5.7881,-5.7881,-5.7881,-5.7881,-5.7881,-5.7881,-5.7881,-5.7881,-5.7881,-5.7881,-5.7881,-5.7881,-5.7881,-5.7881,-5.7881,-5.7881,-5.7881,-5.7881,-5.7949,-5.7881,-5.7881,-5.7881,-5.7881,-5.7881,-5.7881,-5.7881,-5.7881,-5.7712,-5.7577,-5.7476,-5.7306,-5.7171,-5.707,-5.6867,-5.6494,-5.619,-5.5784,-5.5344,-5.5108,-5.4938,-5.4972,-5.504,-5.5074,-5.5074,-5.5108,-5.5412,-5.5987,-5.6055,-5.5852,-5.6224,-5.5784,-5.5378,-5.5378,-5.5108,-5.4397,-5.3923,-5.3653,-5.3687,-5.389,-5.4126,-5.4262,-5.4296,-5.4296,-5.4296,-5.4228,-5.4093,-5.3923,-5.3923,-5.3923,-5.3923,-5.3923,-5.389,-5.3923,-5.3856,-5.3653,-5.3721,-5.3585,-5.3518,-5.3518,-5.3518,-5.3518,-5.3518,-5.3518,-5.3518,-5.3518,-5.3518,-5.3518,-5.3518,-5.3518,-5.3518,-5.3518,-5.3247,-5.2977,-5.2808,-5.2129,-5.0973,-4.9606,-4.8235,-4.7569,-4.7063,-4.6059,-4.5279,-4.4257,-4.3469,-4.3409,-4.3499,-5.7881,-5.7881,-5.7881,-5.7881,-5.7881,-5.7881,-5.7881,-5.7881,-5.7881,-5.7881,-5.7881,-5.7881,-5.7881,-5.7881,-5.7881,-5.7881,-5.7881,-5.7881,-5.7881,-5.7881,-5.7881,-5.7881,-5.7881,-5.7881,-5.7881,-5.7949,-5.8084,-5.822,-5.7983,-5.7881,-5.7881,-5.7881,-5.7881,-5.7881,-5.7881,-5.7881,-5.7881,-5.7848,-5.7848,-5.7881,-5.7881,-5.7881,-5.7577,-5.7273,-5.7036,-5.6562,-5.619,-5.5987,-5.5784,-5.5681,-5.5681,-5.5681,-5.5749,-5.5919,-5.619,-5.6664,-5.6833,-5.6833,-5.707,-5.6562,-5.6258,-5.6055,-5.5919,-5.5277,-5.4871,-5.46,-5.4566,-5.4634,-5.4871,-5.504,-5.504,-5.504,-5.504,-5.504,-5.4735,-5.4465,-5.4431,-5.4431,-5.4465,-5.4465,-5.4499,-5.4499,-5.4363,-5.4093,-5.3923,-5.3923,-5.3754,-5.3518,-5.3518,-5.3518,-5.3518,-5.3518,-5.3518,-5.3518,-5.3518,-5.3518,-5.3518,-5.3518,-5.3518,-5.3518,-5.3518,-5.345,-5.318,-5.2943,-5.2571,-5.1249,-5.0028,-4.9216,-4.8573,-4.7554,-4.6475,-4.5474,-4.4419,-4.3618,-4.3738,-5.7881,-5.7881,-5.7881,-5.7881,-5.7881,-5.7881,-5.7881,-5.7881,-5.7881,-5.7881,-5.7881,-5.7881,-5.7881,-5.7881,-5.7881,-5.7881,-5.7881,-5.7881,-5.7881,-5.7881,-5.7881,-5.7881,-5.7881,-5.7881,-5.7881,-5.8118,-5.8287,-5.8254,-5.8017,-5.8017,-5.8118,-5.7915,-5.7881,-5.7881,-5.7881,-5.7881,-5.7881,-5.7881,-5.7881,-5.7881,-5.7881,-5.7881,-5.7848,-5.7746,-5.734,-5.69,-5.6731,-5.6359,-5.585,-5.5919,-5.5953,-5.6055,-5.6292,-5.6562,-5.6867,-5.7036,-5.7374,-5.7543,-5.7543,-5.7171,-5.6968,-5.6664,-5.6292,-5.6122,-5.5953,-5.5378,-5.5243,-5.531,-5.5513,-5.575,-5.5784,-5.5784,-5.5784,-5.5649,-5.5412,-5.5209,-5.5108,-5.5108,-5.5108,-5.5108,-5.5108,-5.5141,-5.5108,-5.4871,-5.4702,-5.4532,-5.4397,-5.4025,-5.3923,-5.3923,-5.3721,-5.3687,-5.3518,-5.3518,-5.3518,-5.3518,-5.3518,-5.3518,-5.3518,-5.3518,-5.3518,-5.3518,-5.3518,-5.3247,-5.3045,-5.291,-5.2033,-5.1036,-4.9949,-4.9106,-4.8015,-4.6766,-4.5677,-4.4619,-4.4227,-5.7881,-5.7881,-5.7881,-5.7881,-5.7881,-5.7881,-5.7881,-5.7881,-5.7881,-5.7881,-5.7881,-5.7881,-5.7881,-5.7881,-5.7881,-5.7881,-5.7881,-5.7881,-5.7881,-5.7881,-5.7881,-5.7881,-5.7881,-5.7881,-5.7881,-5.7915,-5.8051,-5.8186,-5.8118,-5.8321,-5.8389,-5.7949,-5.7881,-5.7881,-5.7881,-5.7881,-5.7881,-5.7881,-5.7881,-5.7881,-5.7881,-5.7881,-5.7848,-5.7848,-5.7577,-5.7543,-5.7442,-5.7408,-5.7306,-5.7374,-5.7374,-5.7408,-5.7408,-5.7543,-5.7577,-5.7645,-5.7746,-5.7848,-5.7814,-5.7645,-5.7543,-5.7543,-5.7374,-5.7374,-5.707,-5.6224,-5.5852,-5.5987,-5.6156,-5.6393,-5.6562,-5.6528,-5.6494,-5.6325,-5.6156,-5.5987,-5.5852,-5.5818,-5.5818,-5.5818,-5.5818,-5.5818,-5.5818,-5.5683,-5.5513,-5.5412,-5.5378,-5.5174,-5.5108,-5.5006,-5.4329,-5.4126,-5.3653,-5.3551,-5.3518,-5.3518,-5.3518,-5.3518,-5.3518,-5.3518,-5.3518,-5.3484,-5.3484,-5.3518,-5.3382,-5.3011,-5.2638,-5.2186,-5.1211,-5.02,-4.9222,-4.7853,-4.7018,-4.6059,-4.547,-5.7881,-5.7881,-5.7881,-5.7881,-5.7881,-5.7881,-5.7881,-5.7881,-5.7881,-5.7881,-5.7881,-5.7881,-5.7881,-5.7881,-5.7881,-5.7881,-5.7881,-5.7881,-5.7881,-5.7881,-5.7881,-5.7881,-5.7881,-5.7915,-5.7881,-5.7881,-5.7915,-5.8017,-5.8321,-5.822,-5.8152,-5.7949,-5.7915,-5.7881,-5.7881,-5.7881,-5.7915,-5.7881,-5.7949,-5.7949,-5.7949,-5.7915,-5.7881,-5.7881,-5.7881,-5.7881,-5.7881,-5.7881,-5.7881,-5.7881,-5.778,-5.778,-5.7746,-5.778,-5.7848,-5.7848,-5.7848,-5.7881,-5.7915,-5.7949,-5.7949,-5.7949,-5.7881,-5.7679,-5.7679,-5.6968,-5.6934,-5.7036,-5.707,-5.7273,-5.7306,-5.7273,-5.7273,-5.7171,-5.7103,-5.7002,-5.6934,-5.6968,-5.6934,-5.6934,-5.6934,-5.6934,-5.6833,-5.6427,-5.6258,-5.6089,-5.6089,-5.5818,-5.5818,-5.5953,-5.531,-5.4769,-5.4363,-5.3788,-5.3518,-5.3518,-5.3518,-5.3518,-5.3518,-5.3518,-5.3518,-5.3484,-5.3484,-5.311,-5.2835,-5.2664,-5.2314,-5.1993,-5.1594,-5.0532,-4.9712,-4.8826,-4.807,-4.7255,-4.6605,-5.822,-5.8152,-5.822,-5.8186,-5.8152,-5.8084,-5.8051,-5.8051,-5.7915,-5.7881,-5.7881,-5.7881,-5.7881,-5.7881,-5.7881,-5.7881,-5.7881,-5.7881,-5.7881,-5.7881,-5.7881,-5.8051,-5.8152,-5.8118,-5.8152,-5.8186,-5.8186,-5.849,-5.8863,-5.8592,-5.8321,-5.8051,-5.7949,-5.7986,-5.7983,-5.8084,-5.8186,-5.8423,-5.849,-5.8321,-5.8152,-5.7983,-5.7915,-5.7881,-5.7881,-5.7881,-5.7881,-5.7881,-5.7881,-5.8186,-5.8321,-5.8457,-5.8457,-5.8524,-5.8457,-5.849,-5.8524,-5.8457,-5.8355,-5.8287,-5.8186,-5.8084,-5.7983,-5.7915,-5.7915,-5.7881,-5.7848,-5.7848,-5.7881,-5.7848,-5.7848,-5.7814,-5.7814,-5.7814,-5.778,-5.7746,-5.778,-5.778,-5.778,-5.778,-5.778,-5.778,-5.7543,-5.7171,-5.7002,-5.6799,-5.6562,-5.6258,-5.6122,-5.6393,-5.6258,-5.5784,-5.5412,-5.4735,-5.3923,-5.3551,-5.3585,-5.3518,-5.3518,-5.3518,-5.3382,-5.311,-5.2765,-5.2277,-5.2029,-5.1813,-5.174,-5.1451,-5.1005,-5.055,-4.9757,-4.8907,-4.8327,-4.7619,-4.7345,-5.9674,-5.9674,-5.9674,-5.9641,-5.9573,-5.9066,-5.8795,-5.8693,-5.8152,-5.7881,-5.8017,-5.7915,-5.7881,-5.7915,-5.7881,-5.7983,-5.8254,-5.8152,-5.7949,-5.7881,-5.8051,-5.8355,-5.866,-5.8795,-5.8795,-5.8795,-5.8795,-5.8896,-5.9201,-5.8964,-5.8795,-5.8795,-5.8152,-5.8254,-5.8795,-5.8863,-5.8998,-5.9201,-5.9404,-5.9404,-5.9133,-5.8761,-5.7983,-5.7881,-5.7881,-5.7881,-5.7881,-5.7881,-5.8254,-5.8727,-5.9235,-5.9438,-5.9438,-5.937,-5.937,-5.9302,-5.9336,-5.937,-5.9235,-5.8964,-5.8863,-5.8761,-5.8592,-5.8186,-5.8186,-5.8152,-5.8152,-5.8152,-5.8118,-5.8017,-5.7983,-5.7881,-5.7848,-5.7848,-5.7848,-5.7848,-5.7848,-5.7848,-5.7848,-5.7848,-5.7848,-5.7848,-5.7814,-5.7577,-5.7577,-5.7442,-5.7442,-5.7137,-5.707,-5.7137,-5.7137,-5.6731,-5.6325,-5.5547,-5.4668,-5.3856,-5.3653,-5.3585,-5.3518,-5.3518,-5.3212,-5.2522,-5.2098,-5.1631,-5.108,-5.0703,-5.0665,-5.0665,-5.055,-5.0087,-4.9416,-4.8769,-4.8252,-4.7892,-4.7452]},{"header":{"parameterUnit":"m.s-1","parameterCategory":1,"la1":31.0,"la2":29.5877,"lo1":-88.7671,"lo2":-86.6584,"dy":0.0162,"dx":0.0185,"nx":115,"ny":88,"refTime":"2024-03-12T06:00:00:Z","depth":0,"parameterNumber":3,"parameterNumberName":"V-component_of_WINDS"},"data":[0.0,0.0,0.0,0.0,0.0,0.0,0.0,0.0,0.0,0.0,0.0,0.0,0.0,0.0,0.0,0.0,0.0,0.0,0.0,0.0,0.0,0.0,0.0,0.0,0.0,0.0,0.0,0.0,0.0,0.0,0.0,0.0,0.0,0.0,0.0,0.0,0.0,0.0,0.0,0.0,0.0,0.0,0.0,0.0,0.0,0.0,0.0,0.0,0.0,0.0,0.0,0.0,0.0,0.0,0.0,0.0,0.0,0.0,0.0,0.0,0.0,0.0,0.0,0.0,0.0,0.0,0.0,0.0,0.0,0.0,0.0,0.0,0.0,0.0,0.0,0.0,0.0,0.0,0.0,0.0,0.0,0.0,0.0,0.0,0.0,0.0,0.0,0.0,0.0,0.0,0.0,0.0,0.0,0.0,0.0,0.0,0.0,0.0,0.0,0.0,0.0,0.0,0.0,0.0,0.0,0.0,0.0,0.0,0.0,0.0,0.0,0.0,0.0,0.0,0.0,0.0,0.0,0.0,0.0,0.0,0.0,0.0,0.0,0.0,0.0,0.0,0.0,0.0,0.0,0.0,0.0,0.0,0.0,0.0,0.0,0.0,0.0,0.0,0.0,0.0,0.0,0.0,0.0,0.0,0.0,0.0,0.0,0.0,0.0,0.0,0.0,0.0,0.0,0.0,0.0,0.0,0.0,0.0,0.0,0.0,0.0,0.0,0.0,0.0,0.0,0.0,0.0,0.0,0.0,0.0,0.0,0.0,0.0,0.0,0.0,0.0,0.0,0.0,0.0,0.0,0.0,0.0,0.0,0.0,0.0,0.0,0.0,0.0,0.0,0.0,0.0,0.0,0.0,0.0,0.0,0.0,0.0,0.0,0.0,0.0,0.0,0.0,0.0,0.0,0.0,0.0,0.0,0.0,0.0,0.0,0.0,0.0,0.0,0.0,0.0,0.0,0.0,0.0,0.0,0.0,0.0,0.0,0.0,0.0,0.0,0.0,0.0,0.0,0.0,0.0,0.0,0.0,0.0,0.0,0.0,0.0,0.0,0.0,0.0,0.0,0.0,0.0,0.0,0.0,0.0,0.0,0.0,0.0,0.0,0.0,0.0,0.0,0.0,0.0,0.0,0.0,0.0,0.0,0.0,0.0,0.0,0.0,0.0,0.0,0.0,0.0,0.0,0.0,0.0,0.0,0.0,0.0,0.0,0.0,0.0,0.0,0.0,0.0,0.0,0.0,0.0,0.0,0.0,0.0,0.0,0.0,0.0,0.0,0.0,0.0,0.0,0.0,0.0,0.0,0.0,0.0,0.0,0.0,0.0,0.0,0.0,0.0,0.0,0.0,0.0,0.0,0.0,0.0,0.0,0.0,0.0,0.0,0.0,0.0,0.0,0.0,0.0,0.0,0.0,0.0,0.0,0.0,0.0,0.0,0.0,0.0,0.0,0.0,0.0,0.0,0.0,0.0,0.0,0.0,0.0,0.0,0.0,0.0,0.0,0.0,0.0,0.0,0.0,0.0,0.0,0.0,0.0,0.0,0.0,0.0,0.0,0.0,0.0,0.0,0.0,0.0,0.0,0.0,0.0,0.0,0.0,0.0,0.0,0.0,0.0,0.0,0.0,0.0,0.0,0.0,0.0,0.0,0.0,0.0,0.0,0.0,0.0,0.0,0.0,0.0,0.0,0.0,0.0,0.0,0.0,0.0,0.0,0.0,0.0,0.0,0.0,0.0,0.0,0.0,0.0,0.0,0.0,0.0,0.0,0.0,0.0,0.0,0.0,0.0,0.0,0.0,0.0,0.0,0.0,0.0,0.0,0.0,0.0,0.0,0.0,0.0,0.0,0.0,0.0,0.0,0.0,0.0,0.0,0.0,0.0,0.0,0.0,0.0,0.0,0.0,0.0,0.0,0.0,0.0,0.0,0.0,0.0,0.0,0.0,0.0,0.0,0.0,0.0,0.0,0.0,0.0,0.0,0.0,0.0,0.0,0.0,0.0,0.0,0.0,0.0,0.0,0.0,0.0,0.0,0.0,0.0,0.0,0.0,0.0,0.0,0.0,0.0,0.0,0.0,0.0,0.0,0.0,0.0,0.0,0.0,0.0,0.0,0.0,0.0,0.0,0.0,0.0,0.0,0.0,0.0,0.0,0.0,0.0,0.0,0.0,0.0,0.0,0.0,0.0,0.0,0.0,0.0,0.0,0.0,0.0,0.0,0.0,0.0,0.0,0.0,0.0,0.0,0.0,0.0,0.0,0.0,0.0,0.0,0.0,0.0,0.0,0.0,0.0,0.0,0.0,0.0,0.0,0.0,0.0,0.0,0.0,0.0,0.0,0.0,0.0,0.0,0.0,0.0,0.0,0.0,0.0,0.0,0.0,0.0,0.0,0.0,0.0,0.0,0.0,0.0,0.0,0.0,0.0,0.0,0.0,0.0,0.0,0.0,0.0,0.0,0.0,0.0,0.0,0.0,0.0,0.0,0.0,0.0,0.0,0.0,0.0,0.0,0.0,0.0,0.0,0.0,0.0,0.0,0.0,0.0,0.0,0.0,0.0,0.0,0.0,0.0,0.0,0.0,0.0,0.0,0.0,0.0,0.0,0.0,0.0,0.0,0.0,0.0,0.0,0.0,0.0,0.0,0.0,0.0,0.0,0.0,0.0,0.0,0.0,0.0,0.0,0.0,0.0,0.0,0.0,0.0,0.0,0.0,0.0,0.0,0.0,0.0,0.0,0.0,0.0,0.0,0.0,0.0,0.0,0.0,0.0,0.0,0.0,0.0,0.0,0.0,0.0,0.0,0.0,0.0,0.0,0.0,0.0,0.0,0.0,0.0,0.0,0.0,0.0,0.0,0.0,0.0,0.0,0.0,0.0,0.0,0.0,0.0,0.0,0.0,0.0,0.0,0.0,0.0,0.0,0.0,0.0,0.0,0.0,0.0,0.0,0.0,0.0,0.0,0.0,0.0,0.0,0.0,0.0,0.0,0.0,0.0,0.0,0.0,0.0,0.0,0.0,0.0,0.0,0.0,0.0,0.0,0.0,0.0,0.0,0.0,0.0,0.0,0.0,0.0,0.0,0.0,0.0,0.0,0.0,0.0,0.0,0.0,0.0,0.0,0.0,0.0,0.0,0.0,0.0,0.0,0.0,0.0,0.0,0.0,0.0,0.0,0.0,0.0,0.0,0.0,0.0,0.0,0.0,0.0,0.0,0.0,0.0,0.0,0.0,0.0,0.0,0.0,0.0,0.0,0.0,0.0,0.0,0.0,0.0,0.0,0.0,0.0,0.0,0.0,0.0,0.0,0.0,0.0,0.0,0.0,0.0,0.0,0.0,0.0,0.0,0.0,0.0,0.0,0.0,0.0,0.0,0.0,0.0,0.0,0.0,0.0,0.0,0.0,0.0,0.0,0.0,0.0,0.0,0.0,0.0,0.0,0.0,0.0,0.0,0.0,0.0,0.0,0.0,0.0,0.0,0.0,0.0,0.0,0.0,0.0,0.0,0.0,0.0,0.0,0.0,0.0,0.0,0.0,0.0,0.0,0.0,0.0,0.0,0.0,0.0,0.0,0.0,0.0,0.0,0.0,0.0,0.0,0.0,0.0,0.0,0.0,0.0,0.0,0.0,0.0,0.0,0.0,0.0,0.0,0.0,0.0,0.0,0.0,0.0,0.0,0.0,0.0,0.0,0.0,0.0,0.0,0.0,0.0,0.0,0.0,0.0,0.0,0.0,0.0,0.0,0.0,0.0,0.0,0.0,0.0,0.0,0.0,0.0,0.0,0.0,0.0,0.0,0.0,0.0,0.0,0.0,0.0,0.0,0.0,0.0,0.0,0.0,0.0,0.0,0.0,0.0,0.0,0.0,0.0,0.0,0.0,0.0,0.0,0.0,0.0,0.0,0.0,0.0,0.0,0.0,0.0,0.0,0.0,0.0,0.0,0.0,0.0,0.0,0.0,0.0,0.0,0.0,0.0,0.0,0.0,0.0,0.0,0.0,0.0,0.0,0.0,0.0,0.0,0.0,0.0,0.0,0.0,0.0,0.0,0.0,0.0,0.0,0.0,0.0,0.0,0.0,0.0,0.0,0.0,0.0,0.0,0.0,0.0,0.0,0.0,0.0,0.0,0.0,0.0,0.0,0.0,0.0,0.0,0.0,0.0,0.0,0.0,0.0,0.0,0.0,0.0,0.0,0.0,0.0,0.0,0.0,0.0,0.0,0.0,0.0,0.0,0.0,0.0,0.0,0.0,0.0,0.0,0.0,0.0,0.0,2.0605,0.0,0.0,0.0,0.0,0.0,0.0,0.0,0.0,0.0,0.0,0.0,0.0,0.0,0.0,0.0,0.0,0.0,0.0,0.0,0.0,0.0,0.0,0.0,0.0,0.0,0.0,0.0,0.0,0.0,0.0,0.0,0.0,0.0,0.0,0.0,0.0,0.0,0.0,0.0,0.0,0.0,0.0,0.0,0.0,0.0,0.0,0.0,0.0,0.0,0.0,0.0,0.0,0.0,0.0,0.0,0.0,0.0,0.0,0.0,0.0,0.0,0.0,0.0,0.0,0.0,0.0,0.0,0.0,0.0,0.0,0.0,0.0,0.0,0.0,0.0,0.0,0.0,0.0,0.0,0.0,0.0,0.0,0.0,0.0,0.0,0.0,0.0,0.0,0.0,0.0,0.0,0.0,0.0,0.0,0.0,0.0,0.0,0.0,0.0,0.0,0.0,0.0,0.0,0.0,0.0,0.0,0.0,0.0,0.0,0.0,2.0605,2.0605,2.0605,2.0605,2.0605,0.0,0.0,0.0,0.0,0.0,0.0,0.0,0.0,0.0,0.0,0.0,0.0,0.0,0.0,0.0,0.0,0.0,0.0,0.0,0.0,0.0,0.0,0.0,0.0,0.0,0.0,0.0,0.0,0.0,0.0,0.0,0.0,0.0,0.0,0.0,0.0,0.0,0.0,0.0,0.0,0.0,0.0,0.0,0.0,0.0,0.0,0.0,0.0,0.0,0.0,0.0,0.0,0.0,0.0,0.0,0.0,0.0,0.0,0.0,0.0,0.0,0.0,0.0,0.0,0.0,0.0,0.0,0.0,0.0,0.0,0.0,0.0,0.0,0.0,0.0,0.0,0.0,0.0,0.0,0.0,0.0,0.0,0.0,0.0,0.0,0.0,0.0,0.0,0.0,0.0,0.0,0.0,0.0,0.0,0.0,0.0,0.0,0.0,0.0,0.0,0.0,0.0,0.0,0.0,0.0,0.0,0.0,0.0,0.0,0.0,0.0,0.0,2.0723,2.0723,2.0762,0.0,0.0,0.0,0.0,0.0,0.0,0.0,0.0,0.0,0.0,0.0,0.0,0.0,0.0,0.0,0.0,0.0,0.0,0.0,0.0,0.0,0.0,0.0,0.0,0.0,0.0,0.0,0.0,0.0,0.0,0.0,0.0,0.0,0.0,0.0,0.0,0.0,0.0,0.0,0.0,0.0,0.0,0.0,0.0,0.0,0.0,0.0,0.0,0.0,0.0,0.0,0.0,0.0,0.0,0.0,0.0,0.0,0.0,0.0,0.0,0.0,0.0,0.0,0.0,0.0,0.0,0.0,0.0,0.0,0.0,0.0,0.0,0.0,0.0,0.0,0.0,0.0,0.0,0.0,0.0,0.0,0.0,0.0,0.0,0.0,0.0,0.0,0.0,0.0,0.0,0.0,0.0,0.0,0.0,0.0,0.0,0.0,0.0,0.0,0.0,0.0,0.0,0.0,0.0,0.0,0.0,0.0,0.0,0.0,0.0,2.0762,2.1112,2.1132,0.0,2.1132,0.0,0.0,0.0,0.0,0.0,0.0,0.0,0.0,0.0,0.0,0.0,0.0,0.0,0.0,0.0,0.0,0.0,0.0,0.0,0.0,0.0,0.0,0.0,0.0,0.0,0.0,0.0,0.0,0.0,0.0,0.0,0.0,0.0,0.0,0.0,0.0,0.0,0.0,0.0,0.0,0.0,0.0,0.0,0.0,0.0,0.0,0.0,0.0,0.0,0.0,0.0,0.0,0.0,0.0,0.0,0.0,0.0,0.0,0.0,0.0,0.0,0.0,0.0,0.0,0.0,0.0,0.0,0.0,0.0,0.0,0.0,0.0,0.0,0.0,0.0,0.0,0.0,0.0,0.0,0.0,0.0,0.0,0.0,0.0,0.0,0.0,0.0,0.0,0.0,0.0,0.0,0.0,0.0,0.0,0.0,0.0,0.0,0.0,0.0,0.0,0.0,0.0,0.0,0.0,0.0,0.0,0.0,0.0,0.0,0.0,2.1309,2.121,2.119,2.119,0.0,0.0,0.0,0.0,0.0,0.0,0.0,0.0,0.0,0.0,0.0,0.0,0.0,0.0,0.0,0.0,0.0,0.0,0.0,0.0,0.0,0.0,0.0,0.0,0.0,0.0,0.0,0.0,0.0,0.0,0.0,0.0,0.0,0.0,0.0,0.0,0.0,0.0,0.0,0.0,0.0,0.0,0.0,0.0,0.0,0.0,0.0,0.0,0.0,0.0,0.0,0.0,0.0,0.0,0.0,0.0,0.0,0.0,0.0,0.0,0.0,0.0,0.0,0.0,0.0,0.0,0.0,0.0,0.0,0.0,0.0,0.0,0.0,0.0,0.0,0.0,0.0,0.0,0.0,0.0,0.0,0.0,0.0,0.0,0.0,0.0,0.0,0.0,0.0,0.0,0.0,0.0,0.0,0.0,0.0,0.0,0.0,0.0,0.0,0.0,0.0,0.0,0.0,0.0,0.0,0.0,0.0,0.0,0.0,0.0,2.1445,2.1621,2.1426,2.1366,2.1327,2.121,0.0,0.0,0.0,0.0,0.0,0.0,0.0,0.0,0.0,0.0,0.0,0.0,0.0,0.0,0.0,0.0,0.0,0.0,0.0,0.0,0.0,0.0,0.0,0.0,0.0,0.0,0.0,0.0,0.0,0.0,0.0,0.0,0.0,0.0,0.0,0.0,0.0,0.0,0.0,0.0,0.0,0.0,0.0,0.0,0.0,0.0,0.0,0.0,0.0,0.0,0.0,0.0,0.0,0.0,0.0,0.0,0.0,0.0,0.0,0.0,0.0,0.0,0.0,0.0,0.0,0.0,0.0,0.0,0.0,0.0,0.0,0.0,0.0,0.0,0.0,0.0,0.0,0.0,0.0,0.0,0.0,0.0,0.0,0.0,0.0,0.0,0.0,0.0,0.0,0.0,0.0,0.0,0.0,0.0,0.0,0.0,0.0,0.0,0.0,0.0,0.0,0.0,0.0,0.0,0.0,0.0,0.0,0.0,2.1758,2.1445,2.1465,2.1855,2.1855,2.166,0.0,0.0,0.0,0.0,0.0,0.0,0.0,0.0,0.0,0.0,0.0,0.0,0.0,0.0,0.0,0.0,0.0,0.0,0.0,0.0,0.0,0.0,0.0,0.0,0.0,0.0,0.0,0.0,0.0,0.0,0.0,0.0,0.0,0.0,0.0,0.0,0.0,0.0,0.0,0.0,0.0,0.0,0.0,0.0,0.0,0.0,0.0,0.0,0.0,0.0,0.0,0.0,0.0,0.0,0.0,0.0,0.0,0.0,0.0,0.0,0.0,0.0,0.0,0.0,0.0,0.0,0.0,0.0,0.0,0.0,0.0,0.0,0.0,0.0,0.0,0.0,0.0,0.0,0.0,0.0,0.0,0.0,0.0,0.0,0.0,0.0,0.0,0.0,0.0,0.0,0.0,0.0,0.0,0.0,0.0,0.0,0.0,0.0,0.0,0.0,0.0,0.0,0.0,0.0,0.0,0.0,0.0,0.0,0.0,2.1035,2.1172,2.1658,2.2617,2.1894,2.1406,0.0,0.0,0.0,0.0,0.0,0.0,0.0,0.0,0.0,0.0,0.0,0.0,0.0,0.0,0.0,0.0,0.0,0.0,0.0,0.0,0.0,0.0,0.0,0.0,0.0,0.0,0.0,0.0,0.0,0.0,0.0,0.0,0.0,0.0,0.0,0.0,0.0,0.0,0.0,0.0,0.0,0.0,0.0,0.0,0.0,0.0,0.0,0.0,0.0,0.0,0.0,0.0,0.0,0.0,0.0,0.0,0.0,0.0,0.0,0.0,0.0,0.0,0.0,0.0,0.0,0.0,0.0,0.0,0.0,0.0,0.0,0.0,0.0,0.0,0.0,0.0,0.0,0.0,0.0,0.0,0.0,0.0,0.0,0.0,0.0,0.0,0.0,0.0,0.0,0.0,0.0,0.0,0.0,0.0,0.0,0.0,0.0,0.0,0.0,0.0,0.0,0.0,0.0,0.0,0.0,0.0,0.0,0.0,0.0,2.1036,0.0,2.1951,2.2656,2.1853,2.1268,0.0,0.0,0.0,0.0,0.0,0.0,0.0,0.0,0.0,0.0,0.0,0.0,0.0,0.0,0.0,0.0,0.0,0.0,0.0,0.0,0.0,0.0,0.0,0.0,0.0,0.0,0.0,0.0,0.0,0.0,0.0,0.0,0.0,0.0,0.0,0.0,0.0,0.0,0.0,0.0,0.0,0.0,0.0,0.0,0.0,0.0,0.0,0.0,0.0,0.0,0.0,0.0,0.0,0.0,0.0,0.0,0.0,0.0,0.0,0.0,0.0,0.0,0.0,0.0,0.0,0.0,0.0,0.0,0.0,0.0,0.0,0.0,0.0,0.0,0.0,0.0,0.0,0.0,0.0,0.0,0.0,0.0,0.0,0.0,0.0,0.0,0.0,0.0,0.0,0.0,0.0,0.0,0.0,0.0,0.0,0.0,0.0,0.0,0.0,0.0,0.0,0.0,0.0,0.0,0.0,0.0,0.0,0.0,2.0996,2.1836,2.2246,2.2285,2.1934,2.1875,2.1505,0.0,0.0,0.0,0.0,0.0,0.0,0.0,0.0,0.0,0.0,0.0,0.0,0.0,0.0,0.0,0.0,0.0,0.0,0.0,0.0,0.0,0.0,0.0,0.0,0.0,0.0,0.0,0.0,0.0,0.0,0.0,0.0,0.0,0.0,0.0,0.0,0.0,0.0,0.0,0.0,0.0,0.0,0.0,0.0,0.0,0.0,0.0,0.0,0.0,0.0,0.0,0.0,0.0,0.0,0.0,0.0,0.0,0.0,0.0,0.0,0.0,0.0,0.0,0.0,0.0,0.0,0.0,0.0,0.0,0.0,0.0,0.0,0.0,0.0,0.0,0.0,0.0,0.0,0.0,0.0,0.0,0.0,0.0,0.0,0.0,0.0,0.0,0.0,0.0,0.0,0.0,0.0,0.0,0.0,0.0,0.0,0.0,0.0,0.0,0.0,0.0,0.0,0.0,0.0,0.0,0.0,0.0,0.0,0.0,2.1445,2.1855,2.2285,2.2695,2.1853,2.1465,0.0,0.0,0.0,0.0,0.0,0.0,0.0,0.0,0.0,0.0,0.0,0.0,0.0,0.0,0.0,0.0,0.0,0.0,0.0,0.0,0.0,0.0,0.0,0.0,0.0,0.0,0.0,0.0,0.0,0.0,0.0,0.0,0.0,0.0,0.0,0.0,0.0,0.0,0.0,0.0,0.0,0.0,0.0,0.0,0.0,0.0,0.0,0.0,0.0,0.0,0.0,0.0,0.0,0.0,0.0,0.0,0.0,0.0,0.0,0.0,0.0,0.0,0.0,0.0,0.0,0.0,0.0,0.0,0.0,0.0,0.0,0.0,0.0,0.0,0.0,0.0,0.0,0.0,0.0,0.0,0.0,0.0,0.0,0.0,0.0,0.0,0.0,0.0,0.0,0.0,0.0,0.0,0.0,0.0,0.0,0.0,0.0,0.0,0.0,0.0,0.0,0.0,0.0,0.0,0.0,0.0,0.0,0.0,0.0,2.2399,2.2695,2.3008,2.3315,2.2399,2.1795,2.1641,0.0,0.0,0.0,0.0,0.0,0.0,0.0,0.0,0.0,0.0,0.0,0.0,0.0,0.0,0.0,0.0,0.0,0.0,0.0,0.0,0.0,0.0,0.0,0.0,0.0,0.0,0.0,0.0,0.0,0.0,0.0,0.0,0.0,0.0,0.0,0.0,0.0,0.0,0.0,0.0,0.0,0.0,0.0,0.0,0.0,0.0,0.0,0.0,0.0,0.0,0.0,0.0,0.0,0.0,0.0,0.0,0.0,0.0,0.0,0.0,0.0,0.0,0.0,0.0,0.0,0.0,0.0,0.0,0.0,0.0,0.0,0.0,0.0,0.0,0.0,0.0,0.0,0.0,0.0,0.0,0.0,0.0,0.0,0.0,0.0,0.0,0.0,0.0,0.0,0.0,0.0,0.0,0.0,0.0,0.0,0.0,0.0,0.0,0.0,0.0,0.0,0.0,0.0,0.0,0.0,0.0,0.0,0.0,2.4453,2.4512,2.4375,2.4004,2.3374,2.2535,0.0,0.0,0.0,0.0,0.0,0.0,0.0,0.0,0.0,0.0,0.0,0.0,0.0,0.0,0.0,0.0,0.0,0.0,0.0,0.0,0.0,0.0,0.0,0.0,0.0,0.0,0.0,0.0,0.0,0.0,0.0,0.0,0.0,0.0,0.0,0.0,0.0,0.0,0.0,0.0,0.0,0.0,0.0,0.0,0.0,0.0,0.0,0.0,0.0,0.0,0.0,0.0,0.0,0.0,0.0,0.0,0.0,0.0,0.0,0.0,0.0,0.0,0.0,0.0,0.0,0.0,0.0,0.0,0.0,0.0,0.0,0.0,0.0,0.0,0.0,0.0,0.0,0.0,0.0,0.0,0.0,0.0,0.0,0.0,0.0,0.0,0.0,0.0,0.0,0.0,0.0,0.0,0.0,0.0,0.0,0.0,0.0,0.0,0.0,0.0,0.0,0.0,0.0,0.0,0.0,0.0,0.0,0.0,0.0,2.4883,2.584,2.6289,2.6133,2.4199,2.3101,0.0,0.0,0.0,0.0,0.0,0.0,0.0,0.0,0.0,0.0,0.0,0.0,0.0,0.0,0.0,0.0,0.0,0.0,0.0,0.0,0.0,0.0,0.0,0.0,0.0,0.0,0.0,0.0,0.0,0.0,0.0,0.0,0.0,0.0,0.0,0.0,0.0,0.0,0.0,0.0,0.0,0.0,0.0,0.0,0.0,0.0,0.0,0.0,0.0,0.0,0.0,0.0,0.0,0.0,0.0,0.0,0.0,0.0,0.0,0.0,0.0,0.0,0.0,0.0,0.0,0.0,0.0,0.0,0.0,0.0,0.0,0.0,0.0,0.0,0.0,0.0,0.0,0.0,0.0,0.0,0.0,0.0,0.0,0.0,0.0,0.0,0.0,0.0,0.0,0.0,0.0,0.0,0.0,0.0,0.0,0.0,0.0,0.0,0.0,0.0,0.0,0.0,0.0,0.0,0.0,0.0,0.0,0.0,2.4668,2.6182,2.707,2.7715,2.8066,2.5538,2.4004,0.0,0.0,0.0,0.0,0.0,0.0,0.0,0.0,0.0,0.0,0.0,0.0,0.0,0.0,0.0,0.0,0.0,0.0,0.0,0.0,0.0,0.0,0.0,0.0,0.0,0.0,0.0,0.0,0.0,0.0,0.0,0.0,0.0,0.0,0.0,0.0,0.0,0.0,0.0,0.0,0.0,0.0,0.0,0.0,0.0,0.0,0.0,0.0,0.0,0.0,0.0,0.0,0.0,0.0,0.0,0.0,0.0,0.0,0.0,0.0,0.0,0.0,0.0,0.0,0.0,0.0,0.0,0.0,0.0,0.0,0.0,0.0,0.0,0.0,0.0,0.0,0.0,0.0,0.0,0.0,0.0,0.0,0.0,0.0,0.0,0.0,0.0,0.0,0.0,0.0,0.0,0.0,0.0,0.0,0.0,0.0,0.0,0.0,0.0,0.0,0.0,0.0,0.0,0.0,0.0,0.0,0.0,0.0,2.5967,2.7669,2.8225,2.8942,2.9597,2.7102,2.5,0.0,0.0,0.0,0.0,0.0,0.0,0.0,0.0,0.0,0.0,0.0,0.0,0.0,0.0,0.0,0.0,0.0,0.0,0.0,0.0,0.0,0.0,0.0,0.0,0.0,0.0,0.0,0.0,0.0,0.0,0.0,0.0,0.0,0.0,0.0,0.0,0.0,0.0,0.0,0.0,0.0,0.0,0.0,0.0,0.0,0.0,0.0,0.0,0.0,0.0,0.0,0.0,0.0,0.0,0.0,0.0,0.0,0.0,0.0,0.0,0.0,0.0,0.0,0.0,0.0,0.0,0.0,0.0,0.0,0.0,0.0,0.0,0.0,0.0,0.0,0.0,0.0,0.0,0.0,0.0,0.0,0.0,0.0,0.0,0.0,0.0,0.0,0.0,0.0,0.0,0.0,0.0,0.0,0.0,0.0,0.0,0.0,0.0,0.0,0.0,0.0,0.0,0.0,0.0,0.0,0.0,0.0,0.0,2.5967,2.7669,2.9132,3.0128,3.0665,2.7482,2.541,0.0,0.0,0.0,0.0,0.0,0.0,0.0,0.0,0.0,0.0,0.0,0.0,0.0,0.0,0.0,0.0,0.0,0.0,0.0,0.0,0.0,0.0,0.0,0.0,0.0,0.0,0.0,0.0,0.0,0.0,0.0,0.0,0.0,0.0,0.0,0.0,0.0,0.0,0.0,0.0,0.0,0.0,0.0,0.0,0.0,0.0,0.0,0.0,2.3768,0.0,0.0,0.0,0.0,0.0,0.0,0.0,0.0,0.0,0.0,0.0,0.0,0.0,0.0,0.0,0.0,0.0,0.0,0.0,0.0,0.0,0.0,0.0,0.0,0.0,0.0,0.0,0.0,0.0,0.0,0.0,0.0,0.0,0.0,0.0,0.0,0.0,0.0,0.0,0.0,0.0,0.0,0.0,0.0,0.0,0.0,0.0,0.0,0.0,0.0,0.0,0.0,0.0,0.0,0.0,0.0,0.0,0.0,0.0,2.6045,2.7924,2.9495,3.0538,3.0937,2.9354,2.7648,0.0,0.0,0.0,0.0,0.0,0.0,0.0,0.0,0.0,0.0,0.0,0.0,0.0,0.0,0.0,0.0,0.0,0.0,0.0,0.0,0.0,0.0,0.0,0.0,0.0,0.0,0.0,0.0,0.0,0.0,0.0,0.0,0.0,0.0,0.0,0.0,0.0,0.0,0.0,0.0,0.0,0.0,0.0,0.0,0.0,0.0,0.0,0.0,0.0,0.0,0.0,0.0,0.0,0.0,0.0,0.0,0.0,0.0,0.0,0.0,0.0,0.0,0.0,0.0,0.0,0.0,0.0,0.0,0.0,0.0,0.0,0.0,0.0,0.0,0.0,0.0,0.0,0.0,0.0,0.0,0.0,0.0,0.0,0.0,0.0,0.0,0.0,0.0,0.0,0.0,0.0,0.0,0.0,0.0,0.0,0.0,0.0,0.0,0.0,0.0,0.0,0.0,0.0,0.0,0.0,0.0,0.0,2.506,2.6576,2.8933,3.0266,3.1163,3.1612,3.2029,3.0683,2.7324,0.0,0.0,0.0,0.0,0.0,0.0,0.0,0.0,0.0,0.0,0.0,0.0,0.0,0.0,0.0,0.0,0.0,0.0,0.0,0.0,0.0,0.0,0.0,0.0,0.0,0.0,0.0,0.0,0.0,0.0,0.0,0.0,0.0,0.0,0.0,0.0,0.0,0.0,2.2997,2.3977,0.0,0.0,0.0,0.0,0.0,0.0,0.0,0.0,2.7178,0.0,0.0,0.0,0.0,0.0,0.0,0.0,0.0,0.0,0.0,0.0,0.0,0.0,0.0,0.0,0.0,0.0,0.0,0.0,0.0,0.0,0.0,0.0,0.0,0.0,0.0,0.0,0.0,0.0,0.0,0.0,0.0,0.0,0.0,0.0,0.0,0.0,0.0,0.0,0.0,0.0,0.0,0.0,0.0,0.0,0.0,0.0,0.0,0.0,0.0,0.0,0.0,0.0,0.0,0.0,0.0,2.6501,2.6689,2.8551,3.2148,3.3211,3.3907,3.4322,3.4679,3.3384,3.0201,0.0,0.0,0.0,0.0,0.0,0.0,0.0,0.0,0.0,0.0,0.0,0.0,0.0,0.0,0.0,0.0,0.0,0.0,0.0,0.0,0.0,0.0,0.0,0.0,0.0,0.0,0.0,0.0,0.0,0.0,0.0,0.0,0.0,0.0,0.0,0.0,0.0,0.0,0.0,2.7041,2.7528,0.0,0.0,0.0,0.0,0.0,0.0,0.0,0.0,2.757,0.0,0.0,0.0,0.0,0.0,0.0,0.0,0.0,0.0,0.0,0.0,0.0,0.0,0.0,0.0,0.0,0.0,0.0,0.0,0.0,0.0,0.0,0.0,0.0,0.0,0.0,0.0,0.0,0.0,0.0,0.0,0.0,0.0,0.0,0.0,0.0,0.0,0.0,0.0,0.0,0.0,0.0,0.0,0.0,0.0,0.0,0.0,0.0,0.0,0.0,0.0,0.0,0.0,0.0,0.0,2.563,2.7665,2.9633,3.1576,3.3442,3.4504,3.4669,3.4684,3.3551,0.0,0.0,0.0,0.0,0.0,0.0,0.0,0.0,0.0,0.0,0.0,0.0,0.0,0.0,0.0,0.0,0.0,0.0,0.0,0.0,0.0,0.0,0.0,0.0,0.0,0.0,0.0,0.0,0.0,0.0,0.0,0.0,0.0,0.0,0.0,0.0,0.0,0.0,0.0,0.0,2.8197,2.875,2.9327,0.0,0.0,0.0,0.0,0.0,0.0,2.8423,2.7996,0.0,0.0,0.0,0.0,0.0,0.0,0.0,0.0,0.0,0.0,0.0,0.0,0.0,0.0,0.0,0.0,0.0,0.0,0.0,0.0,0.0,0.0,0.0,0.0,0.0,0.0,0.0,0.0,0.0,0.0,0.0,0.0,0.0,0.0,0.0,0.0,0.0,0.0,0.0,0.0,0.0,0.0,0.0,0.0,0.0,0.0,0.0,0.0,0.0,0.0,0.0,0.0,0.0,0.0,0.0,2.527,2.8566,3.066,3.1556,3.365,3.4775,3.48,3.4304,3.3294,0.0,0.0,0.0,0.0,0.0,0.0,0.0,0.0,0.0,0.0,0.0,0.0,0.0,0.0,0.0,0.0,0.0,0.0,0.0,0.0,0.0,0.0,0.0,0.0,0.0,0.0,0.0,0.0,0.0,0.0,0.0,0.0,0.0,0.0,0.0,0.0,0.0,0.0,0.0,0.0,0.0,2.9389,3.0306,2.964,0.0,0.0,0.0,0.0,2.9314,2.9151,0.0,0.0,0.0,0.0,0.0,0.0,0.0,0.0,0.0,0.0,0.0,0.0,0.0,0.0,0.0,0.0,0.0,0.0,0.0,0.0,0.0,0.0,0.0,0.0,0.0,0.0,0.0,0.0,0.0,0.0,0.0,0.0,0.0,0.0,0.0,0.0,0.0,0.0,0.0,0.0,0.0,0.0,0.0,0.0,0.0,0.0,0.0,0.0,0.0,0.0,0.0,0.0,0.0,0.0,0.0,0.0,2.7917,2.9556,3.2136,3.5521,3.6001,3.6168,3.6143,3.5136,3.3847,0.0,0.0,0.0,0.0,0.0,0.0,0.0,0.0,0.0,0.0,0.0,0.0,0.0,0.0,0.0,0.0,0.0,0.0,0.0,0.0,0.0,0.0,0.0,0.0,0.0,0.0,0.0,0.0,0.0,0.0,0.0,0.0,0.0,0.0,0.0,0.0,0.0,0.0,0.0,0.0,0.0,2.9729,2.988,2.9779,2.9478,0.0,0.0,3.0507,3.1035,3.1461,0.0,0.0,0.0,0.0,0.0,0.0,0.0,0.0,0.0,0.0,0.0,0.0,0.0,0.0,0.0,0.0,0.0,0.0,0.0,0.0,0.0,0.0,0.0,0.0,0.0,0.0,0.0,0.0,0.0,0.0,0.0,0.0,0.0,0.0,0.0,0.0,0.0,0.0,0.0,0.0,0.0,0.0,0.0,0.0,0.0,0.0,0.0,0.0,0.0,0.0,0.0,0.0,0.0,0.0,0.0,2.5806,2.7437,3.1294,3.3906,3.5234,3.6026,3.6405,3.6405,3.4374,3.2689,0.0,0.0,0.0,0.0,0.0,0.0,0.0,0.0,0.0,0.0,0.0,0.0,0.0,0.0,0.0,0.0,0.0,0.0,0.0,0.0,0.0,0.0,0.0,0.0,0.0,0.0,0.0,0.0,0.0,0.0,0.0,0.0,0.0,0.0,0.0,0.0,0.0,0.0,0.0,0.0,0.0,0.0,3.0608,3.0457,0.0,0.0,0.0,3.1035,3.0959,0.0,0.0,0.0,0.0,0.0,0.0,0.0,0.0,0.0,0.0,0.0,0.0,0.0,0.0,0.0,0.0,0.0,0.0,0.0,0.0,0.0,0.0,0.0,0.0,0.0,0.0,0.0,0.0,0.0,0.0,0.0,0.0,0.0,0.0,0.0,0.0,0.0,0.0,0.0,0.0,0.0,0.0,0.0,0.0,0.0,0.0,0.0,0.0,0.0,0.0,0.0,0.0,0.0,0.0,0.0,0.0,0.0,2.7086,3.2408,3.5106,3.4921,3.5858,3.6405,3.638,3.4223,0.0,0.0,0.0,0.0,0.0,0.0,0.0,0.0,0.0,0.0,0.0,0.0,0.0,0.0,0.0,0.0,0.0,0.0,0.0,0.0,0.0,0.0,0.0,0.0,0.0,0.0,0.0,2.1418,0.0,0.0,0.0,0.0,0.0,0.0,0.0,0.0,0.0,0.0,0.0,0.0,0.0,0.0,3.0131,3.106,3.111,3.116,0.0,0.0,3.1512,3.1286,3.2014,3.1888,0.0,0.0,0.0,0.0,0.0,0.0,0.0,0.0,0.0,0.0,0.0,0.0,0.0,0.0,0.0,0.0,0.0,0.0,0.0,0.0,0.0,0.0,0.0,0.0,0.0,0.0,0.0,0.0,0.0,0.0,0.0,0.0,0.0,0.0,0.0,0.0,0.0,0.0,0.0,0.0,0.0,0.0,0.0,0.0,0.0,0.0,0.0,0.0,0.0,0.0,0.0,0.0,0.0,0.0,0.0,2.8519,3.2414,3.509,3.6216,3.6358,3.6405,3.6405,3.568,3.4028,0.0,0.0,0.0,0.0,0.0,0.0,0.0,0.0,0.0,0.0,0.0,0.0,0.0,0.0,0.0,0.0,0.0,0.0,0.0,0.0,0.0,0.0,0.0,0.0,0.0,0.0,0.0,0.0,0.0,0.0,0.0,0.0,0.0,0.0,0.0,0.0,0.0,0.0,0.0,0.0,0.0,3.0005,3.0583,3.1486,3.2114,0.0,0.0,3.2315,3.2817,3.3395,3.3043,3.0859,0.0,0.0,0.0,0.0,0.0,0.0,0.0,0.0,0.0,0.0,0.0,0.0,0.0,0.0,0.0,0.0,0.0,0.0,0.0,0.0,0.0,0.0,0.0,0.0,0.0,0.0,0.0,0.0,0.0,0.0,0.0,0.0,0.0,0.0,0.0,0.0,0.0,0.0,0.0,0.0,0.0,0.0,0.0,0.0,0.0,0.0,0.0,0.0,0.0,0.0,0.0,0.0,0.0,2.7276,2.8592,3.3228,3.5883,3.6358,3.6405,3.6405,3.6405,3.5504,3.3765,0.0,0.0,0.0,0.0,0.0,0.0,0.0,0.0,0.0,0.0,0.0,0.0,0.0,0.0,0.0,0.0,0.0,0.0,0.0,0.0,0.0,0.0,0.0,0.0,0.0,0.0,0.0,0.0,2.6264,2.6666,2.6189,0.0,0.0,0.0,0.0,0.0,0.0,0.0,0.0,0.0,0.0,3.0608,3.1486,3.1964,0.0,0.0,3.2742,3.2817,3.3043,3.3244,3.2767,3.0909,3.003,0.0,0.0,0.0,0.0,0.0,0.0,0.0,0.0,0.0,0.0,0.0,0.0,0.0,0.0,0.0,0.0,0.0,0.0,0.0,0.0,0.0,0.0,0.0,0.0,0.0,0.0,0.0,0.0,0.0,0.0,0.0,0.0,0.0,0.0,0.0,0.0,0.0,0.0,0.0,0.0,0.0,0.0,0.0,0.0,0.0,0.0,0.0,0.0,0.0,0.0,0.0,0.0,2.7787,2.864,3.3752,3.6405,3.6405,3.6405,3.6405,3.638,3.5604,3.4115,0.0,0.0,0.0,0.0,0.0,0.0,0.0,0.0,0.0,0.0,0.0,0.0,0.0,0.0,0.0,0.0,0.0,0.0,0.0,0.0,0.0,0.0,0.0,0.0,0.0,0.0,0.0,0.0,2.7193,2.7243,2.6348,0.0,0.0,0.0,0.0,0.0,0.0,0.0,0.0,0.0,0.0,3.1185,3.2089,3.2365,3.2616,3.3061,3.3136,3.3061,3.2842,3.2968,3.2516,3.0884,0.0,0.0,0.0,0.0,0.0,0.0,0.0,0.0,0.0,0.0,0.0,0.0,0.0,0.0,0.0,0.0,0.0,0.0,0.0,0.0,0.0,0.0,0.0,0.0,0.0,0.0,0.0,0.0,0.0,0.0,2.0683,0.0,0.0,0.0,0.0,0.0,0.0,0.0,0.0,0.0,0.0,0.0,0.0,0.0,0.0,0.0,0.0,0.0,0.0,0.0,0.0,0.0,0.0,2.814,2.8833,3.3836,3.6405,3.6405,3.6405,3.6405,3.6405,3.638,3.5529,3.3847,0.0,0.0,0.0,0.0,0.0,0.0,0.0,0.0,0.0,0.0,0.0,0.0,0.0,0.0,0.0,0.0,0.0,0.0,0.0,0.0,0.0,0.0,0.0,0.0,0.0,0.0,2.5008,2.5862,2.6323,0.0,0.0,0.0,0.0,0.0,0.0,0.0,0.0,0.0,0.0,3.0708,3.1587,3.2139,3.2692,3.3086,3.3068,3.3136,3.2867,3.234,3.2692,3.2516,0.0,0.0,0.0,0.0,0.0,0.0,0.0,0.0,0.0,0.0,0.0,0.0,0.0,0.0,0.0,0.0,0.0,0.0,0.0,0.0,0.0,0.0,0.0,0.0,0.0,0.0,0.0,2.3457,2.2949,0.0,0.0,0.0,0.0,0.0,0.0,0.0,0.0,0.0,0.0,0.0,2.6133,2.6152,0.0,0.0,0.0,0.0,0.0,0.0,0.0,0.0,0.0,0.0,0.0,0.0,2.8259,2.9362,3.3954,3.6405,3.6405,3.6405,3.6405,3.6405,3.6405,3.5625,3.3947,0.0,0.0,0.0,0.0,0.0,0.0,0.0,0.0,0.0,0.0,0.0,0.0,0.0,0.0,0.0,0.0,0.0,0.0,0.0,0.0,0.0,0.0,0.0,0.0,0.0,2.5686,0.0,0.0,0.0,0.0,0.0,0.0,0.0,0.0,0.0,0.0,0.0,2.9829,3.0733,3.1486,3.2139,3.2717,3.2943,3.3136,0.0,0.0,0.0,0.0,0.0,0.0,0.0,0.0,0.0,0.0,0.0,0.0,0.0,0.0,3.1436,2.9804,2.89,2.8323,2.8147,0.0,0.0,0.0,0.0,0.0,0.0,0.0,0.0,0.0,0.0,0.0,0.0,0.0,0.0,2.5,0.0,2.4629,0.0,0.0,0.0,0.0,0.0,0.0,0.0,0.0,2.6621,2.7383,2.7891,2.7891,2.7676,0.0,2.7783,2.633,0.0,0.0,0.0,0.0,0.0,0.0,0.0,0.0,2.8818,2.9862,3.4107,3.6405,3.6405,3.6405,3.6405,3.6405,3.6405,3.5902,3.4801,3.2817,3.137,0.0,0.0,0.0,0.0,0.0,0.0,0.0,0.0,0.0,0.0,0.0,0.0,0.0,0.0,0.0,0.0,0.0,0.0,0.0,0.0,0.0,0.0,0.0,2.6449,0.0,0.0,0.0,0.0,0.0,0.0,0.0,0.0,0.0,2.7871,2.9628,3.1085,3.1612,3.2164,3.2641,3.3018,0.0,0.0,0.0,0.0,0.0,0.0,0.0,3.2039,3.219,3.1512,3.0934,3.0884,3.1486,3.1838,3.1461,0.0,0.0,3.1251,3.0306,2.9779,2.9779,2.9478,2.9126,2.875,2.8699,2.8599,0.0,0.0,0.0,0.0,0.0,0.0,0.0,0.0,2.707,2.6602,0.0,2.6289,0.0,0.0,0.0,0.0,0.0,2.6367,0.0,0.0,2.9802,3.0391,2.9685,2.959,2.9375,2.8965,2.8716,2.7924,2.6754,2.8639,0.0,0.0,0.0,0.0,0.0,0.0,2.9748,3.0507,3.4338,3.6405,3.6405,3.6405,3.6405,3.6405,3.6405,3.6405,3.6355,3.4801,3.3922,3.3822,3.0331,0.0,0.0,0.0,0.0,0.0,0.0,0.0,0.0,0.0,0.0,0.0,0.0,0.0,0.0,0.0,0.0,0.0,0.0,0.0,0.0,2.7027,0.0,0.0,0.0,0.0,0.0,0.0,0.0,0.0,0.0,0.0,2.9063,3.0457,3.1637,3.2164,0.0,0.0,0.0,0.0,3.3136,3.3136,3.3136,3.2893,3.234,3.2692,3.2842,3.234,0.0,0.0,3.1637,3.234,3.2759,3.1662,3.2365,3.3136,3.3061,3.2114,3.1436,3.1411,3.0633,2.9955,2.9905,2.9955,2.988,2.8027,0.0,0.0,0.0,0.0,2.6777,2.748,2.8809,2.8516,2.8242,2.8008,2.8125,0.0,0.0,0.0,0.0,0.0,0.0,2.7578,2.8574,2.9199,2.9844,3.0508,3.0508,3.0449,3.037,3.2364,3.2563,3.1366,3.409,3.1321,2.3271,0.0,0.0,0.0,0.0,3.0735,3.2479,3.5048,3.6405,3.6405,3.6405,3.6405,3.6405,3.6405,3.6405,3.6405,3.5952,3.5148,3.3947,3.2842,0.0,0.0,0.0,0.0,0.0,0.0,0.0,0.0,0.0,0.0,0.0,0.0,0.0,0.0,0.0,0.0,0.0,0.0,0.0,2.6449,2.8083,2.8323,0.0,0.0,0.0,0.0,0.0,0.0,0.0,0.0,0.0,3.0783,3.1788,3.2641,0.0,0.0,3.3136,3.3136,3.3136,3.3136,3.3136,0.0,0.0,0.0,3.2616,3.2541,3.2792,3.2968,3.3011,3.2667,3.291,3.3011,3.2641,3.2842,3.3136,3.3111,3.2842,3.2634,3.2566,3.234,3.2139,3.2114,3.1813,3.1386,2.9961,2.873,2.7891,2.7871,2.8432,2.8144,2.8828,3.0078,2.9824,2.9609,2.9434,2.9629,2.8887,2.75,2.7168,0.0,0.0,0.0,2.8457,2.9687,2.9707,3.0438,3.169,3.117,3.1228,3.1825,3.3586,3.3957,3.3113,3.4841,3.2472,2.6262,0.0,0.0,2.7353,3.0009,3.2131,3.3617,3.549,3.6405,3.6405,3.6405,3.6405,3.6405,3.6405,3.6405,3.6405,3.6405,3.5952,3.4972,3.4248,3.2742,0.0,0.0,0.0,0.0,0.0,0.0,0.0,0.0,0.0,0.0,0.0,2.5184,0.0,0.0,0.0,0.0,2.7318,2.7745,2.8072,2.9126,0.0,0.0,0.0,0.0,0.0,0.0,0.0,3.0708,3.1813,3.2441,3.2114,3.2684,3.3136,3.3136,3.3136,3.3136,3.3136,0.0,3.3136,3.3136,3.3136,3.3136,3.3111,3.2792,3.2667,3.3018,3.3136,3.3136,3.3136,3.3136,3.3136,3.3136,3.3136,3.3136,3.3136,3.3136,3.3136,3.3111,3.2893,3.2742,3.2717,3.229,3.1763,3.1582,3.1348,2.9375,2.8984,2.9668,2.9724,3.0137,3.0879,3.0879,3.0644,3.0293,3.0703,3.0,2.8457,2.7676,0.0,2.9082,2.9082,2.9726,3.0898,3.0898,3.1614,3.2871,3.1556,3.1594,3.2907,3.3077,3.3134,3.3071,3.2738,3.188,3.0815,3.2465,3.2301,3.042,3.2297,3.3642,3.4304,3.5715,3.6405,3.6405,3.6405,3.6405,3.6405,3.6405,3.6405,3.6405,3.6405,3.6405,3.6355,3.4926,3.3822,3.3093,0.0,0.0,0.0,0.0,0.0,0.0,0.0,0.0,0.0,0.0,0.0,0.0,0.0,0.0,0.0,3.0105,0.0,3.0834,3.0382,0.0,0.0,0.0,3.0206,3.0809,3.1788,3.2416,3.2416,0.0,0.0,3.3187,0.0,3.3136,3.3136,3.3136,3.3136,3.3136,3.3136,3.3136,3.3136,3.3136,3.3136,3.3136,3.3086,3.3086,3.3111,3.3136,3.3136,3.3136,3.3136,3.3136,3.3136,3.3136,3.3136,3.3136,3.3136,3.3136,3.3136,3.2692,3.2315,3.234,3.2014,3.1637,3.2109,3.1484,3.0957,3.0684,3.0566,3.0586,3.0703,3.0898,3.0898,3.082,3.0742,3.084,3.0664,3.0254,3.0059,3.0137,3.043,3.043,3.0586,3.0879,3.0898,3.1112,3.1383,3.1054,3.1054,3.1498,3.253,3.3134,3.3184,3.4328,3.4131,3.2686,3.3237,3.2653,3.0947,3.2875,3.4545,3.5815,3.6232,3.6405,3.6405,3.6405,3.6405,3.6405,3.6405,3.6405,3.6405,3.6405,3.6405,3.6405,3.6028,3.5198,3.3746,3.1235,0.0,0.0,0.0,0.0,0.0,0.0,0.0,0.0,0.0,2.6716,2.4381,0.0,2.7595,0.0,3.1461,3.2943,3.2541,3.2742,0.0,0.0,3.1712,3.2014,3.2993,3.3721,3.4123,3.4123,3.4248,3.4173,3.3771,3.3319,3.3136,3.3136,3.3136,3.3136,3.3136,3.3136,3.3136,3.3136,3.3136,3.3136,3.3136,3.3136,3.3136,3.3136,3.3136,3.3136,3.3136,3.3136,3.3136,3.3136,3.3136,3.3136,3.3136,3.3136,3.3136,3.3111,3.2968,3.2867,3.2867,3.2784,3.2541,3.2246,3.1777,3.1406,3.1094,3.0898,3.0898,3.0898,3.0898,3.0898,3.0898,3.0898,3.0898,3.0898,3.0898,3.0898,3.0898,3.0898,3.0898,3.0898,3.0898,3.0898,3.1286,3.1825,3.1228,3.1228,3.1883,3.268,3.3134,3.317,3.4131,3.4111,3.3202,3.3481,3.3147,3.2252,3.2888,3.3851,3.4999,3.5481,3.5918,3.6405,3.6405,3.6179,3.5655,3.5629,3.5403,3.4972,3.4947,3.4947,3.4947,3.465,3.4268,3.352,3.121,2.9428,0.0,0.0,0.0,0.0,0.0,0.0,0.0,0.0,0.0,0.0,0.0,2.875,2.9628,3.2466,3.3822,3.2792,3.342,3.3746,3.3326,3.3502,3.4048,3.4901,3.5253,3.5353,3.5082,3.5031,3.4731,3.3997,3.3646,3.3345,3.3119,3.3136,3.3136,3.3136,3.3136,3.3136,3.3136,3.3136,3.3136,3.3136,3.3136,3.3136,3.3136,3.3136,3.3136,3.3136,3.3136,3.3136,3.3136,3.3136,3.3136,3.3136,3.3136,3.3136,3.3136,3.3136,3.3136,3.3136,3.3136,3.2918,3.2287,3.209,3.1309,3.0937,3.0898,3.0898,3.0898,3.0898,3.0898,3.0898,3.0898,3.0898,3.0898,3.0898,3.0898,3.0898,3.0898,3.0898,3.0898,3.0898,3.0898,3.1614,3.2758,3.1498,3.1536,3.2815,3.2815,3.2907,3.3134,3.324,3.3233,3.3239,3.3568,3.369,3.3503,3.2655,3.27,3.3685,3.447,3.5335,3.6232,3.6229,3.5705,3.4776,3.4605,3.4173,3.3244,3.3162,3.3136,3.3111,3.2591,3.2616,3.3194,3.0783,2.9603,0.0,2.8209,0.0,0.0,0.0,0.0,0.0,0.0,0.0,0.0,3.0131,3.0432,3.0984,3.3269,3.4173,3.2867,3.3646,3.4399,3.4876,3.5353,3.5855,3.6355,3.6405,3.6182,3.5658,3.5533,3.5107,3.4173,3.3947,3.3696,3.3194,3.3136,3.3136,3.3136,3.3136,3.3136,3.3136,3.3136,3.3136,3.3136,3.3136,3.3136,3.3136,3.3136,3.3136,3.3136,3.3136,3.3136,3.3136,3.3136,3.3136,3.3136,3.3136,3.3136,3.3136,3.3136,3.3086,3.3011,3.3061,3.2867,3.248,3.2129,3.1621,3.1191,3.0898,3.0898,3.0898,3.0898,3.0898,3.0898,3.0898,3.0898,3.0898,3.0898,3.0898,3.0898,3.0898,3.0898,3.0898,3.0898,3.0898,3.1054,3.1267,3.1054,3.1073,3.1325,3.1325,3.194,3.3113,3.3823,3.4029,3.3843,3.4166,3.3918,3.3105,0.0,0.0,0.0,3.5519,3.544,3.5633,3.5253,3.4951,3.468,3.4299,0.0,3.3746,3.3363,3.3136,3.3111,3.2968,0.0,0.0,0.0,0.0,0.0,0.0,0.0,0.0,0.0,0.0,0.0,3.111,3.0758,3.1085,3.1938,3.2667,3.3244,3.4173,3.4977,3.5529,3.5801,3.5977,3.6078,3.6132,3.6304,3.6405,3.6405,3.6355,3.6207,3.583,3.5257,3.463,3.4198,3.3696,3.3262,3.3136,3.3136,3.3136,3.3136,3.3136,3.3136,3.3136,3.3136,3.3136,3.3136,3.3136,3.3136,3.3136,3.3136,3.3136,3.3136,3.3136,3.3111,3.3136,3.3111,3.3111,3.3136,3.3061,3.3111,3.3111,3.2943,3.2491,3.2742,3.281,3.2363,0.0,3.1484,3.1094,0.0,3.0898,3.0898,3.0898,3.0898,3.0898,3.0898,3.0898,3.0898,3.0898,3.0898,3.0898,3.0898,3.0898,3.0898,3.0898,3.0898,3.0898,3.0898,3.0898,3.0898,3.0898,3.0898,3.1267,3.2015,3.2224,3.2238,3.2096,3.2537,3.2527,3.2079,3.2868,3.4054,3.5603,3.5282,3.5401,3.5931,3.568,3.5278,3.468,0.0,0.0,0.0,0.0,0.0,0.0,0.0,0.0,0.0,0.0,0.0,3.3061,3.229,3.2064,3.2591,3.2599,3.3119,3.4148,3.3997,3.3539,3.2717,3.3897,3.4871,3.5123,3.5378,3.5755,3.6329,3.6405,3.6405,3.6405,3.6405,3.6405,3.6405,3.6405,3.6405,3.6405,3.6132,3.573,3.5203,3.465,3.4098,3.3571,3.3244,3.3136,3.3136,3.3136,3.3136,3.3136,3.3136,3.3136,3.3136,3.3136,3.3136,3.3136,3.3136,3.3136,3.3136,3.3136,3.3136,3.3111,3.291,3.2667,3.2616,3.2441,3.2282,3.2282,3.2282,3.2064,3.1587,3.2064,3.2416,3.2346,3.2207,3.1348,3.0996,3.0996,3.0918,3.0898,3.0898,0.0,0.0,0.0,3.0898,3.0898,3.0898,3.0898,3.0898,3.0898,3.0898,3.0898,3.0898,3.0898,3.0898,3.0898,3.0898,3.0898,3.0898,3.0898,3.1054,3.1267,3.0891,3.0863,3.1103,3.1371,3.1518,3.1767,3.3734,3.4872,3.5073,3.4996,3.5357,3.6207,3.6179,3.5655,3.4705,3.4625,3.4148,3.3269,3.3144,3.3136,3.3111,3.2616,3.2667,3.3294,3.2918,3.2943,3.3639,3.3715,3.4048,3.4951,3.5027,3.5403,3.6355,3.6405,3.5827,3.4424,3.5625,3.6405,3.6405,3.6405,3.6405,3.6405,3.6405,3.6405,3.6405,3.6405,3.6405,3.6405,3.6405,3.6405,3.6405,3.6232,3.6006,3.5382,3.4831,3.4374,3.3822,3.3319,3.3136,3.3136,3.3136,3.3136,3.3136,3.3136,3.3136,3.3136,3.3136,3.3136,3.3136,3.3136,3.3136,3.3136,3.3136,3.3136,3.3136,3.2616,3.229,3.219,3.1838,3.1411,3.1386,3.1386,3.126,3.0959,3.1361,3.1687,3.2695,3.2637,3.1777,3.1426,3.1406,3.1035,3.0898,3.0898,3.0898,3.0898,3.0898,3.0898,3.0898,3.0898,3.0898,3.0898,3.0898,3.0898,3.0898,0.0,3.0898,3.0898,3.0898,3.0898,3.0898,3.0898,3.0898,3.1536,3.2623,3.2675,3.3311,3.4274,3.3817,3.3501,3.3986,3.5404,3.6118,3.6185,3.5662,3.5487,3.5608,3.5157,3.4876,3.47,3.4299,3.3947,3.3796,3.337,3.3136,3.3111,3.2993,3.342,3.4399,3.4399,3.4826,3.5852,3.5952,3.6028,3.6153,3.6179,3.6254,3.638,3.6405,3.6304,3.6103,3.6254,3.6405,3.6405,3.6405,3.6405,3.6405,3.6405,3.6405,3.6405,3.6405,3.6405,3.6405,3.6405,3.6405,3.6355,3.5931,3.5479,3.4906,3.4399,3.3872,3.337,3.3194,3.3136,3.3136,3.3136,3.3136,3.3136,3.3136,3.3136,3.3136,3.3136,3.3136,3.3136,3.3136,3.3136,3.3136,3.3136,3.3136,3.3136,3.2566,3.2215,3.2164,3.1763,3.1361,3.126,3.126,3.1235,3.1085,3.1035,3.0708,3.2656,3.2402,3.1777,3.1387,3.1172,3.0957,3.0898,3.0898,3.0898,3.0898,3.0898,3.0898,3.0898,3.0898,3.0898,3.0898,3.0898,3.0898,3.0898,3.0898,3.0898,3.0898,3.0898,3.0898,3.0898,3.0898,3.0898,3.1267,3.1862,3.162,3.1855,3.249,3.1863,3.1945,3.2849,3.3277,3.417,3.5576,3.5854,3.6006,3.5981,3.573,3.5604,3.5604,3.5399,3.5228,3.5273,3.5047,3.4896,3.4896,3.4921,3.5102,3.5579,3.5604,3.583,3.638,3.6405,3.6405,3.6405,3.6405,3.6405,3.6405,3.6405,3.6405,3.6405,3.6405,3.6405,3.6405,3.6405,3.6405,3.6405,3.6405,3.6405,3.6405,3.6405,3.6405,3.6405,3.6405,3.6304,3.5956,3.5658,3.5307,3.4756,3.4248,3.3847,3.3545,3.3319,3.3136,3.3136,3.3136,3.3136,3.3136,3.3136,3.3136,3.3136,3.3136,3.3136,3.3136,3.3136,3.3136,3.3136,3.3136,3.3136,3.3061,3.239,3.1838,3.1763,3.106,3.0633,3.0532,3.0532,3.0532,3.0482,3.0306,3.008,3.2695,3.2285,3.1855,3.1367,3.0898,3.0898,3.0898,3.0898,3.0898,3.0898,3.0898,3.0898,3.0898,3.0898,3.0898,3.0898,3.0898,3.0898,3.0898,3.0898,3.0898,3.0898,3.0898,3.0898,3.0898,3.0898,3.0898,3.0898,3.084,3.0527,3.0293,3.0233,3.0181,3.0686,3.1563,3.1497,3.2501,3.4447,3.5186,3.581,3.6358,3.6405,3.6405,3.6405,3.6405,3.6405,3.6405,3.6405,3.6405,3.6405,3.6405,3.6405,3.6405,3.6405,3.6405,3.6405,3.6405,3.6405,3.6405,3.6405,3.6405,3.6405,3.6405,3.6405,3.6405,3.6405,3.6405,3.6405,3.6405,3.6405,3.6405,3.6405,3.6405,3.6405,3.6405,3.6405,3.6405,3.6405,3.6279,3.5805,3.5483,3.5132,3.4705,3.4123,3.3696,3.3596,3.3345,3.3136,3.3136,3.3136,3.3136,3.3136,3.3136,3.3136,3.3136,3.3136,3.3136,3.3136,3.3136,3.3136,3.3136,3.3136,3.3136,3.3011,3.2164,3.1537,3.1336,3.0557,2.998,2.9905,2.993,2.9854,2.988,2.9854,2.9804,3.3105,3.2695,3.2307,3.1641,3.0918,3.0898,3.0898,3.0898,3.0898,3.0898,3.0898,3.0898,3.0898,3.0898,3.0898,3.0898,3.0898,3.0898,3.0898,3.0898,3.0898,3.0898,3.0898,3.0898,3.0898,3.0898,3.0898,3.0898,3.0898,3.084,3.0605,3.0406,3.134,3.1726,3.1713,3.2345,3.2886,3.3173,3.2831,3.3897,3.6263,3.6405,3.6405,3.6405,3.6405,3.6405,3.6405,3.6405,3.6405,3.6405,3.6405,3.6405,3.6405,3.6405,3.6405,3.6405,3.6405,3.6405,3.6405,3.6405,3.6405,3.6405,3.6405,3.6405,3.6405,3.6405,3.6405,3.6405,3.6405,3.6405,3.6405,3.6405,3.6405,3.6405,3.6405,3.6405,3.6405,3.6405,3.638,3.6307,3.5403,3.4731,3.46,3.3822,3.3262,3.3287,3.3169,3.3136,3.3136,3.3136,3.3136,3.3136,3.3136,3.3136,3.3136,3.3136,3.3136,3.3136,3.3136,3.3136,3.3136,3.3136,3.3136,3.3011,3.2215,3.1537,3.1235,3.0557,2.988,2.988,2.9854,2.9779,2.9779,2.9779,2.9779,3.2422,3.2031,3.1855,3.1445,3.0918,3.0898,3.0898,3.0898,3.0898,3.0898,3.0898,3.0898,3.0898,3.0898,3.0898,3.0898,3.0898,3.0898,3.0898,3.0898,3.0898,3.0898,3.0898,3.0898,3.0898,3.0898,3.0898,3.0898,3.0898,3.0898,3.0801,3.0683,3.1199,3.1328,3.1184,3.1052,3.1366,3.2126,3.1447,3.2079,3.3798,3.4824,3.521,3.5307,3.5978,3.6405,3.6405,3.6405,3.6405,3.6405,3.6405,3.6405,3.6405,3.6405,3.6405,3.6405,3.6405,3.6405,3.6405,3.6405,3.6405,3.6405,3.6405,3.6405,3.6405,3.6405,3.6405,3.6405,3.6405,3.6405,3.6405,3.6405,3.6405,3.6405,3.6405,3.6405,3.6405,3.6405,3.6304,3.5906,3.5157,3.4575,3.4223,3.3571,3.3162,3.3136,3.3136,3.3136,3.3136,3.3136,3.3136,3.3136,3.3136,3.3136,3.3136,3.3136,3.3136,3.3136,3.3136,3.3136,3.3136,3.3136,3.3136,3.3136,3.2365,3.1888,3.1913,3.106,3.0281,3.0181,2.993,2.9779,2.9779,2.9779,2.9779,3.2012,3.1543,3.1406,3.1172,3.0898,3.0898,3.0898,3.0898,3.0898,3.0898,3.0898,3.0898,3.0898,3.0898,3.0898,3.0898,3.0898,3.0898,3.0898,3.0898,3.0898,3.0898,3.0898,3.0898,3.0898,3.0898,3.0898,3.0898,3.0898,3.0898,3.0898,3.0898,3.0898,3.0898,3.082,3.0117,3.0171,3.0888,3.0278,3.035,3.1308,3.2555,3.3453,3.3871,3.4751,3.5451,3.5858,3.5858,3.6001,3.6405,3.6405,3.6405,3.6405,3.6405,3.6405,3.6405,3.6405,3.6405,3.6405,3.6405,3.6405,3.6405,3.6405,3.6405,3.6405,3.6405,3.6405,3.6405,3.6405,3.6405,3.6405,3.6405,3.6405,3.6405,3.6405,3.6405,3.6405,3.6405,3.6279,3.578,3.5157,3.4449,3.3796,3.3319,3.3136,3.3136,3.3136,3.3136,3.3136,3.3136,3.3136,3.3136,3.3136,3.3136,3.3136,3.3136,3.3136,3.3136,3.3136,3.3136,3.3136,3.3136,3.3136,3.3061,3.2541,3.219,3.2014,3.1336,3.0507,3.0357,3.008,2.9779,2.9779,2.9779,2.9779,3.2285,3.1504,3.1094,3.0976,3.0898,3.0918,3.0898,3.0937,3.0898,3.0898,3.0898,3.0898,3.0898,3.0898,3.0898,3.0898,3.0898,3.0898,3.0898,3.0898,3.0898,3.0898,3.0898,3.0898,3.0898,3.0898,3.0898,3.0898,3.0898,3.0898,3.0898,3.0898,3.0898,3.0898,3.082,3.0391,3.0017,2.9869,2.9376,2.8908,2.8767,2.9932,3.1133,3.218,3.2482,3.3254,3.4337,3.4483,3.509,3.631,3.6358,3.6405,3.6405,3.6405,3.6405,3.6405,3.6405,3.6405,3.6405,3.6405,3.6405,3.6405,3.6405,3.6405,3.6405,3.6405,3.6405,3.6405,3.6405,3.6405,3.6405,3.6405,3.6405,3.6405,3.6405,3.6405,3.6405,3.6405,3.6405,3.6204,3.5403,3.4449,3.337,3.3136,3.3136,3.3136,3.3136,3.3136,3.3136,3.3136,3.3136,3.3136,3.3136,3.3136,3.3136,3.3136,3.3136,3.3136,3.3136,3.3136,3.3136,3.3136,3.3136,3.3036,3.2641,3.2315,3.2064,3.1461,3.0608,3.0206,2.998,2.9779,2.9779,2.9779,2.9779,3.1562,3.1523,3.166,3.1719,3.168,3.1426,3.1289,3.1269,3.0996,3.0898,3.0898,3.0898,3.0898,3.0898,3.0898,3.0898,3.0898,3.0898,3.0898,3.0898,3.0898,3.0898,3.0898,3.0898,3.0898,3.0898,3.0898,3.0898,3.0898,3.0898,3.0898,3.0898,3.0898,3.0898,3.082,3.043,3.0117,2.9922,2.9297,2.8848,2.8691,2.89,2.925,2.9807,3.1418,3.2532,3.3055,3.392,3.4629,3.5114,3.5906,3.6405,3.6405,3.6405,3.6405,3.6405,3.6405,3.6405,3.6405,3.6405,3.6405,3.6405,3.6405,3.6405,3.6405,3.6405,3.6405,3.6405,3.6405,3.6405,3.6405,3.6405,3.6405,3.6405,3.6405,3.6405,3.6405,3.6405,3.6405,3.6304,3.568,3.4826,3.3897,3.3596,3.347,3.3187,3.3136,3.3136,3.3136,3.3136,3.3162,3.3136,3.3136,3.3136,3.3136,3.3136,3.3136,3.3136,3.3136,3.3136,3.3136,3.3136,3.3136,3.3136,3.2767,3.2641,3.2416,3.1838,3.0934,3.0181,2.993,2.9905,2.9779,2.9829,2.9804,3.1348,3.1738,3.2051,3.209,3.1934,3.1641,3.1445,3.1289,3.1016,3.0898,3.0898,3.0898,3.0898,3.0918,3.1035,3.0996,3.0898,3.0898,3.0898,3.0898,3.0898,3.0898,3.0898,3.0898,3.0898,3.0898,3.0898,3.0898,3.0898,3.0898,3.0898,3.0898,3.0898,3.0898,3.084,3.0566,3.0371,3.0117,2.9629,2.9277,2.9121,2.8867,2.8633,2.8804,3.0422,3.1603,3.1885,3.278,3.36,3.4167,3.501,3.5624,3.5938,3.6418,3.6581,3.643,3.6405,3.6405,3.6405,3.6405,3.6405,3.6405,3.6405,3.6405,3.6405,3.6405,3.6405,3.6405,3.6405,3.6405,3.6405,3.6405,3.6405,3.6405,3.6405,3.6405,3.6405,3.6405,3.6304,3.6056,3.5755,3.5006,3.4173,3.3947,3.3621,3.3144,3.3136,3.3136,3.3136,3.3287,3.3345,3.3388,3.3395,3.3395,3.3345,3.3269,3.3162,3.3136,3.3136,3.3136,3.3136,3.3136,3.3136,3.3136,3.3086,3.2968,3.2641,3.2089,3.1336,3.0457,3.0206,3.0206,3.0055,2.988,2.9854,3.1797,3.2148,3.2248,3.2031,3.1719,3.1621,3.1309,3.1016,3.0918,3.0898,3.0898,3.0898,3.0898,3.0957,3.1211,3.125,3.0937,3.0898,3.0898,3.0898,3.0898,3.0898,3.0898,3.0898,3.0898,3.0898,3.0898,3.0898,3.0898,3.0898,3.0898,3.0898,3.0898,3.0898,3.0879,3.082,3.0644,3.0312,3.0137,2.9941,2.9629,2.9492,2.9277,2.9004,2.9553,3.0213,3.1009,3.118,3.2038,3.3315,3.3675,3.4061,3.4925,3.6113,3.6837,3.6291,3.6358,3.6405,3.6405,3.6405,3.6405,3.6405,3.6405,3.6405,3.6405,3.6405,3.6405,3.6405,3.6405,3.6405,3.6405,3.6405,3.6405,3.6405,3.6405,3.6405,3.6405,3.6405,3.6182,3.578,3.5608,3.5056,3.4299,3.4022,3.3796,3.3345,3.3237,3.3237,3.3312,3.3596,3.3872,3.3897,3.3796,3.3696,3.3596,3.347,3.3244,3.3136,3.3136,3.3136,3.3136,3.3136,3.3136,3.3136,3.3136,3.3036,3.2541,3.2039,3.1838,3.116,3.0909,3.0507,3.0331,3.0131,2.988,3.248,3.2637,3.291,3.2793,3.2383,3.209,3.1719,3.1309,3.1035,3.0898,3.0898,3.0898,3.0898,3.0918,3.1035,3.1016,3.0898,3.0898,3.0898,3.0898,3.0898,3.0918,3.0918,3.0898,3.0898,3.0898,3.0898,3.0898,3.0898,3.0898,3.0898,3.0898,3.0898,3.0898,3.0898,3.0879,3.0781,3.0664,3.0351,3.0117,2.998,2.9726,2.9512,2.9394,2.9567,2.9889,3.0418,3.1072,3.1653,3.2233,3.2845,3.3173,3.3398,3.4501,3.5138,3.5138,3.5906,3.6405,3.6405,3.6383,3.6335,3.6358,3.6383,3.6405,3.6405,3.6358,3.6358,3.6405,3.6405,3.6405,3.6405,3.6405,3.6405,3.6405,3.6405,3.6405,3.6405,3.6405,3.6355,3.6157,3.6107,3.578,3.5152,3.4751,3.4248,3.3746,3.3646,3.3646,3.3721,3.4123,3.4449,3.4449,3.4223,3.4048,3.4022,3.3796,3.347,3.3287,3.3187,3.3136,3.3136,3.3136,3.3136,3.3136,3.3136,3.296,3.2441,3.219,3.2039,3.1612,3.111,3.0809,3.0608,3.0357,3.0055,3.2891,3.3027,3.3144,3.2949,3.2539,3.2109,3.168,3.1289,3.1016,3.0898,3.0918,3.1055,3.1035,3.0976,3.1211,3.1172,3.0937,3.1035,3.1035,3.0937,3.1074,3.1191,3.1289,3.1191,3.1113,3.1094,3.0976,3.0898,3.0898,3.0898,3.0898,3.0898,3.0898,3.0898,3.0898,3.0898,3.0898,3.084,3.0605,3.0449,3.041,3.0195,2.998,2.9844,2.9961,3.0098,3.0252,3.0942,3.135,3.1491,3.2243,3.2516,3.2214,3.3214,3.3834,3.3819,3.4503,3.5113,3.5137,3.5015,3.5137,3.5137,3.4969,3.5162,3.5475,3.5667,3.5763,3.631,3.6405,3.6405,3.6405,3.6405,3.6405,3.6405,3.6405,3.6405,3.6405,3.6405,3.6405,3.638,3.638,3.6081,3.5629,3.5257,3.4756,3.4349,3.4198,3.4198,3.4324,3.4655,3.4856,3.5002,3.4876,3.47,3.455,3.4173,3.3696,3.3445,3.3244,3.3187,3.3136,3.3136,3.3136,3.3136,3.3136,3.3111,3.2692,3.2641,3.2491,3.1913,3.1486,3.1311,3.1135,3.0557,3.0206,3.3066,3.3359,3.3008,3.2656,3.2246,3.1816,3.1426,3.1016,3.0898,3.0898,3.0976,3.1211,3.125,3.1172,3.1641,3.1601,3.1152,3.1387,3.1445,3.1309,3.1465,3.1738,3.1758,3.1543,3.1445,3.1406,3.1133,3.0957,3.0996,3.0918,3.0898,3.0898,3.0898,3.0898,3.0898,3.0898,3.0898,3.0879,3.0859,3.084,3.084,3.084,3.0644,3.0273,3.0586,3.0625,3.0448,3.0739,3.0955,3.0994,3.1666,3.1835,3.1759,3.2503,3.2795,3.2403,3.2788,3.3225,3.3167,3.3475,3.3424,3.3453,3.3169,3.2851,3.4186,3.4384,3.4629,3.5547,3.5763,3.5906,3.5858,3.6073,3.6168,3.6405,3.6405,3.6405,3.6405,3.6405,3.6405,3.6405,3.638,3.6207,3.5658,3.5533,3.5207,3.4906,3.4731,3.4731,3.4831,3.5132,3.5458,3.5458,3.5403,3.5157,3.4956,3.46,3.4148,3.3947,3.3621,3.3319,3.3162,3.3136,3.3136,3.3136,3.3111,3.3111,3.3061,3.296,3.2935,3.2641,3.229,3.2014,3.1562,3.1009,3.0608,3.332,3.3398,3.3301,3.3027,3.2598,3.2187,3.1758,3.1348,3.1035,3.0957,3.0957,3.0996,3.123,3.1387,3.1601,3.1699,3.1797,3.1914,3.2168,3.2305,3.2383,3.1914,3.1445,3.1465,3.1543,3.1523,3.1406,3.1367,3.1328,3.1035,3.0898,3.0898,3.0898,3.0898,3.0898,3.0898,3.0898,3.0898,3.0898,3.0898,3.0898,3.0898,3.084,3.0762,3.082,3.082,3.0723,3.082,3.0723,3.0371,3.03,3.0282,3.0309,3.11,3.1635,3.1859,3.2709,3.3398,3.3346,3.3346,3.3346,3.3406,3.2797,3.2993,3.3277,3.306,3.3078,3.338,3.338,3.3479,3.3601,3.4362,3.521,3.6216,3.6168,3.6216,3.6405,3.6405,3.6405,3.6405,3.6405,3.6304,3.6107,3.5805,3.5483,3.5332,3.5282,3.5282,3.5382,3.568,3.6006,3.5956,3.583,3.5583,3.5307,3.4931,3.465,3.4474,3.4073,3.3571,3.3319,3.3136,3.3136,3.3136,3.3136,3.3111,3.3111,3.3061,3.3111,3.3136,3.2692,3.2215,3.1989,3.1562,3.126,3.3418,3.3398,3.3223,3.3027,3.2754,3.2344,3.2012,3.1777,3.1543,3.1426,3.1465,3.1621,3.1719,3.1797,3.1973,3.207,3.2168,3.2229,3.2285,3.2522,3.248,3.2187,3.1816,3.1836,3.1797,3.1758,3.1601,3.1523,3.1426,3.1094,3.0918,3.0898,3.0898,3.0898,3.0898,3.0898,3.0898,3.0898,3.0898,3.0898,3.0898,3.0898,3.0898,3.0898,3.0898,3.0898,3.0898,3.0898,3.0762,3.0469,3.0098,2.9844,2.9861,3.0169,3.054,3.0805,3.1642,3.2129,3.2184,3.2184,3.2184,3.2099,3.1815,3.1923,3.2144,3.2006,3.1826,3.2616,3.2415,3.2303,3.2431,3.3055,3.3798,3.441,3.4703,3.5138,3.6216,3.5883,3.5906,3.6168,3.6405,3.6405,3.6405,3.6056,3.5931,3.5881,3.5881,3.5881,3.5931,3.6279,3.6405,3.6254,3.6157,3.5981,3.5906,3.5604,3.5203,3.5002,3.46,3.4048,3.3545,3.3287,3.3237,3.3237,3.3162,3.3136,3.3187,3.3187,3.3136,3.3011,3.2667,3.2466,3.224,3.2114,3.1813,3.3418,3.3398,3.3008,3.2851,3.2812,3.2422,3.2266,3.2226,3.2129,3.215,3.2148,3.2519,3.2383,3.2246,3.25,3.2598,3.2344,3.2422,3.2383,3.2441,3.2422,3.2383,3.2578,3.2324,3.2187,3.207,3.1738,3.1641,3.1523,3.1172,3.0918,3.0898,3.0898,3.0898,3.0898,3.0898,3.0898,3.0898,3.0898,3.0898,3.0898,3.0898,3.0898,3.0898,3.0898,3.0898,3.0898,3.0898,3.0859,3.0879,3.0449,3.0215,3.0176,2.992,2.9839,2.9993,3.0418,3.0653,3.0425,3.0653,3.0482,3.0594,3.0201,3.0111,3.1093,3.1087,3.119,3.2066,3.2171,3.1907,3.2059,3.2145,3.2331,3.2682,3.2582,3.365,3.521,3.5114,3.4872,3.6026,3.6216,3.6405,3.6405,3.6405,3.638,3.6132,3.6182,3.6182,3.6157,3.6329,3.6405,3.638,3.6355,3.638,3.6355,3.6304,3.5855,3.5458,3.5056,3.4555,3.3922,3.3596,3.3445,3.3395,3.3495,3.3445,3.3319,3.3269,3.3187,3.3086,3.291,3.2667,3.2491,3.2466,3.229,3.3418,3.3418,3.332,3.3281,3.3223,3.2851,3.2656,3.2637,3.2385,3.2246,3.2207,3.2305,3.248,3.2656,3.2793,3.291,3.3066,3.3066,3.3164,3.3105,3.2793,3.2715,3.2793,3.2676,3.25,3.2246,3.209,3.2012,3.1855,3.1289,3.0898,3.0898,3.0898,3.0898,3.0898,3.0898,3.0898,3.0898,3.0898,3.0898,3.0898,3.0898,3.0898,3.0898,3.0898,3.0898,3.0898,3.0898,3.0898,3.0781,3.0508,3.0391,3.0547,3.0293,3.0215,3.0449,3.0605,3.0723,3.0742,3.0703,3.0742,3.0644,3.0312,3.0172,3.0359,3.0207,3.0098,3.0333,3.0233,3.0653,3.1159,3.0934,3.1219,3.1761,3.2196,3.2878,3.4313,3.4581,3.4629,3.5066,3.5858,3.6405,3.6405,3.6405,3.6405,3.6405,3.6405,3.6405,3.6405,3.6405,3.6405,3.6405,3.6405,3.6405,3.6405,3.6405,3.6132,3.5906,3.5579,3.5328,3.465,3.4324,3.4274,3.4148,3.3997,3.3847,3.3621,3.3345,3.3262,3.3187,3.3136,3.296,3.2792,3.2792,3.2742,3.3418,3.3418,3.3418,3.3418,3.3379,3.3184,3.3086,3.3047,3.2871,3.2754,3.2754,3.2754,3.2891,3.3066,3.3086,3.3223,3.3379,3.3418,3.3418,3.3359,3.3164,3.2988,3.2871,3.2949,3.2871,3.248,3.2226,3.2229,3.1953,3.1406,3.0898,3.0898,3.0898,3.0898,3.0898,3.0898,3.0898,3.0898,3.0898,3.0898,3.0898,3.0898,3.0898,3.0898,3.0898,3.0898,3.0898,3.0898,3.0898,3.082,3.0664,3.0605,3.082,3.0664,3.0684,3.082,3.0898,3.0898,3.0898,3.0898,3.0879,3.0898,3.0644,3.0566,3.043,3.0117,2.9883,2.9805,2.978,2.9877,3.0261,3.0188,3.0405,3.0611,3.1352,3.1936,3.2572,3.3575,3.4727,3.5235,3.6073,3.631,3.6405,3.6405,3.6405,3.6405,3.6405,3.6405,3.6405,3.6405,3.6405,3.6405,3.6405,3.6405,3.6405,3.638,3.6329,3.6157,3.6031,3.5881,3.5604,3.5403,3.5278,3.4951,3.4525,3.4148,3.3897,3.3596,3.3319,3.3212,3.3136,3.3136,3.3086,3.3011,3.2986,3.3418,3.3418,3.3418,3.3418,3.3418,3.3398,3.3398,3.3398,3.3418,3.332,3.3398,3.3418,3.332,3.3398,3.3379,3.3398,3.3418,3.3418,3.3418,3.3398,3.3379,3.3203,3.3066,3.3184,3.3203,3.2851,3.25,3.2324,3.209,3.1523,3.1211,3.1055,3.1016,3.0996,3.0937,3.0898,3.0898,3.0898,3.0898,3.0898,3.0898,3.0898,3.0898,3.0898,3.0898,3.0898,3.0898,3.0898,3.0898,3.0898,3.0898,3.0898,3.0898,3.0898,3.0898,3.0898,3.0898,3.0898,3.0898,3.0898,3.0898,3.0898,3.0879,3.0879,3.0762,3.0547,3.0371,3.0176,3.0057,2.9763,2.9724,2.9715,2.9482,2.954,3.0342,3.0778,3.1114,3.2909,3.4917,3.5571,3.6073,3.6358,3.6405,3.6405,3.6405,3.6405,3.6405,3.6405,3.6405,3.6405,3.6405,3.6405,3.6405,3.6405,3.6405,3.6405,3.6355,3.6329,3.6329,3.6304,3.6254,3.6078,3.5755,3.5353,3.4951,3.465,3.4299,3.3972,3.3671,3.3363,3.3136,3.3136,3.3136,3.3136,3.3136,3.3418,3.3418,3.3418,3.3418,3.3418,3.3418,3.3418,3.3418,3.3418,3.3418,3.3418,3.3418,3.3418,3.3418,3.3418,3.3418,3.3418,3.3418,3.3418,3.3418,3.3418,3.332,3.332,3.334,3.3359,3.3223,3.2891,3.2695,3.2559,3.2207,3.1699,3.1465,3.1367,3.125,3.1016,3.0898,3.0898,3.0898,3.0898,3.0898,3.0898,3.0898,3.0898,3.0898,3.0898,3.0898,3.0898,3.0898,3.0898,3.0898,3.0898,3.0898,3.0898,3.0898,3.0898,3.0898,3.0898,3.0898,3.0898,3.0898,3.0898,3.0898,3.0898,3.0898,3.0879,3.082,3.0703,3.0625,3.0371,3.0098,3.0078,2.9883,2.9665,2.9786,3.0553,3.1395,3.1827,3.3562,3.5168,3.5332,3.584,3.648,3.6556,3.6556,3.6505,3.648,3.6405,3.6405,3.6405,3.6405,3.6405,3.6405,3.6405,3.6405,3.6405,3.6405,3.638,3.638,3.638,3.638,3.6355,3.638,3.6153,3.5755,3.5529,3.5282,3.4926,3.4449,3.4022,3.3646,3.337,3.3136,3.3136,3.3136,3.3136,3.3418,3.3418,3.3418,3.3418,3.3418,3.3418,3.3418,3.3418,3.3418,3.3418,3.3418,3.3418,3.3418,3.3418,3.3418,3.3418,3.3418,3.3418,3.3418,3.3418,3.3418,3.3418,3.3418,3.3418,3.3418,3.3359,3.3203,3.2988,3.2754,3.2363,3.207,3.1855,3.166,3.1406,3.1211,3.0996,3.0918,3.0898,3.0898,3.0898,3.0898,3.0898,3.0898,3.0898,3.0898,3.0898,3.0898,3.0898,3.0898,3.0898,3.0898,3.0898,3.0898,3.0898,3.0898,3.0898,3.0898,3.0898,3.0898,3.0898,3.0898,3.0898,3.0898,3.0898,3.0898,3.0879,3.0898,3.084,3.0781,3.0547,3.0547,3.0332,3.0156,3.0167,3.1075,3.167,3.2264,3.4275,3.4806,3.5064,3.6283,3.692,3.6883,3.6832,3.6681,3.6556,3.648,3.648,3.6531,3.6581,3.6631,3.648,3.648,3.6405,3.6405,3.6405,3.6405,3.6405,3.6405,3.6405,3.6405,3.6405,3.6405,3.6254,3.6031,3.583,3.5332,3.4851,3.4424,3.3947,3.352,3.3237,3.3162,3.3136,3.3136,3.3418,3.3418,3.3418,3.3418,3.3418,3.3418,3.3418,3.3418,3.3418,3.3418,3.3418,3.3418,3.3418,3.3418,3.3418,3.3418,3.3418,3.3418,3.3418,3.3418,3.3418,3.3418,3.3418,3.3418,3.3418,3.3418,3.3379,3.3242,3.2988,3.2676,3.2383,3.209,3.1777,3.1504,3.1328,3.1016,3.0918,3.0898,3.0898,3.0898,3.0898,3.0898,3.0898,3.0898,3.0898,3.0898,3.0898,3.0898,3.0898,3.0898,3.0898,3.0898,3.0898,3.0898,3.0898,3.0898,3.0898,3.0898,3.0898,3.0898,3.0898,3.0898,3.0898,3.0898,3.0898,3.0898,3.0898,3.0898,3.0879,3.084,3.082,3.0859,3.0684,3.0622,3.1184,3.1926,3.2162,3.3258,3.4516,3.5335,3.6753,3.7219,3.7121,3.7337,3.7236,3.7186,3.7159,3.7086,3.7111,3.7059,3.7008,3.6707,3.6556,3.6455,3.6405,3.6405,3.6405,3.6405,3.6405,3.6405,3.6405,3.6405,3.6405,3.6405,3.638,3.6081,3.5655,3.5207,3.4826,3.4299,3.3671,3.3312,3.3212,3.3136,3.3136,3.3418,3.3418,3.3418,3.3418,3.3418,3.3418,3.3418,3.3418,3.3418,3.3418,3.3418,3.3418,3.3418,3.3418,3.3418,3.3418,3.3418,3.3418,3.3418,3.3418,3.3418,3.3418,3.3418,3.3418,3.3418,3.3418,3.3418,3.3398,3.3262,3.3203,3.2832,3.2324,3.207,3.1758,3.1172,3.0976,3.0898,3.0898,3.0898,3.0898,3.0898,3.0898,3.0898,3.0898,3.0898,3.0898,3.0898,3.0898,3.0898,3.0898,3.0898,3.0898,3.0898,3.0898,3.0898,3.0898,3.0898,3.0898,3.0898,3.0898,3.0898,3.0898,3.0898,3.0898,3.0898,3.0898,3.0898,3.0898,3.0898,3.0898,3.0898,3.0898,3.084,3.0859,3.1031,3.1224,3.1391,3.2643,3.3879,3.4415,3.5512,3.6709,3.7241,3.7618,3.7889,3.7839,3.774,3.7517,3.7245,3.6727,3.6383,3.5868,3.5576,3.5454,3.5186,3.5403,3.5523,3.5787,3.6073,3.6073,3.6073,3.6026,3.6405,3.6405,3.6405,3.6405,3.6056,3.5655,3.5228,3.4751,3.4198,3.3646,3.3212,3.3187,3.3262,3.3418,3.3418,3.3418,3.3418,3.3418,3.3418,3.3418,3.3418,3.3418,3.3418,3.3418,3.3418,3.3418,3.3418,3.3418,3.3418,3.3418,3.3418,3.3418,3.3418,3.3418,3.3418,3.3418,3.3418,3.3418,3.3418,3.3418,3.3418,3.3418,3.3359,3.3066,3.2559,3.2246,3.1894,3.125,3.0996,3.0918,3.0898,3.0898,3.0898,3.0898,3.0898,3.0898,3.0898,3.0898,3.0898,3.0898,3.0898,3.0898,3.0898,3.0898,3.0898,3.0898,3.0898,3.0898,3.0898,3.0898,3.0898,3.0898,3.0898,3.0898,3.0898,3.0898,3.0898,3.0898,3.0898,3.0898,3.0898,3.0898,3.0898,3.0898,3.0898,3.0898,3.0898,3.0898,3.0898,3.1228,3.2322,3.3367,3.3767,3.4215,3.5242,3.5964,3.5853,3.5954,3.605,3.5876,3.5675,3.5324,3.4899,3.4671,3.4447,3.4237,3.4097,3.3741,3.3627,3.3697,3.4066,3.492,3.5066,3.5379,3.5523,3.593,3.6263,3.6358,3.6405,3.638,3.5981,3.5408,3.5056,3.4705,3.4274,3.3796,3.3621,3.3621,3.3418,3.3418,3.3418,3.3418,3.3418,3.3418,3.3418,3.3418,3.3418,3.3418,3.3418,3.3418,3.3418,3.3418,3.3418,3.3418,3.3418,3.3418,3.3418,3.3418,3.3418,3.3418,3.3418,3.3418,3.3418,3.3418,3.3418,3.3418,3.3418,3.3359,3.3144,3.2656,3.2285,3.1934,3.1582,3.1387,3.1269,3.1113,3.1094,3.1035,3.0918,3.0898,3.0898,3.0898,3.0898,3.0898,3.0898,3.0898,3.0898,3.0898,3.0898,3.0898,3.0898,3.0898,3.0898,3.0898,3.0898,3.0898,3.0898,3.0898,3.0898,3.0898,3.0898,3.0898,3.0898,3.0898,3.0898,3.0898,3.0898,3.0898,3.0898,3.0898,3.0898,3.0898,3.0898,3.0898,3.1054,3.1883,3.2322,3.2436,3.2758,3.3325,3.3809,3.3658,3.3748,3.4088,3.4008,3.3857,3.3835,3.3706,3.3802,3.3847,3.3627,3.3543,3.3288,3.2858,3.2565,3.2532,3.3411,3.3843,3.4089,3.4799,3.5427,3.5763,3.6168,3.6358,3.638,3.6006,3.5633,3.5332,3.5031,3.4856,3.453,3.4324,3.4098,3.3418,3.3418,3.3418,3.3418,3.3418,3.3418,3.3418,3.3418,3.3418,3.3418,3.3418,3.3418,3.3418,3.3418,3.3418,3.3418,3.3418,3.3418,3.3418,3.3418,3.3418,3.3418,3.3418,3.3418,3.3418,3.3418,3.3418,3.3418,3.3398,3.332,3.2891,3.2324,3.2324,3.1953,3.1758,3.1777,3.1641,3.1465,3.1387,3.1191,3.0996,3.0898,3.0898,3.0898,3.0898,3.0898,3.0898,3.0898,3.0898,3.0898,3.0898,3.0898,3.0898,3.0898,3.0898,3.0898,3.0898,3.0898,3.0898,3.0898,3.0898,3.0898,3.0898,3.0898,3.0898,3.0898,3.0898,3.0898,3.0898,3.0898,3.0898,3.0898,3.0898,3.0898,3.0898,3.0898,3.0898,3.1015,3.1325,3.117,3.1498,3.2113,3.2285,3.2251,3.2699,3.3074,3.3406,3.3253,3.3583,3.354,3.3671,3.37,3.3444,3.3343,3.3329,3.2814,3.1995,3.1949,3.2561,3.2654,3.2639,3.3568,3.5114,3.5283,3.5619,3.6026,3.6405,3.6157,3.5931,3.5608,3.5382,3.5282,3.5056,3.4756,3.458,3.3418,3.3418,3.3418,3.3418,3.3418,3.3418,3.3418,3.3418,3.3418,3.3418,3.3418,3.3418,3.3418,3.3418,3.3418,3.3418,3.3418,3.3418,3.3418,3.3418,3.3418,3.3418,3.3418,3.3418,3.3418,3.3418,3.3418,3.3418,3.3398,3.3242,3.2949,3.2617,3.2559,3.2285,3.2148,3.209,3.1914,3.166,3.1504,3.1309,3.0976,3.0898,3.0898,3.0898,3.0898,3.0898,3.0898,3.0898,3.0898,3.0898,3.0898,3.0898,3.0898,3.0898,3.0898,3.0898,3.0898,3.0898,3.0898,3.0898,3.0898,3.0898,3.0898,3.0898,3.0898,3.0898,3.0898,3.0898,3.0898,3.0898,3.0898,3.0898,3.0898,3.0898,3.0898,3.0898,3.0898,3.0898,3.0957,3.0995,3.0957,3.1228,3.117,3.1092,3.1632,3.2146,3.2416,3.2701,3.2901,3.2931,3.2867,3.2699,3.2424,3.2007,3.1923,3.1579,3.1236,3.1491,3.1741,3.1657,3.1828,3.3788,3.5033,3.5089,3.5331,3.6026,3.6405,3.6405,3.6279,3.5981,3.5881,3.583,3.5579,3.5207,3.5107,3.3418,3.3418,3.3418,3.3418,3.3418,3.3418,3.3418,3.3418,3.3418,3.3418,3.3418,3.3418,3.3418,3.3418,3.3418,3.3418,3.3418,3.3418,3.3418,3.3418,3.3418,3.3418,3.3418,3.3418,3.3418,3.3418,3.3418,3.3418,3.3398,3.3125,3.3027,3.3008,3.2949,3.2734,3.248,3.2461,3.2266,3.1836,3.168,3.1387,3.1016,3.0898,3.0898,3.0898,3.0898,3.0898,3.0898,3.0898,3.0898,3.0898,3.0898,3.0898,3.0898,3.0898,3.0898,3.0898,3.0898,3.0898,3.0898,3.0898,3.0898,3.0898,3.0898,3.0898,3.0898,3.0898,3.0898,3.0898,3.0898,3.0898,3.0898,3.0898,3.0898,3.0898,3.0898,3.0898,3.0898,3.0898,3.0898,3.0957,3.0898,3.0898,3.0898,3.0898,3.1112,3.1556,3.1614,3.171,3.169,3.1629,3.1454,3.1314,3.106,3.0633,3.0152,3.0645,3.1019,3.0681,3.0872,3.0833,3.1398,3.3361,3.4392,3.4213,3.4745,3.5957,3.6405,3.6383,3.643,3.638,3.6279,3.6107,3.6056,3.578,3.5655,3.3418,3.3418,3.3418,3.3418,3.3418,3.3418,3.3418,3.3418,3.3418,3.3418,3.3418,3.3418,3.3418,3.3418,3.3418,3.3418,3.3418,3.3418,3.3418,3.3418,3.3418,3.3418,3.3418,3.3418,3.3418,3.3418,3.3418,3.3418,3.3418,3.334,3.332,3.332,3.3262,3.3144,3.2851,3.3184,3.293,3.2285,3.2229,3.1699,3.123,3.1094,3.1094,3.0996,3.0996,3.1016,3.0898,3.0898,3.0898,3.0898,3.0898,3.0898,3.0898,3.0898,3.0898,3.0898,3.0937,3.0937,3.0918,3.0898,3.0898,3.0898,3.0898,3.0898,3.0898,3.0898,3.0898,3.0898,3.0898,3.0898,3.0898,3.0898,3.0898,3.0898,3.0898,3.0898,3.0898,3.0898,3.0898,3.0898,3.0898,3.0898,3.0898,3.0898,3.0898,3.1015,3.0957,3.0898,3.0898,3.0879,3.082,3.0781,3.0664,3.0625,3.0488,3.0684,3.0818,3.0409,3.0288,3.0429,3.0872,3.2191,3.2914,3.3144,3.4363,3.577,3.615,3.6383,3.6383,3.6405,3.6405,3.6355,3.6355,3.6304,3.6081,3.3418,3.3418,3.3418,3.3418,3.3418,3.3418,3.3418,3.3418,3.3418,3.3418,3.3418,3.3418,3.3418,3.3418,3.3418,3.3418,3.3418,3.3418,3.3418,3.3418,3.3418,3.3418,3.3418,3.3418,3.3418,3.3418,3.3418,3.3418,3.3418,3.3418,3.3418,3.3418,3.3418,3.3359,3.3262,3.3359,3.3105,3.2676,3.2539,3.2305,3.1797,3.1699,3.1582,3.1328,3.1309,3.1172,3.0937,3.0937,3.0898,3.0898,3.0898,3.0898,3.0898,3.0898,3.0898,3.0976,3.1074,3.1309,3.1211,3.1113,3.0898,3.0918,3.0898,3.0898,3.0898,3.0898,3.0898,3.0898,3.0898,3.0898,3.0898,3.0898,3.0898,3.0898,3.0898,3.0898,3.0898,3.0898,3.0898,3.0898,3.0898,3.0898,3.0898,3.0898,3.0898,3.0898,3.0898,3.0898,3.0898,3.0898,3.0859,3.0879,3.084,3.0859,3.0898,3.0898,3.0898,3.0644,3.0527,3.0564,3.1135,3.167,3.1984,3.25,3.4027,3.5477,3.5503,3.5672,3.6243,3.6405,3.631,3.6358,3.638,3.638,3.6329,3.3418,3.3418,3.3418,3.3418,3.3418,3.3418,3.3418,3.3418,3.3418,3.3418,3.3418,3.3418,3.3418,3.3418,3.3418,3.3418,3.3418,3.3418,3.3418,3.3418,3.3418,3.3418,3.3418,3.3418,3.3418,3.3418,3.3418,3.3418,3.3418,3.3418,3.3418,3.3418,3.3418,3.3398,3.3398,3.3359,3.3203,3.2871,3.2695,3.2539,3.2207,3.207,3.1992,3.1777,3.1582,3.1387,3.1152,3.0996,3.0918,3.0918,3.0918,3.0918,3.0918,3.0918,3.0976,3.1152,3.1484,3.1699,3.166,3.1348,3.1191,3.1152,3.0996,3.0898,3.0898,3.0898,3.0898,3.0898,3.0898,3.0918,3.0918,3.0918,3.0937,3.0937,3.0898,3.0898,3.0898,3.0898,3.0898,3.0898,3.0898,3.0898,3.0898,3.0898,3.0898,3.0898,3.0898,3.0898,3.0898,3.0898,3.0898,3.0898,3.0898,3.0898,3.0898,3.0898,3.0898,3.0898,3.082,3.0723,3.1045,3.1549,3.1698,3.202,3.3412,3.4477,3.4574,3.4909,3.5527,3.5984,3.6121,3.6216,3.6358,3.6405,3.6405,3.3418,3.3418,3.3418,3.3418,3.3418,3.3418,3.3418,3.3418,3.3418,3.3418,3.3418,3.3418,3.3418,3.3418,3.3418,3.3418,3.3418,3.3418,3.3418,3.3418,3.3418,3.3418,3.3418,3.3418,3.3418,3.3418,3.3418,3.3418,3.3418,3.3418,3.3418,3.3418,3.3418,3.3418,3.3418,3.3379,3.3223,3.3008,3.291,3.2754,3.2539,3.2383,3.2344,3.2168,3.1934,3.1719,3.1504,3.1309,3.1133,3.1074,3.1035,3.1016,3.0976,3.0937,3.1191,3.1543,3.1992,3.2051,3.2109,3.1777,3.1582,3.1504,3.123,3.1035,3.0898,3.0898,3.0898,3.0937,3.0976,3.0976,3.0976,3.0976,3.0996,3.0976,3.0918,3.0918,3.0898,3.0898,3.0898,3.0898,3.0898,3.0898,3.0898,3.0898,3.0937,3.0898,3.0898,3.0898,3.0898,3.0898,3.0898,3.0898,3.0898,3.0898,3.0898,3.0898,3.0898,3.0898,3.0898,3.0878,3.1164,3.1331,3.1491,3.1899,3.2836,3.3554,3.3925,3.4411,3.5001,3.5404,3.6037,3.6266,3.648,3.643,3.6405,3.3418,3.3418,3.3418,3.3418,3.3418,3.3418,3.3418,3.3418,3.3418,3.3418,3.3418,3.3418,3.3418,3.3418,3.3418,3.3418,3.3418,3.3418,3.3418,3.3418,3.3418,3.3418,3.3418,3.3418,3.3418,3.3418,3.3418,3.3457,3.3418,3.3418,3.3418,3.3418,3.3418,3.3418,3.3418,3.3418,3.332,3.3242,3.3184,3.3086,3.3008,3.2949,3.2832,3.2617,3.2441,3.2207,3.1953,3.1816,3.1719,3.1738,3.1777,3.1797,3.1797,3.1816,3.1992,3.2324,3.2363,3.2246,3.2461,3.2207,3.1973,3.1973,3.1816,3.1406,3.1133,3.0976,3.0996,3.1113,3.125,3.1328,3.1348,3.1348,3.1348,3.1309,3.123,3.1133,3.1133,3.1133,3.1133,3.1133,3.1113,3.1133,3.1094,3.0976,3.1016,3.0937,3.0898,3.0898,3.0898,3.0898,3.0898,3.0898,3.0898,3.0898,3.0898,3.0898,3.0898,3.0898,3.0898,3.0898,3.0975,3.1128,3.1261,3.1633,3.2239,3.2912,3.354,3.4009,3.4508,3.5583,3.6259,3.6402,3.6556,3.6505,3.6581,3.3418,3.3418,3.3418,3.3418,3.3418,3.3418,3.3418,3.3418,3.3418,3.3418,3.3418,3.3418,3.3418,3.3418,3.3418,3.3418,3.3418,3.3418,3.3418,3.3418,3.3418,3.3418,3.3418,3.3418,3.3418,3.3457,3.3535,3.3613,3.3476,3.3418,3.3418,3.3418,3.3418,3.3418,3.3418,3.3418,3.3418,3.3398,3.3398,3.3418,3.3418,3.3418,3.3242,3.3066,3.293,3.2656,3.2441,3.2324,3.2207,3.2229,3.2229,3.2229,3.2268,3.2285,3.2441,3.2715,3.2812,3.2812,3.2949,3.2656,3.248,3.2363,3.2285,3.1914,3.168,3.1523,3.1504,3.1543,3.168,3.1777,3.1777,3.1777,3.1777,3.1777,3.1601,3.1445,3.1426,3.1426,3.1445,3.1445,3.1465,3.1465,3.1387,3.123,3.1133,3.1133,3.1035,3.0898,3.0898,3.0898,3.0898,3.0898,3.0898,3.0898,3.0898,3.0898,3.0898,3.0898,3.0898,3.0898,3.0898,3.0937,3.1091,3.1186,3.1354,3.1946,3.2411,3.3353,3.4011,3.5028,3.6066,3.6578,3.6697,3.6681,3.6782,3.3418,3.3418,3.3418,3.3418,3.3418,3.3418,3.3418,3.3418,3.3418,3.3418,3.3418,3.3418,3.3418,3.3418,3.3418,3.3418,3.3418,3.3418,3.3418,3.3418,3.3418,3.3418,3.3418,3.3418,3.3418,3.3555,3.3652,3.3633,3.3496,3.3496,3.3555,3.3437,3.3418,3.3418,3.3418,3.3418,3.3418,3.3418,3.3418,3.3418,3.3418,3.3418,3.3398,3.334,3.3105,3.2851,3.2754,3.2539,3.2326,3.2285,3.2305,3.2363,3.25,3.2656,3.2832,3.293,3.3125,3.3223,3.3223,3.3008,3.2891,3.2715,3.25,3.2402,3.2305,3.1973,3.1894,3.1934,3.2051,3.2187,3.2207,3.2207,3.2207,3.2129,3.1992,3.1875,3.1816,3.1816,3.1816,3.1816,3.1816,3.1836,3.1816,3.168,3.1582,3.1484,3.1406,3.1191,3.1133,3.1133,3.1016,3.0996,3.0898,3.0898,3.0898,3.0898,3.0898,3.0898,3.0898,3.0898,3.0898,3.0898,3.0898,3.1053,3.109,3.0856,3.1187,3.2358,3.3454,3.4066,3.5126,3.6456,3.6824,3.6945,3.7111,3.3418,3.3418,3.3418,3.3418,3.3418,3.3418,3.3418,3.3418,3.3418,3.3418,3.3418,3.3418,3.3418,3.3418,3.3418,3.3418,3.3418,3.3418,3.3418,3.3418,3.3418,3.3418,3.3418,3.3418,3.3418,3.3437,3.3516,3.3594,3.3555,3.3672,3.3711,3.3457,3.3418,3.3418,3.3418,3.3418,3.3418,3.3418,3.3418,3.3418,3.3418,3.3418,3.3398,3.3398,3.3242,3.3223,3.3164,3.3144,3.3086,3.3125,3.3125,3.3144,3.3144,3.3223,3.3242,3.3281,3.334,3.3398,3.3379,3.3281,3.3223,3.3223,3.3125,3.3125,3.2949,3.2461,3.2246,3.2324,3.2422,3.2559,3.2656,3.2637,3.2617,3.2519,3.2422,3.2324,3.2246,3.2226,3.2226,3.2226,3.2226,3.2226,3.2226,3.2148,3.2051,3.1992,3.1973,3.1935,3.1816,3.1758,3.1367,3.125,3.0976,3.0918,3.0898,3.0898,3.0898,3.0898,3.0898,3.0898,3.0898,3.0957,3.0957,3.0898,3.0898,3.0993,3.1394,3.2215,3.3098,3.3781,3.4786,3.6388,3.7399,3.7716,3.7817,3.3418,3.3418,3.3418,3.3418,3.3418,3.3418,3.3418,3.3418,3.3418,3.3418,3.3418,3.3418,3.3418,3.3418,3.3418,3.3418,3.3418,3.3418,3.3418,3.3418,3.3418,3.3418,3.3418,3.3437,3.3418,3.3418,3.3437,3.3496,3.3672,3.3613,3.3574,3.3457,3.3437,3.3418,3.3418,3.3418,3.3437,3.3418,3.3457,3.3457,3.3457,3.3437,3.3418,3.3418,3.3418,3.3418,3.3418,3.3418,3.3418,3.3418,3.3359,3.3359,3.334,3.3359,3.3398,3.3398,3.3398,3.3418,3.3437,3.3457,3.3457,3.3457,3.3418,3.3301,3.3301,3.2891,3.2871,3.293,3.2949,3.3066,3.3086,3.3066,3.3066,3.3008,3.2969,3.291,3.2871,3.2891,3.2871,3.2871,3.2871,3.2871,3.2812,3.2578,3.248,3.2383,3.2383,3.2226,3.2226,3.2305,3.1934,3.1621,3.1387,3.1055,3.0898,3.0898,3.0898,3.0898,3.0898,3.0898,3.0898,3.0957,3.0957,3.1441,3.1825,3.1957,3.2452,3.2964,3.3586,3.4406,3.5378,3.646,3.7388,3.8352,3.8589,3.3613,3.3574,3.3613,3.3594,3.3574,3.3535,3.3516,3.3516,3.3437,3.3418,3.3418,3.3418,3.3418,3.3418,3.3418,3.3418,3.3418,3.3418,3.3418,3.3418,3.3418,3.3516,3.3574,3.3555,3.3574,3.3594,3.3594,3.3769,3.3984,3.3828,3.3672,3.3516,3.3457,3.3394,3.3476,3.3535,3.3594,3.373,3.3769,3.3672,3.3574,3.3476,3.3437,3.3418,3.3418,3.3418,3.3418,3.3418,3.3418,3.3594,3.3672,3.375,3.375,3.3789,3.375,3.3769,3.3789,3.375,3.3691,3.3652,3.3594,3.3535,3.3476,3.3437,3.3437,3.3418,3.3398,3.3398,3.3418,3.3398,3.3398,3.3379,3.3379,3.3379,3.3359,3.334,3.3359,3.3359,3.3359,3.3359,3.3359,3.3359,3.3223,3.3008,3.291,3.2793,3.2656,3.248,3.2402,3.2559,3.248,3.2207,3.1992,3.1601,3.1133,3.0918,3.0937,3.0898,3.0898,3.0898,3.1054,3.1441,3.194,3.2587,3.2907,3.3247,3.336,3.3733,3.4403,3.5068,3.5985,3.6938,3.7757,3.8647,3.9289,3.4453,3.4453,3.4453,3.4434,3.4394,3.4101,3.3945,3.3887,3.3574,3.3418,3.3496,3.3437,3.3418,3.3437,3.3418,3.3476,3.3633,3.3574,3.3457,3.3418,3.3516,3.3691,3.3867,3.3945,3.3945,3.3945,3.3945,3.4004,3.418,3.4043,3.3945,3.3945,3.3574,3.3633,3.3945,3.3984,3.4062,3.418,3.4297,3.4297,3.4141,3.3926,3.3476,3.3418,3.3418,3.3418,3.3418,3.3418,3.3633,3.3906,3.4199,3.4316,3.4316,3.4277,3.4277,3.4238,3.4258,3.4277,3.4199,3.4043,3.3984,3.3926,3.3828,3.3594,3.3594,3.3574,3.3574,3.3574,3.3555,3.3496,3.3476,3.3418,3.3398,3.3398,3.3398,3.3398,3.3398,3.3398,3.3398,3.3398,3.3398,3.3398,3.3379,3.3242,3.3242,3.3164,3.3164,3.2988,3.2949,3.2988,3.2988,3.2754,3.2519,3.207,3.1562,3.1094,3.0976,3.0937,3.0898,3.0898,3.1344,3.2264,3.2871,3.3529,3.4292,3.4847,3.4902,3.4902,3.5068,3.5727,3.6649,3.7506,3.8295,3.8868,3.9465]}]]